[[{"header":{"parameterUnit":"m.s-1","parameterCategory":1,"la1":31.0,"la2":29.5877,"lo1":-88.7671,"lo2":-86.6584,"dy":0.0162,"dx":0.0185,"nx":115,"ny":88,"refTime":"2024-07-25T12:00:00:Z","depth":0,"parameterNumber":2,"parameterNumberName":"U-component_of_WINDS"},"data":[0.0,0.0,0.0,0.0,0.0,0.0,0.0,0.0,0.0,0.0,0.0,0.0,0.0,0.0,0.0,0.0,0.0,0.0,0.0,0.0,0.0,0.0,0.0,0.0,0.0,0.0,0.0,0.0,0.0,0.0,0.0,0.0,0.0,0.0,0.0,0.0,0.0,0.0,0.0,0.0,0.0,0.0,0.0,0.0,0.0,0.0,0.0,0.0,0.0,0.0,0.0,0.0,0.0,0.0,0.0,0.0,0.0,0.0,0.0,0.0,0.0,0.0,0.0,0.0,0.0,0.0,0.0,0.0,0.0,0.0,0.0,0.0,0.0,0.0,0.0,0.0,0.0,0.0,0.0,0.0,0.0,0.0,0.0,0.0,0.0,0.0,0.0,0.0,0.0,0.0,0.0,0.0,0.0,0.0,0.0,0.0,0.0,0.0,0.0,0.0,0.0,0.0,0.0,0.0,0.0,0.0,0.0,0.0,0.0,0.0,0.0,0.0,0.0,0.0,0.0,0.0,0.0,0.0,0.0,0.0,0.0,0.0,0.0,0.0,0.0,0.0,0.0,0.0,0.0,0.0,0.0,0.0,0.0,0.0,0.0,0.0,0.0,0.0,0.0,0.0,0.0,0.0,0.0,0.0,0.0,0.0,0.0,0.0,0.0,0.0,0.0,0.0,0.0,0.0,0.0,0.0,0.0,0.0,0.0,0.0,0.0,0.0,0.0,0.0,0.0,0.0,0.0,0.0,0.0,0.0,0.0,0.0,0.0,0.0,0.0,0.0,0.0,0.0,0.0,0.0,0.0,0.0,0.0,0.0,0.0,0.0,0.0,0.0,0.0,0.0,0.0,0.0,0.0,0.0,0.0,0.0,0.0,0.0,0.0,0.0,0.0,0.0,0.0,0.0,0.0,0.0,0.0,0.0,0.0,0.0,0.0,0.0,0.0,0.0,0.0,0.0,0.0,0.0,0.0,0.0,0.0,0.0,0.0,0.0,0.0,0.0,0.0,0.0,0.0,0.0,0.0,0.0,0.0,0.0,0.0,0.0,0.0,0.0,0.0,0.0,0.0,0.0,0.0,0.0,0.0,0.0,0.0,0.0,0.0,0.0,0.0,0.0,0.0,0.0,0.0,0.0,0.0,0.0,0.0,0.0,0.0,0.0,0.0,0.0,0.0,0.0,0.0,0.0,0.0,0.0,0.0,0.0,0.0,0.0,0.0,0.0,0.0,0.0,0.0,0.0,0.0,0.0,0.0,0.0,0.0,0.0,0.0,0.0,0.0,0.0,0.0,0.0,0.0,0.0,0.0,0.0,0.0,0.0,0.0,0.0,0.0,0.0,0.0,0.0,0.0,0.0,0.0,0.0,0.0,0.0,0.0,0.0,0.0,0.0,0.0,0.0,0.0,0.0,0.0,0.0,0.0,0.0,0.0,0.0,0.0,0.0,0.0,0.0,0.0,0.0,0.0,0.0,0.0,0.0,0.0,0.0,0.0,0.0,0.0,0.0,0.0,0.0,0.0,0.0,0.0,0.0,0.0,0.0,0.0,0.0,0.0,0.0,0.0,0.0,0.0,0.0,0.0,0.0,0.0,0.0,0.0,0.0,0.0,0.0,0.0,0.0,0.0,0.0,0.0,0.0,0.0,0.0,0.0,0.0,0.0,0.0,0.0,0.0,0.0,0.0,0.0,0.0,0.0,0.0,0.0,0.0,0.0,0.0,0.0,0.0,0.0,0.0,0.0,0.0,0.0,0.0,0.0,0.0,0.0,0.0,0.0,0.0,0.0,0.0,0.0,0.0,0.0,0.0,0.0,0.0,0.0,0.0,0.0,0.0,0.0,0.0,0.0,0.0,0.0,0.0,0.0,0.0,0.0,0.0,0.0,0.0,0.0,0.0,0.0,0.0,0.0,0.0,0.0,0.0,0.0,0.0,0.0,0.0,0.0,0.0,0.0,0.0,0.0,0.0,0.0,0.0,0.0,0.0,0.0,0.0,0.0,0.0,0.0,0.0,0.0,0.0,0.0,0.0,0.0,0.0,0.0,0.0,0.0,0.0,0.0,0.0,0.0,0.0,0.0,0.0,0.0,0.0,0.0,0.0,0.0,0.0,0.0,0.0,0.0,0.0,0.0,0.0,0.0,0.0,0.0,0.0,0.0,0.0,0.0,0.0,0.0,0.0,0.0,0.0,0.0,0.0,0.0,0.0,0.0,0.0,0.0,0.0,0.0,0.0,0.0,0.0,0.0,0.0,0.0,0.0,0.0,0.0,0.0,0.0,0.0,0.0,0.0,0.0,0.0,0.0,0.0,0.0,0.0,0.0,0.0,0.0,0.0,0.0,0.0,0.0,0.0,0.0,0.0,0.0,0.0,0.0,0.0,0.0,0.0,0.0,0.0,0.0,0.0,0.0,0.0,0.0,0.0,0.0,0.0,0.0,0.0,0.0,0.0,0.0,0.0,0.0,0.0,0.0,0.0,0.0,0.0,0.0,0.0,0.0,0.0,0.0,0.0,0.0,0.0,0.0,0.0,0.0,0.0,0.0,0.0,0.0,0.0,0.0,0.0,0.0,0.0,0.0,0.0,0.0,0.0,0.0,0.0,0.0,0.0,0.0,0.0,0.0,0.0,0.0,0.0,0.0,0.0,0.0,0.0,0.0,0.0,0.0,0.0,0.0,0.0,0.0,0.0,0.0,0.0,0.0,0.0,0.0,0.0,0.0,0.0,0.0,0.0,0.0,0.0,0.0,0.0,0.0,0.0,0.0,0.0,0.0,0.0,0.0,0.0,0.0,0.0,0.0,0.0,0.0,0.0,0.0,0.0,0.0,0.0,0.0,0.0,0.0,0.0,0.0,0.0,0.0,0.0,0.0,0.0,0.0,0.0,0.0,0.0,0.0,0.0,0.0,0.0,0.0,0.0,0.0,0.0,0.0,0.0,0.0,0.0,0.0,0.0,0.0,0.0,0.0,0.0,0.0,0.0,0.0,0.0,0.0,0.0,0.0,0.0,0.0,0.0,0.0,0.0,0.0,0.0,0.0,0.0,0.0,0.0,0.0,0.0,0.0,0.0,0.0,0.0,0.0,0.0,0.0,0.0,0.0,0.0,0.0,0.0,0.0,0.0,0.0,0.0,0.0,0.0,0.0,0.0,0.0,0.0,0.0,0.0,0.0,0.0,0.0,0.0,0.0,0.0,0.0,0.0,0.0,0.0,0.0,0.0,0.0,0.0,0.0,0.0,0.0,0.0,0.0,0.0,0.0,0.0,0.0,0.0,0.0,0.0,0.0,0.0,0.0,0.0,0.0,0.0,0.0,0.0,0.0,0.0,0.0,0.0,0.0,0.0,0.0,0.0,0.0,0.0,0.0,0.0,0.0,0.0,0.0,0.0,0.0,0.0,0.0,0.0,0.0,0.0,0.0,0.0,0.0,0.0,0.0,0.0,0.0,0.0,0.0,0.0,0.0,0.0,0.0,0.0,0.0,0.0,0.0,0.0,0.0,0.0,0.0,0.0,0.0,0.0,0.0,0.0,0.0,0.0,0.0,0.0,0.0,0.0,0.0,0.0,0.0,0.0,0.0,0.0,0.0,0.0,0.0,0.0,0.0,0.0,0.0,0.0,0.0,0.0,0.0,0.0,0.0,0.0,0.0,0.0,0.0,0.0,0.0,0.0,0.0,0.0,0.0,0.0,0.0,0.0,0.0,0.0,0.0,0.0,0.0,0.0,0.0,0.0,0.0,0.0,0.0,0.0,0.0,0.0,0.0,0.0,0.0,0.0,0.0,0.0,0.0,0.0,0.0,0.0,0.0,0.0,0.0,0.0,0.0,0.0,0.0,0.0,0.0,0.0,0.0,0.0,0.0,0.0,0.0,0.0,0.0,0.0,0.0,0.0,0.0,0.0,0.0,0.0,0.0,0.0,0.0,0.0,0.0,0.0,0.0,0.0,0.0,0.0,0.0,0.0,0.0,0.0,0.0,0.0,0.0,0.0,0.0,0.0,0.0,0.0,0.0,0.0,0.0,0.0,0.0,0.0,0.0,0.0,0.0,0.0,0.0,0.0,0.0,0.0,0.0,0.0,0.0,0.0,0.0,0.0,0.0,0.0,0.0,0.0,0.0,0.0,0.0,0.0,0.0,0.0,0.0,0.0,0.0,0.0,0.0,0.0,0.0,0.0,0.0,0.0,0.0,0.0,0.0,0.0,0.0,0.0,0.0,0.0,0.0,0.0,0.0,0.0,0.0,0.0,0.0,0.0,0.0,0.0,0.0,0.0,0.0,1.3812,0.0,0.0,0.0,0.0,0.0,0.0,0.0,0.0,0.0,0.0,0.0,0.0,0.0,0.0,0.0,0.0,0.0,0.0,0.0,0.0,0.0,0.0,0.0,0.0,0.0,0.0,0.0,0.0,0.0,0.0,0.0,0.0,0.0,0.0,0.0,0.0,0.0,0.0,0.0,0.0,0.0,0.0,0.0,0.0,0.0,0.0,0.0,0.0,0.0,0.0,0.0,0.0,0.0,0.0,0.0,0.0,0.0,0.0,0.0,0.0,0.0,0.0,0.0,0.0,0.0,0.0,0.0,0.0,0.0,0.0,0.0,0.0,0.0,0.0,0.0,0.0,0.0,0.0,0.0,0.0,0.0,0.0,0.0,0.0,0.0,0.0,0.0,0.0,0.0,0.0,0.0,0.0,0.0,0.0,0.0,0.0,0.0,0.0,0.0,0.0,0.0,0.0,0.0,0.0,0.0,0.0,0.0,0.0,0.0,0.0,1.4876,1.5074,1.4902,1.4387,1.355,0.0,0.0,0.0,0.0,0.0,0.0,0.0,0.0,0.0,0.0,0.0,0.0,0.0,0.0,0.0,0.0,0.0,0.0,0.0,0.0,0.0,0.0,0.0,0.0,0.0,0.0,0.0,0.0,0.0,0.0,0.0,0.0,0.0,0.0,0.0,0.0,0.0,0.0,0.0,0.0,0.0,0.0,0.0,0.0,0.0,0.0,0.0,0.0,0.0,0.0,0.0,0.0,0.0,0.0,0.0,0.0,0.0,0.0,0.0,0.0,0.0,0.0,0.0,0.0,0.0,0.0,0.0,0.0,0.0,0.0,0.0,0.0,0.0,0.0,0.0,0.0,0.0,0.0,0.0,0.0,0.0,0.0,0.0,0.0,0.0,0.0,0.0,0.0,0.0,0.0,0.0,0.0,0.0,0.0,0.0,0.0,0.0,0.0,0.0,0.0,0.0,0.0,0.0,0.0,0.0,0.0,0.0,0.0,0.0,0.0,0.0,0.0,1.5052,1.4383,1.3259,0.0,0.0,0.0,0.0,0.0,0.0,0.0,0.0,0.0,0.0,0.0,0.0,0.0,0.0,0.0,0.0,0.0,0.0,0.0,0.0,0.0,0.0,0.0,0.0,0.0,0.0,0.0,0.0,0.0,0.0,0.0,0.0,0.0,0.0,0.0,0.0,0.0,0.0,0.0,0.0,0.0,0.0,0.0,0.0,0.0,0.0,0.0,0.0,0.0,0.0,0.0,0.0,0.0,0.0,0.0,0.0,0.0,0.0,0.0,0.0,0.0,0.0,0.0,0.0,0.0,0.0,0.0,0.0,0.0,0.0,0.0,0.0,0.0,0.0,0.0,0.0,0.0,0.0,0.0,0.0,0.0,0.0,0.0,0.0,0.0,0.0,0.0,0.0,0.0,0.0,0.0,0.0,0.0,0.0,0.0,0.0,0.0,0.0,0.0,0.0,0.0,0.0,0.0,0.0,0.0,0.0,0.0,0.0,0.0,0.0,1.4956,1.5889,1.5478,0.0,1.314,0.0,0.0,0.0,0.0,0.0,0.0,0.0,0.0,0.0,0.0,0.0,0.0,0.0,0.0,0.0,0.0,0.0,0.0,0.0,0.0,0.0,0.0,0.0,0.0,0.0,0.0,0.0,0.0,0.0,0.0,0.0,0.0,0.0,0.0,0.0,0.0,0.0,0.0,0.0,0.0,0.0,0.0,0.0,0.0,0.0,0.0,0.0,0.0,0.0,0.0,0.0,0.0,0.0,0.0,0.0,0.0,0.0,0.0,0.0,0.0,0.0,0.0,0.0,0.0,0.0,0.0,0.0,0.0,0.0,0.0,0.0,0.0,0.0,0.0,0.0,0.0,0.0,0.0,0.0,0.0,0.0,0.0,0.0,0.0,0.0,0.0,0.0,0.0,0.0,0.0,0.0,0.0,0.0,0.0,0.0,0.0,0.0,0.0,0.0,0.0,0.0,0.0,0.0,0.0,0.0,0.0,0.0,0.0,0.0,0.0,0.0,1.523,1.4387,1.3353,0.0,0.0,0.0,0.0,0.0,0.0,0.0,0.0,0.0,0.0,0.0,0.0,0.0,0.0,0.0,0.0,0.0,0.0,0.0,0.0,0.0,0.0,0.0,0.0,0.0,0.0,0.0,0.0,0.0,0.0,0.0,0.0,0.0,0.0,0.0,0.0,0.0,0.0,0.0,0.0,0.0,0.0,0.0,0.0,0.0,0.0,0.0,0.0,0.0,0.0,0.0,0.0,0.0,0.0,0.0,0.0,0.0,0.0,0.0,0.0,0.0,0.0,0.0,0.0,0.0,0.0,0.0,0.0,0.0,0.0,0.0,0.0,0.0,0.0,0.0,0.0,0.0,0.0,0.0,0.0,0.0,0.0,0.0,0.0,0.0,0.0,0.0,0.0,0.0,0.0,0.0,0.0,0.0,0.0,0.0,0.0,0.0,0.0,0.0,0.0,0.0,0.0,0.0,0.0,0.0,0.0,0.0,0.0,0.0,0.0,1.4026,0.0,1.4506,1.3832,1.2779,1.1402,0.0,0.0,0.0,0.0,0.0,0.0,0.0,0.0,0.0,0.0,0.0,0.0,0.0,0.0,0.0,0.0,0.0,0.0,0.0,0.0,0.0,0.0,0.0,0.0,0.0,0.0,0.0,0.0,0.0,0.0,0.0,0.0,0.0,0.0,0.0,0.0,0.0,0.0,0.0,0.0,0.0,0.0,0.0,0.0,0.0,0.0,0.0,0.0,0.0,0.0,0.0,0.0,0.0,0.0,0.0,0.0,0.0,0.0,0.0,0.0,0.0,0.0,0.0,0.0,0.0,0.0,0.0,0.0,0.0,0.0,0.0,0.0,0.0,0.0,0.0,0.0,0.0,0.0,0.0,0.0,0.0,0.0,0.0,0.0,0.0,0.0,0.0,0.0,0.0,0.0,0.0,0.0,0.0,0.0,0.0,0.0,0.0,0.0,0.0,0.0,0.0,0.0,0.0,0.0,0.0,0.0,0.0,0.0,0.0,1.363,1.363,1.4165,1.4357,1.3424,0.0,0.0,0.0,0.0,0.0,0.0,0.0,0.0,0.0,0.0,0.0,0.0,0.0,0.0,0.0,0.0,0.0,0.0,0.0,0.0,0.0,0.0,0.0,0.0,0.0,0.0,0.0,0.0,0.0,0.0,0.0,0.0,0.0,0.0,0.0,0.0,0.0,0.0,0.0,0.0,0.0,0.0,0.0,0.0,0.0,0.0,0.0,0.0,0.0,0.0,0.0,0.0,0.0,0.0,0.0,0.0,0.0,0.0,0.0,0.0,0.0,0.0,0.0,0.0,0.0,0.0,0.0,0.0,0.0,0.0,0.0,0.0,0.0,0.0,0.0,0.0,0.0,0.0,0.0,0.0,0.0,0.0,0.0,0.0,0.0,0.0,0.0,0.0,0.0,0.0,0.0,0.0,0.0,0.0,0.0,0.0,0.0,0.0,0.0,0.0,0.0,0.0,0.0,0.0,0.0,0.0,0.0,0.0,0.0,1.304,1.355,1.4237,1.5015,1.3674,1.2499,0.0,0.0,0.0,0.0,0.0,0.0,0.0,0.0,0.0,0.0,0.0,0.0,0.0,0.0,0.0,0.0,0.0,0.0,0.0,0.0,0.0,0.0,0.0,0.0,0.0,0.0,0.0,0.0,0.0,0.0,0.0,0.0,0.0,0.0,0.0,0.0,0.0,0.0,0.0,0.0,0.0,0.0,0.0,0.0,0.0,0.0,0.0,0.0,0.0,0.0,0.0,0.0,0.0,0.0,0.0,0.0,0.0,0.0,0.0,0.0,0.0,0.0,0.0,0.0,0.0,0.0,0.0,0.0,0.0,0.0,0.0,0.0,0.0,0.0,0.0,0.0,0.0,0.0,0.0,0.0,0.0,0.0,0.0,0.0,0.0,0.0,0.0,0.0,0.0,0.0,0.0,0.0,0.0,0.0,0.0,0.0,0.0,0.0,0.0,0.0,0.0,0.0,0.0,0.0,0.0,0.0,0.0,0.0,0.0,1.2789,0.0,1.4751,0.0,1.3202,1.1878,0.0,0.0,0.0,0.0,0.0,0.0,0.0,0.0,0.0,0.0,0.0,0.0,0.0,0.0,0.0,0.0,0.0,0.0,0.0,0.0,0.0,0.0,0.0,0.0,0.0,0.0,0.0,0.0,0.0,0.0,0.0,0.0,0.0,0.0,0.0,0.0,0.0,0.0,0.0,0.0,0.0,0.0,0.0,0.0,0.0,0.0,0.0,0.0,0.0,0.0,0.0,0.0,0.0,0.0,0.0,0.0,0.0,0.0,0.0,0.0,0.0,0.0,0.0,0.0,0.0,0.0,0.0,0.0,0.0,0.0,0.0,0.0,0.0,0.0,0.0,0.0,0.0,0.0,0.0,0.0,0.0,0.0,0.0,0.0,0.0,0.0,0.0,0.0,0.0,0.0,0.0,0.0,0.0,0.0,0.0,0.0,0.0,0.0,0.0,0.0,0.0,0.0,0.0,0.0,0.0,0.0,0.0,0.0,1.1802,1.3338,1.4651,1.4947,1.4148,1.3159,1.1683,0.0,0.0,0.0,0.0,0.0,0.0,0.0,0.0,0.0,0.0,0.0,0.0,0.0,0.0,0.0,0.0,0.0,0.0,0.0,0.0,0.0,0.0,0.0,0.0,0.0,0.0,0.0,0.0,0.0,0.0,0.0,0.0,0.0,0.0,0.0,0.0,0.0,0.0,0.0,0.0,0.0,0.0,0.0,0.0,0.0,0.0,0.0,0.0,0.0,0.0,0.0,0.0,0.0,0.0,0.0,0.0,0.0,0.0,0.0,0.0,0.0,0.0,0.0,0.0,0.0,0.0,0.0,0.0,0.0,0.0,0.0,0.0,0.0,0.0,0.0,0.0,0.0,0.0,0.0,0.0,0.0,0.0,0.0,0.0,0.0,0.0,0.0,0.0,0.0,0.0,0.0,0.0,0.0,0.0,0.0,0.0,0.0,0.0,0.0,0.0,0.0,0.0,0.0,0.0,0.0,0.0,0.0,0.0,0.0,1.2848,1.3878,1.4667,1.5121,1.3551,1.2257,0.0,0.0,0.0,0.0,0.0,0.0,0.0,0.0,0.0,0.0,0.0,0.0,0.0,0.0,0.0,0.0,0.0,0.0,0.0,0.0,0.0,0.0,0.0,0.0,0.0,0.0,0.0,0.0,0.0,0.0,0.0,0.0,0.0,0.0,0.0,0.0,0.0,0.0,0.0,0.0,0.0,0.0,0.0,0.0,0.0,0.0,0.0,0.0,0.0,0.0,0.0,0.0,0.0,0.0,0.0,0.0,0.0,0.0,0.0,0.0,0.0,0.0,0.0,0.0,0.0,0.0,0.0,0.0,0.0,0.0,0.0,0.0,0.0,0.0,0.0,0.0,0.0,0.0,0.0,0.0,0.0,0.0,0.0,0.0,0.0,0.0,0.0,0.0,0.0,0.0,0.0,0.0,0.0,0.0,0.0,0.0,0.0,0.0,0.0,0.0,0.0,0.0,0.0,0.0,0.0,0.0,0.0,0.0,0.0,1.3166,1.4108,1.4957,1.5673,1.3944,1.2693,1.2008,0.0,0.0,0.0,0.0,0.0,0.0,0.0,0.0,0.0,0.0,0.0,0.0,0.0,0.0,0.0,0.0,0.0,0.0,0.0,0.0,0.0,0.0,0.0,0.0,0.0,0.0,0.0,0.0,0.0,0.0,0.0,0.0,0.0,0.0,0.0,0.0,0.0,0.0,0.0,0.0,0.0,0.0,0.0,0.0,0.0,0.0,0.0,0.0,0.0,0.0,0.0,0.0,0.0,0.0,0.0,0.0,0.0,0.0,0.0,0.0,0.0,0.0,0.0,0.0,0.0,0.0,0.0,0.0,0.0,0.0,0.0,0.0,0.0,0.0,0.0,0.0,0.0,0.0,0.0,0.0,0.0,0.0,0.0,0.0,0.0,0.0,0.0,0.0,0.0,0.0,0.0,0.0,0.0,0.0,0.0,0.0,0.0,0.0,0.0,0.0,0.0,0.0,0.0,0.0,0.0,0.0,0.0,0.0,1.4068,1.5107,1.5666,1.5735,1.4332,1.3055,0.0,0.0,0.0,0.0,0.0,0.0,0.0,0.0,0.0,0.0,0.0,0.0,0.0,0.0,0.0,0.0,0.0,0.0,0.0,0.0,0.0,0.0,0.0,0.0,0.0,0.0,0.0,0.0,0.0,0.0,0.0,0.0,0.0,0.0,0.0,0.0,0.0,0.0,0.0,0.0,0.0,0.0,0.0,0.0,0.0,0.0,0.0,0.0,0.0,0.0,0.0,0.0,0.0,0.0,0.0,0.0,0.0,0.0,0.0,0.0,0.0,0.0,0.0,0.0,0.0,0.0,0.0,0.0,0.0,0.0,0.0,0.0,0.0,0.0,0.0,0.0,0.0,0.0,0.0,0.0,0.0,0.0,0.0,0.0,0.0,0.0,0.0,0.0,0.0,0.0,0.0,0.0,0.0,0.0,0.0,0.0,0.0,0.0,0.0,0.0,0.0,0.0,0.0,0.0,0.0,0.0,0.0,0.0,0.0,1.4078,1.5524,1.6262,1.6262,1.5137,1.3732,0.0,0.0,0.0,0.0,0.0,0.0,0.0,0.0,0.0,0.0,0.0,0.0,0.0,0.0,0.0,0.0,0.0,0.0,0.0,0.0,0.0,0.0,0.0,0.0,0.0,0.0,0.0,0.0,0.0,0.0,0.0,0.0,0.0,0.0,0.0,0.0,0.0,0.0,0.0,0.0,0.0,0.0,0.0,0.0,0.0,0.0,0.0,0.0,0.0,0.0,0.0,0.0,0.0,0.0,0.0,0.0,0.0,0.0,0.0,0.0,0.0,0.0,0.0,0.0,0.0,0.0,0.0,0.0,0.0,0.0,0.0,0.0,0.0,0.0,0.0,0.0,0.0,0.0,0.0,0.0,0.0,0.0,0.0,0.0,0.0,0.0,0.0,0.0,0.0,0.0,0.0,0.0,0.0,0.0,0.0,0.0,0.0,0.0,0.0,0.0,0.0,0.0,0.0,0.0,0.0,0.0,0.0,0.0,1.3336,1.435,1.5741,1.6513,1.65,1.5443,1.4041,0.0,0.0,0.0,0.0,0.0,0.0,0.0,0.0,0.0,0.0,0.0,0.0,0.0,0.0,0.0,0.0,0.0,0.0,0.0,0.0,0.0,0.0,0.0,0.0,0.0,0.0,0.0,0.0,0.0,0.0,0.0,0.0,0.0,0.0,0.0,0.0,0.0,0.0,0.0,0.0,0.0,0.0,0.0,0.0,0.0,0.0,0.0,0.0,0.0,0.0,0.0,0.0,0.0,0.0,0.0,0.0,0.0,0.0,0.0,0.0,0.0,0.0,0.0,0.0,0.0,0.0,0.0,0.0,0.0,0.0,0.0,0.0,0.0,0.0,0.0,0.0,0.0,0.0,0.0,0.0,0.0,0.0,0.0,0.0,0.0,0.0,0.0,0.0,0.0,0.0,0.0,0.0,0.0,0.0,0.0,0.0,0.0,0.0,0.0,0.0,0.0,0.0,0.0,0.0,0.0,0.0,0.0,0.0,1.3693,1.4698,1.5876,1.6513,1.6466,1.5393,1.4073,0.0,0.0,0.0,0.0,0.0,0.0,0.0,0.0,0.0,0.0,0.0,0.0,0.0,0.0,0.0,0.0,0.0,0.0,0.0,0.0,0.0,0.0,0.0,0.0,0.0,0.0,0.0,0.0,0.0,0.0,0.0,0.0,0.0,0.0,0.0,0.0,0.0,0.0,0.0,0.0,0.0,0.0,0.0,0.0,0.0,0.0,0.0,0.0,0.0,0.0,0.0,0.0,0.0,0.0,0.0,0.0,0.0,0.0,0.0,0.0,0.0,0.0,0.0,0.0,0.0,0.0,0.0,0.0,0.0,0.0,0.0,0.0,0.0,0.0,0.0,0.0,0.0,0.0,0.0,0.0,0.0,0.0,0.0,0.0,0.0,0.0,0.0,0.0,0.0,0.0,0.0,0.0,0.0,0.0,0.0,0.0,0.0,0.0,0.0,0.0,0.0,0.0,0.0,0.0,0.0,0.0,0.0,0.0,1.3682,1.4698,1.5876,1.6513,1.6488,1.5402,1.3913,0.0,0.0,0.0,0.0,0.0,0.0,0.0,0.0,0.0,0.0,0.0,0.0,0.0,0.0,0.0,0.0,0.0,0.0,0.0,0.0,0.0,0.0,0.0,0.0,0.0,0.0,0.0,0.0,0.0,0.0,0.0,0.0,0.0,0.0,0.0,0.0,0.0,0.0,0.0,0.0,0.0,0.0,0.0,0.0,0.0,0.0,0.0,0.0,0.9203,0.0,0.0,0.0,0.0,0.0,0.0,0.0,0.0,0.0,0.0,0.0,0.0,0.0,0.0,0.0,0.0,0.0,0.0,0.0,0.0,0.0,0.0,0.0,0.0,0.0,0.0,0.0,0.0,0.0,0.0,0.0,0.0,0.0,0.0,0.0,0.0,0.0,0.0,0.0,0.0,0.0,0.0,0.0,0.0,0.0,0.0,0.0,0.0,0.0,0.0,0.0,0.0,0.0,0.0,0.0,0.0,0.0,0.0,0.0,1.4159,1.471,1.5876,1.6513,1.6466,1.5372,1.3838,0.0,0.0,0.0,0.0,0.0,0.0,0.0,0.0,0.0,0.0,0.0,0.0,0.0,0.0,0.0,0.0,0.0,0.0,0.0,0.0,0.0,0.0,0.0,0.0,0.0,0.0,0.0,0.0,0.0,0.0,0.0,0.0,0.0,0.0,0.0,0.0,0.0,0.0,0.0,0.0,0.0,0.0,0.0,0.0,0.0,0.0,0.0,0.0,0.0,0.0,0.0,0.0,0.0,0.0,0.0,0.0,0.0,0.0,0.0,0.0,0.0,0.0,0.0,0.0,0.0,0.0,0.0,0.0,0.0,0.0,0.0,0.0,0.0,0.0,0.0,0.0,0.0,0.0,0.0,0.0,0.0,0.0,0.0,0.0,0.0,0.0,0.0,0.0,0.0,0.0,0.0,0.0,0.0,0.0,0.0,0.0,0.0,0.0,0.0,0.0,0.0,0.0,0.0,0.0,0.0,0.0,0.0,1.2927,1.4528,1.4721,1.5788,1.6402,1.6479,1.5332,1.3782,1.1865,0.0,0.0,0.0,0.0,0.0,0.0,0.0,0.0,0.0,0.0,0.0,0.0,0.0,0.0,0.0,0.0,0.0,0.0,0.0,0.0,0.0,0.0,0.0,0.0,0.0,0.0,0.0,0.0,0.0,0.0,0.0,0.0,0.0,0.0,0.0,0.0,0.0,0.0,0.4929,0.496,0.0,0.0,0.0,0.0,0.0,0.0,0.0,0.0,0.8199,0.0,0.0,0.0,0.0,0.0,0.0,0.0,0.0,0.0,0.0,0.0,0.0,0.0,0.0,0.0,0.0,0.0,0.0,0.0,0.0,0.0,0.0,0.0,0.0,0.0,0.0,0.0,0.0,0.0,0.0,0.0,0.0,0.0,0.0,0.0,0.0,0.0,0.0,0.0,0.0,0.0,0.0,0.0,0.0,0.0,0.0,0.0,0.0,0.0,0.0,0.0,0.0,0.0,0.0,0.0,0.0,1.0328,1.2338,1.3802,1.4675,1.5387,1.6008,1.6423,1.5332,1.3793,1.1822,0.0,0.0,0.0,0.0,0.0,0.0,0.0,0.0,0.0,0.0,0.0,0.0,0.0,0.0,0.0,0.0,0.0,0.0,0.0,0.0,0.0,0.0,0.0,0.0,0.0,0.0,0.0,0.0,0.0,0.0,0.0,0.0,0.0,0.0,0.0,0.0,0.0,0.0,0.0,0.5278,0.5876,0.0,0.0,0.0,0.0,0.0,0.0,0.0,0.0,0.5948,0.0,0.0,0.0,0.0,0.0,0.0,0.0,0.0,0.0,0.0,0.0,0.0,0.0,0.0,0.0,0.0,0.0,0.0,0.0,0.0,0.0,0.0,0.0,0.0,0.0,0.0,0.0,0.0,0.0,0.0,0.0,0.0,0.0,0.0,0.0,0.0,0.0,0.0,0.0,0.0,0.0,0.0,0.0,0.0,0.0,0.0,0.0,0.0,0.0,0.0,0.0,0.0,0.0,0.0,0.0,1.0214,1.1991,1.3364,1.4202,1.4835,1.5265,1.5533,1.4192,1.2787,0.0,0.0,0.0,0.0,0.0,0.0,0.0,0.0,0.0,0.0,0.0,0.0,0.0,0.0,0.0,0.0,0.0,0.0,0.0,0.0,0.0,0.0,0.0,0.0,0.0,0.0,0.0,0.0,0.0,0.0,0.0,0.0,0.0,0.0,0.0,0.0,0.0,0.0,0.0,0.0,0.5739,0.6213,0.5782,0.0,0.0,0.0,0.0,0.0,0.0,0.3652,0.367,0.0,0.0,0.0,0.0,0.0,0.0,0.0,0.0,0.0,0.0,0.0,0.0,0.0,0.0,0.0,0.0,0.0,0.0,0.0,0.0,0.0,0.0,0.0,0.0,0.0,0.0,0.0,0.0,0.0,0.0,0.0,0.0,0.0,0.0,0.0,0.0,0.0,0.0,0.0,0.0,0.0,0.0,0.0,0.0,0.0,0.0,0.0,0.0,0.0,0.0,0.0,0.0,0.0,0.0,0.0,0.9557,1.1333,1.2709,1.3582,1.4063,1.4365,1.448,1.3129,1.1866,0.0,0.0,0.0,0.0,0.0,0.0,0.0,0.0,0.0,0.0,0.0,0.0,0.0,0.0,0.0,0.0,0.0,0.0,0.0,0.0,0.0,0.0,0.0,0.0,0.0,0.0,0.0,0.0,0.0,0.0,0.0,0.0,0.0,0.0,0.0,0.0,0.0,0.0,0.0,0.0,0.0,0.7068,0.6156,0.6566,0.0,0.0,0.0,0.0,0.2261,0.2194,0.0,0.0,0.0,0.0,0.0,0.0,0.0,0.0,0.0,0.0,0.0,0.0,0.0,0.0,0.0,0.0,0.0,0.0,0.0,0.0,0.0,0.0,0.0,0.0,0.0,0.0,0.0,0.0,0.0,0.0,0.0,0.0,0.0,0.0,0.0,0.0,0.0,0.0,0.0,0.0,0.0,0.0,0.0,0.0,0.0,0.0,0.0,0.0,0.0,0.0,0.0,0.0,0.0,0.0,0.0,0.0,0.8325,0.9731,1.1276,1.2816,1.299,1.3257,1.3776,1.3121,1.1874,0.0,0.0,0.0,0.0,0.0,0.0,0.0,0.0,0.0,0.0,0.0,0.0,0.0,0.0,0.0,0.0,0.0,0.0,0.0,0.0,0.0,0.0,0.0,0.0,0.0,0.0,0.0,0.0,0.0,0.0,0.0,0.0,0.0,0.0,0.0,0.0,0.0,0.0,0.0,0.0,0.0,0.915,0.8554,0.7918,0.6845,0.0,0.0,0.3054,0.2957,0.2024,0.0,0.0,0.0,0.0,0.0,0.0,0.0,0.0,0.0,0.0,0.0,0.0,0.0,0.0,0.0,0.0,0.0,0.0,0.0,0.0,0.0,0.0,0.0,0.0,0.0,0.0,0.0,0.0,0.0,0.0,0.0,0.0,0.0,0.0,0.0,0.0,0.0,0.0,0.0,0.0,0.0,0.0,0.0,0.0,0.0,0.0,0.0,0.0,0.0,0.0,0.0,0.0,0.0,0.0,0.0,0.6766,0.8081,0.8905,1.0106,1.1614,1.1672,1.1596,1.1435,1.0592,0.9517,0.0,0.0,0.0,0.0,0.0,0.0,0.0,0.0,0.0,0.0,0.0,0.0,0.0,0.0,0.0,0.0,0.0,0.0,0.0,0.0,0.0,0.0,0.0,0.0,0.0,0.0,0.0,0.0,0.0,0.0,0.0,0.0,0.0,0.0,0.0,0.0,0.0,0.0,0.0,0.0,0.0,0.0,0.8524,0.821,0.0,0.0,0.0,0.4626,0.443,0.0,0.0,0.0,0.0,0.0,0.0,0.0,0.0,0.0,0.0,0.0,0.0,0.0,0.0,0.0,0.0,0.0,0.0,0.0,0.0,0.0,0.0,0.0,0.0,0.0,0.0,0.0,0.0,0.0,0.0,0.0,0.0,0.0,0.0,0.0,0.0,0.0,0.0,0.0,0.0,0.0,0.0,0.0,0.0,0.0,0.0,0.0,0.0,0.0,0.0,0.0,0.0,0.0,0.0,0.0,0.0,0.0,0.7086,0.765,0.8574,0.9941,0.9992,0.9728,0.9177,0.8364,0.0,0.0,0.0,0.0,0.0,0.0,0.0,0.0,0.0,0.0,0.0,0.0,0.0,0.0,0.0,0.0,0.0,0.0,0.0,0.0,0.0,0.0,0.0,0.0,0.0,0.0,0.0,0.2959,0.0,0.0,0.0,0.0,0.0,0.0,0.0,0.0,0.0,0.0,0.0,0.0,0.0,0.0,0.8996,0.857,0.8464,0.7766,0.0,0.0,0.6309,0.5986,0.455,0.3044,0.0,0.0,0.0,0.0,0.0,0.0,0.0,0.0,0.0,0.0,0.0,0.0,0.0,0.0,0.0,0.0,0.0,0.0,0.0,0.0,0.0,0.0,0.0,0.0,0.0,0.0,0.0,0.0,0.0,0.0,0.0,0.0,0.0,0.0,0.0,0.0,0.0,0.0,0.0,0.0,0.0,0.0,0.0,0.0,0.0,0.0,0.0,0.0,0.0,0.0,0.0,0.0,0.0,0.0,0.0,0.4439,0.5292,0.6411,0.7764,0.7811,0.7785,0.7726,0.7536,0.6721,0.0,0.0,0.0,0.0,0.0,0.0,0.0,0.0,0.0,0.0,0.0,0.0,0.0,0.0,0.0,0.0,0.0,0.0,0.0,0.0,0.0,0.0,0.0,0.0,0.0,0.0,0.0,0.0,0.0,0.0,0.0,0.0,0.0,0.0,0.0,0.0,0.0,0.0,0.0,0.0,0.0,0.8964,0.9592,0.8999,0.8037,0.0,0.0,0.7336,0.7429,0.5645,0.388,0.2854,0.0,0.0,0.0,0.0,0.0,0.0,0.0,0.0,0.0,0.0,0.0,0.0,0.0,0.0,0.0,0.0,0.0,0.0,0.0,0.0,0.0,0.0,0.0,0.0,0.0,0.0,0.0,0.0,0.0,0.0,0.0,0.0,0.0,0.0,0.0,0.0,0.0,0.0,0.0,0.0,0.0,0.0,0.0,0.0,0.0,0.0,0.0,0.0,0.0,0.0,0.0,0.0,0.0,0.1641,0.2953,0.3726,0.462,0.5586,0.5613,0.5425,0.4946,0.4838,0.4228,0.0,0.0,0.0,0.0,0.0,0.0,0.0,0.0,0.0,0.0,0.0,0.0,0.0,0.0,0.0,0.0,0.0,0.0,0.0,0.0,0.0,0.0,0.0,0.0,0.0,0.0,0.0,0.0,0.4101,0.4205,0.4019,0.0,0.0,0.0,0.0,0.0,0.0,0.0,0.0,0.0,0.0,0.8456,0.9625,0.911,0.0,0.0,0.8109,0.8229,0.8274,0.6727,0.4833,0.2817,-0.0542,0.0,0.0,0.0,0.0,0.0,0.0,0.0,0.0,0.0,0.0,0.0,0.0,0.0,0.0,0.0,0.0,0.0,0.0,0.0,0.0,0.0,0.0,0.0,0.0,0.0,0.0,0.0,0.0,0.0,0.0,0.0,0.0,0.0,0.0,0.0,0.0,0.0,0.0,0.0,0.0,0.0,0.0,0.0,0.0,0.0,0.0,0.0,0.0,0.0,0.0,0.0,0.0,0.0528,0.1869,0.2173,0.2677,0.3408,0.3185,0.2831,0.2342,0.241,0.2066,0.0,0.0,0.0,0.0,0.0,0.0,0.0,0.0,0.0,0.0,0.0,0.0,0.0,0.0,0.0,0.0,0.0,0.0,0.0,0.0,0.0,0.0,0.0,0.0,0.0,0.0,0.0,0.0,0.3913,0.3764,0.3167,0.0,0.0,0.0,0.0,0.0,0.0,0.0,0.0,0.0,0.0,0.7835,0.9261,0.9052,0.876,0.8784,0.8752,0.8625,0.8421,0.6676,0.4598,0.2327,0.0,0.0,0.0,0.0,0.0,0.0,0.0,0.0,0.0,0.0,0.0,0.0,0.0,0.0,0.0,0.0,0.0,0.0,0.0,0.0,0.0,0.0,0.0,0.0,0.0,0.0,0.0,0.0,0.0,0.0,0.6109,0.0,0.0,0.0,0.0,0.0,0.0,0.0,0.0,0.0,0.0,0.0,0.0,0.0,0.0,0.0,0.0,0.0,0.0,0.0,0.0,0.0,0.0,-0.0154,0.1112,0.0519,0.0472,0.1137,0.047,0.0138,0.0083,0.0617,0.0639,0.0071,0.0,0.0,0.0,0.0,0.0,0.0,0.0,0.0,0.0,0.0,0.0,0.0,0.0,0.0,0.0,0.0,0.0,0.0,0.0,0.0,0.0,0.0,0.0,0.0,0.0,0.0,0.2882,0.3265,0.3147,0.0,0.0,0.0,0.0,0.0,0.0,0.0,0.0,0.0,0.0,0.6163,0.7155,0.8613,0.8798,0.8765,0.8752,0.8684,0.8425,0.7688,0.5178,0.2806,0.0,0.0,0.0,0.0,0.0,0.0,0.0,0.0,0.0,0.0,0.0,0.0,0.0,0.0,0.0,0.0,0.0,0.0,0.0,0.0,0.0,0.0,0.0,0.0,0.0,0.0,0.0,0.4285,0.4884,0.0,0.0,0.0,0.0,0.0,0.0,0.0,0.0,0.0,0.0,0.0,-1.5741,-1.6924,0.0,0.0,0.0,0.0,0.0,0.0,0.0,0.0,0.0,0.0,0.0,0.0,0.1272,0.1212,0.0903,0.0362,-0.0334,-0.0612,-0.0973,-0.1444,-0.1265,-0.0838,-0.0143,0.0,0.0,0.0,0.0,0.0,0.0,0.0,0.0,0.0,0.0,0.0,0.0,0.0,0.0,0.0,0.0,0.0,0.0,0.0,0.0,0.0,0.0,0.0,0.0,0.0,0.158,0.0,0.0,0.0,0.0,0.0,0.0,0.0,0.0,0.0,0.0,0.0,0.4115,0.5345,0.6567,0.7509,0.7996,0.8072,0.7894,0.0,0.0,0.0,0.0,0.0,0.0,0.0,0.0,0.0,0.0,0.0,0.0,0.0,0.0,-0.6415,-0.6724,-0.7193,-0.7157,-0.5847,0.0,0.0,0.0,0.0,0.0,0.0,0.0,0.0,0.0,0.0,0.0,0.0,0.0,0.0,0.4026,0.0,0.3815,0.0,0.0,0.0,0.0,0.0,0.0,0.0,0.0,-1.1048,-1.2582,-1.4418,-1.5348,-1.5243,0.0,-1.0897,-0.8453,0.0,0.0,0.0,0.0,0.0,0.0,0.0,0.0,0.2348,0.163,0.1017,0.0139,-0.1062,-0.1591,-0.2091,-0.2563,-0.2316,-0.167,-0.0544,0.0893,0.1768,0.0,0.0,0.0,0.0,0.0,0.0,0.0,0.0,0.0,0.0,0.0,0.0,0.0,0.0,0.0,0.0,0.0,0.0,0.0,0.0,0.0,0.0,0.0,0.1127,0.0,0.0,0.0,0.0,0.0,0.0,0.0,0.0,0.0,0.1343,0.3136,0.4904,0.6274,0.6944,0.7451,0.7819,0.0,0.0,0.0,0.0,0.0,0.0,0.0,0.18,0.0583,-0.0637,-0.1602,-0.207,-0.2918,-0.3385,-0.2943,0.0,0.0,-0.5539,-0.6107,-0.5932,-0.4541,-0.4448,-0.402,-0.2151,-0.1026,0.0133,0.0,0.0,0.0,0.0,0.0,0.0,0.0,0.0,0.3411,0.3558,0.0,0.2183,0.0,0.0,0.0,0.0,0.0,-0.7277,0.0,0.0,-1.017,-1.0486,-1.0741,-1.1118,-1.1096,-1.047,-0.7894,-0.6122,-0.5046,-0.213,0.0,0.0,0.0,0.0,0.0,0.0,0.3026,0.2318,0.0943,-0.0223,-0.1006,-0.2369,-0.3146,-0.3201,-0.2562,-0.188,-0.111,0.0666,0.168,0.1633,0.2143,0.0,0.0,0.0,0.0,0.0,0.0,0.0,0.0,0.0,0.0,0.0,0.0,0.0,0.0,0.0,0.0,0.0,0.0,0.0,0.0,0.0874,0.0,0.0,0.0,0.0,0.0,0.0,0.0,0.0,0.0,0.0,0.3542,0.4117,0.5396,0.784,0.0,0.0,0.0,0.0,0.6564,0.6519,0.5922,0.5211,0.4515,0.3226,0.2047,0.1302,0.0,0.0,0.0055,0.0055,0.0,0.0055,-0.0028,-0.0833,-0.3602,-0.412,-0.377,-0.2407,-0.2107,-0.1593,-0.0275,0.0688,0.1686,0.0848,0.0,0.0,0.0,0.0,0.4216,0.4494,0.4397,0.3798,0.3521,0.3349,0.1681,0.0,0.0,0.0,0.0,0.0,0.0,-0.6441,-0.6731,-0.5588,-0.5266,-0.5641,-0.5655,-0.5977,-0.6458,-0.5384,-0.4533,-0.378,-0.0867,0.1325,0.2813,0.0,0.0,0.0,0.0,0.53,0.4528,0.3154,0.1782,0.0475,0.0056,-0.0915,-0.2467,-0.2314,-0.217,-0.2086,-0.0506,0.075,0.1578,0.1767,0.0,0.0,0.0,0.0,0.0,0.0,0.0,0.0,0.0,0.0,0.0,0.0,0.0,0.0,0.0,0.0,0.0,0.0,0.0,0.1003,0.0506,0.0258,0.0,0.0,0.0,0.0,0.0,0.0,0.0,0.0,0.0,0.5139,0.5692,0.6517,0.0,0.0,0.7449,0.7295,0.6553,0.583,0.5314,0.4938,0.0,0.0,0.4051,0.3523,0.2792,0.205,0.1584,0.1556,0.1558,0.1558,0.1584,0.1558,0.1296,0.0672,-0.0483,-0.0855,-0.0083,0.0166,0.0442,0.1387,0.2548,0.3743,0.1733,0.2006,0.2827,0.3658,0.4457,0.4905,0.4869,0.4405,0.3592,0.2938,0.231,0.0719,-0.0474,-0.1298,-0.2515,0.0,0.0,0.0,-0.4131,-0.3697,-0.1592,-0.0262,0.0366,0.0217,-0.0568,-0.1886,-0.1953,-0.2328,-0.2989,-0.0608,0.1347,0.291,0.0,0.0,0.7438,0.6675,0.5921,0.5163,0.3993,0.2788,0.1563,0.0974,-0.0388,-0.2522,-0.2638,-0.2826,-0.3196,-0.156,-0.0151,0.0834,0.1453,0.2009,0.0,0.0,0.0,0.0,0.0,0.0,0.0,0.0,0.0,0.0,0.0,0.1771,0.1924,0.0,0.0,0.0,0.2171,0.1973,0.1379,0.0529,0.0,0.0,0.0,0.0,0.0,0.0,0.0,0.3924,0.4121,0.4626,0.598,0.6253,0.6758,0.7788,0.7473,0.7036,0.6743,0.0,0.5256,0.4754,0.4591,0.4504,0.4457,0.4661,0.4689,0.4228,0.3822,0.342,0.3148,0.3093,0.3206,0.343,0.3503,0.3572,0.3781,0.2982,0.2168,0.2121,0.2265,0.2658,0.336,0.446,0.5496,0.2186,0.2975,0.3949,0.4773,0.5429,0.5419,0.4799,0.3776,0.3027,0.2158,0.1128,-0.0376,-0.1008,-0.1099,-0.2501,0.0,-0.4178,-0.255,-0.1383,-0.0651,0.198,0.4452,0.6632,0.6057,0.4704,0.2669,0.1734,-0.0091,-0.2475,-0.105,0.0493,0.2059,0.4519,0.6134,0.6809,0.6043,0.5283,0.4685,0.3857,0.3019,0.2287,0.0834,-0.0972,-0.3143,-0.3429,-0.3911,-0.4627,-0.2852,-0.136,-0.0443,0.097,0.2026,0.261,0.0,0.0,0.0,0.0,0.0,0.0,0.0,0.0,0.0,0.0,0.0,0.0,0.0,0.0,0.0,0.2257,0.0,0.1905,0.076,0.0,0.0,0.0,0.0677,0.2335,0.251,0.3105,0.4738,0.0,0.0,0.6207,0.6107,0.631,0.7192,0.6586,0.6106,0.6327,0.5562,0.4857,0.4759,0.4773,0.4751,0.4713,0.5097,0.5397,0.537,0.5483,0.516,0.4649,0.4539,0.4825,0.5234,0.5434,0.543,0.5653,0.5458,0.5306,0.3896,0.4048,0.4615,0.5302,0.6009,0.673,0.2879,0.3216,0.5044,0.5762,0.5691,0.5583,0.4993,0.4029,0.3109,0.2551,0.2221,0.0493,-0.0199,-0.017,-0.1149,-0.0956,0.0279,0.1225,0.2456,0.393,0.6406,0.8564,1.0245,0.9359,0.7305,0.4412,0.2078,-0.0601,-0.3472,-0.1897,-0.0523,0.0588,0.2517,0.4019,0.4977,0.4285,0.4148,0.4713,0.3776,0.323,0.3012,0.1583,-0.0221,-0.2422,-0.4529,-0.6281,-0.7527,-0.653,-0.4844,-0.2459,-0.1066,0.0464,0.2215,0.1977,0.0,0.0,0.0,0.0,0.0,0.0,0.0,0.0,0.0,0.2007,0.2724,0.0,0.2875,0.0,0.2593,0.1745,0.1208,0.0477,0.0,0.0,0.0,0.0663,0.2285,0.2488,0.3145,0.4841,0.5038,0.5194,0.5582,0.56,0.5654,0.5883,0.6058,0.6177,0.6214,0.5574,0.5044,0.5014,0.5257,0.5518,0.5478,0.5489,0.5483,0.5483,0.5483,0.5433,0.5273,0.5269,0.5312,0.5467,0.5165,0.4987,0.5102,0.5118,0.5059,0.48,0.4779,0.5036,0.5851,0.6458,0.714,0.3104,0.3335,0.5899,0.6612,0.5996,0.5847,0.5205,0.4288,0.3737,0.3261,0.2814,0.1803,0.1431,0.1449,0.099,0.1355,0.2453,0.3714,0.5096,0.6705,0.9241,1.1051,1.2055,1.0786,0.8148,0.4313,0.172,-0.1041,-0.3808,-0.2969,-0.2067,-0.1202,-0.02,0.0623,0.1263,0.2381,0.3193,0.3699,0.2787,0.2171,0.182,0.039,-0.1401,-0.3585,-0.602,-0.8241,-1.0074,-0.9502,-0.7449,-0.3855,-0.2165,0.0052,0.2975,0.2725,0.1985,0.0,0.0,0.0,0.0,0.0,0.0,0.0,0.0,0.0,0.0,0.0,0.3112,0.3453,0.2264,0.136,0.1025,0.0393,0.0,0.0,0.0,0.0535,0.1852,0.1967,0.2667,0.4402,0.4611,0.484,0.5315,0.5395,0.5395,0.5395,0.5676,0.5836,0.5836,0.5485,0.5208,0.5143,0.5263,0.549,0.5628,0.5571,0.5483,0.5483,0.5483,0.5406,0.5109,0.5058,0.5152,0.5412,0.5337,0.524,0.5377,0.5413,0.5379,0.5247,0.5114,0.5424,0.6443,0.7164,0.7868,0.3278,0.3742,0.6612,0.7288,0.6483,0.6304,0.5593,0.4512,0.4535,0.4061,0.3266,0.3268,0.3346,0.3467,0.3356,0.3435,0.3807,0.5685,0.7329,0.8825,1.1064,1.2273,1.248,1.0602,0.742,0.3097,0.0747,-0.1689,-0.4115,-0.4082,-0.3613,-0.2878,-0.2744,-0.2678,-0.2541,0.0424,0.2096,0.2282,0.152,0.0705,-0.0117,-0.1604,-0.3383,-0.5497,-0.7648,-0.9901,-1.224,-1.2037,-0.9885,-0.5676,-0.3337,-0.0396,0.3438,0.3352,0.2551,0.0,0.0418,0.0,0.0,0.0,0.0,0.0,0.0,0.0,0.0,0.2949,0.2936,0.2859,0.1666,0.0939,0.0964,0.0386,0.0,0.0,0.0,0.0357,0.1166,0.1322,0.1942,0.3613,0.382,0.4156,0.4855,0.5123,0.5226,0.516,0.515,0.5176,0.5219,0.5315,0.5341,0.514,0.5009,0.5123,0.5328,0.5393,0.5377,0.5404,0.5483,0.5325,0.4791,0.468,0.4849,0.5381,0.5555,0.5649,0.5837,0.5851,0.5713,0.5387,0.5182,0.5525,0.6798,0.7665,0.8551,0.4089,0.5745,0.7195,0.7706,0.7514,0.7477,0.641,0.4667,0.4569,0.4421,0.4239,0.4239,0.4692,0.5384,0.4712,0.5323,0.6972,0.8704,1.0425,1.2095,1.2204,1.1885,1.1083,0.7785,0.4214,0.0545,-0.1311,-0.3193,-0.5093,-0.4386,-0.3915,-0.3713,-0.3045,-0.2678,-0.2609,0.0,0.0,0.0,0.117,0.0459,-0.0872,-0.2439,-0.4253,-0.6345,-0.892,0.0,-1.3596,-1.4425,-1.3433,-1.0518,-0.7065,0.0,0.0,0.0,0.0,0.0,0.0,0.0,0.0,0.0,0.0,0.0,0.1457,0.237,0.2823,0.2585,0.2129,0.155,0.1221,0.0841,0.0265,0.0093,0.0,0.0,0.0,0.0334,0.1165,0.1303,0.1742,0.2778,0.2945,0.3013,0.328,0.3816,0.4251,0.4281,0.4251,0.4284,0.4251,0.4888,0.5352,0.5344,0.5143,0.503,0.5007,0.5024,0.5023,0.4944,0.538,0.5571,0.5305,0.525,0.5277,0.5485,0.5262,0.5095,0.5132,0.5175,0.5283,0.5197,0.5029,0.533,0.6549,0.7276,0.8015,0.4789,0.0,0.7876,0.8237,0.0,0.8351,0.7677,0.6191,0.5635,0.5678,0.6114,0.6118,0.6424,0.6855,0.6428,0.6813,0.7893,0.9702,1.0912,1.1512,1.0784,0.9326,0.725,0.3841,0.0666,-0.2294,-0.3651,-0.4685,-0.5336,-0.4993,-0.4751,-0.4688,-0.4251,-0.3816,-0.3311,-0.1975,-0.0666,0.056,-0.0258,-0.104,-0.1831,-0.3658,-0.5106,-0.6147,0.0,0.0,0.0,0.0,0.0,0.0,0.0,0.0,0.0,0.0,0.0,0.1116,0.0399,0.0,0.0,0.029,0.0321,0.0027,0.0299,0.105,0.2438,0.1609,0.0856,0.0486,-0.0265,-0.0936,-0.1289,-0.1327,-0.1164,-0.0722,-0.0633,-0.0302,0.0504,0.0672,0.1041,0.1809,0.2008,0.2143,0.2644,0.3045,0.3345,0.3378,0.3747,0.3813,0.3513,0.4148,0.4803,0.5169,0.5163,0.5034,0.4938,0.4918,0.484,0.479,0.5002,0.5161,0.5033,0.5075,0.5101,0.5095,0.5024,0.4992,0.4988,0.5002,0.5036,0.5176,0.5009,0.5036,0.5799,0.6474,0.7377,0.5681,0.69,0.8789,0.9107,0.8385,0.9216,0.8988,0.8012,0.0,0.0,0.0,0.805,0.8046,0.8046,0.8046,0.8271,0.868,1.0099,1.0667,1.0384,0.8964,0.6549,0.325,0.0593,-0.1947,-0.4343,-0.5089,-0.5319,-0.5175,-0.5251,-0.5337,-0.5372,-0.5263,-0.4619,-0.3513,-0.2041,-0.0873,-0.0101,-0.151,-0.2325,-0.2501,-0.4227,-0.5104,-0.5019,-0.5234,-0.6001,-0.7384,-0.8572,-0.823,-0.6213,-0.6508,-0.4826,-0.0614,-0.0113,0.0194,0.0641,0.014,0.0,-0.0364,-0.0392,-0.0392,-0.0421,-0.0975,-0.0472,0.1474,0.0258,-0.0672,-0.0817,-0.2117,-0.2966,-0.3126,-0.2991,-0.2639,-0.1868,-0.164,-0.1208,-0.037,-0.0236,0.0101,0.0906,0.1074,0.1341,0.2043,0.231,0.2444,0.2544,0.2978,0.3413,0.2945,0.3516,0.4257,0.4738,0.4817,0.4771,0.4565,0.4634,0.4626,0.4249,0.4493,0.4655,0.4453,0.4537,0.4684,0.4781,0.4846,0.4832,0.4826,0.4568,0.4572,0.4846,0.4584,0.4322,0.4603,0.5276,0.6387,0.7095,0.8988,1.011,1.0527,1.0409,1.0522,1.004,0.9107,0.8955,0.896,0.9074,0.9069,0.9069,0.9107,0.9107,0.9991,1.1526,1.099,1.1108,1.1637,0.8887,0.5545,0.1913,0.0504,-0.1546,-0.4037,-0.3545,-0.3534,-0.4141,-0.4216,-0.4611,-0.5213,-0.4589,-0.3347,-0.1774,-0.1407,-0.0873,-0.0034,-0.097,-0.171,-0.2238,-0.2554,-0.2611,-0.2358,-0.1835,-0.178,-0.2061,-0.1752,-0.232,-0.3844,-0.4975,-0.4385,-0.2044,-0.3334,-0.333,-0.1028,-0.0892,-0.1228,-0.1842,-0.1898,-0.1977,-0.2113,-0.2096,-0.1642,-0.0777,-0.1577,-0.2483,-0.3201,-0.3648,-0.4113,-0.4785,-0.4285,-0.3835,-0.3557,-0.2937,-0.2143,-0.124,-0.1073,-0.0739,0.0067,0.0168,0.0,0.0,0.1074,0.1507,0.1507,0.1708,0.1942,0.2678,0.3451,0.3984,0.413,0.4176,0.3841,0.3394,0.3666,0.3709,0.2933,0.3969,0.4445,0.3795,0.4139,0.4533,0.4781,0.4322,0.4022,0.3988,0.3348,0.3109,0.3142,0.2958,0.2745,0.2872,0.3572,0.47,0.8783,1.1085,1.1658,1.2037,1.2278,1.1753,1.0995,1.0265,1.1267,1.1075,1.0153,1.0121,1.0115,1.0153,1.0659,1.1063,1.1434,1.1483,1.0843,0.9522,0.6503,0.3533,0.0749,-0.0935,-0.2305,-0.342,-0.3129,-0.3316,-0.4042,-0.4229,-0.4736,-0.5464,-0.4138,-0.2717,-0.1375,-0.0839,-0.0168,0.0672,-0.0167,-0.0497,-0.0292,0.019,0.0956,0.1989,0.3475,0.4508,0.4847,0.5053,0.453,0.317,0.0784,-0.0359,-0.0128,-0.1924,-0.2617,-0.1752,-0.17,-0.2034,-0.2775,-0.3276,-0.3475,-0.3237,-0.3502,-0.3528,-0.3197,-0.3187,-0.3595,-0.4521,-0.5091,-0.5824,-0.6644,-0.6412,-0.5807,-0.4791,-0.4328,-0.3538,-0.2275,-0.1573,-0.1141,-0.0739,-0.0269,0.0,0.0,0.037,0.0605,0.0605,0.0,0.0,0.241,0.2577,0.2909,0.3716,0.3627,0.3194,0.2781,0.3011,0.3043,0.2552,0.3084,0.3348,0.2938,0.3273,0.3513,0.3576,0.3346,0.3233,0.317,0.2847,0.2591,0.2579,0.2384,0.2266,0.2427,0.3076,0.4291,1.0679,1.2842,1.3338,1.3821,1.4149,1.3368,1.259,1.2116,1.3433,1.3208,1.192,1.181,1.1803,1.1883,1.2561,1.2341,1.1575,1.171,1.0219,0.7269,0.4665,0.2236,0.0116,-0.1233,-0.1755,-0.1879,-0.1989,-0.2576,-0.3491,-0.3952,-0.4483,-0.4893,-0.3416,-0.2031,-0.1008,-0.0336,0.0337,0.0939,0.0735,0.1032,0.1918,0.2965,0.4374,0.61,0.8513,1.0292,1.1245,1.1665,1.1426,1.025,0.6468,0.3622,0.2119,-0.067,-0.2512,-0.3004,-0.2908,-0.3238,-0.4157,-0.4916,-0.5074,-0.4446,-0.4897,-0.5155,-0.4975,-0.4454,-0.4497,-0.5448,-0.6394,-0.733,-0.8076,-0.8253,-0.766,-0.6142,-0.5723,-0.4863,-0.3276,-0.2342,-0.1707,-0.1374,-0.0706,0.0,0.0,0.0,0.0,0.0,0.0,0.0,0.1944,0.1572,0.1706,0.2441,0.2517,0.1949,0.1874,0.1737,0.1656,0.1656,0.1964,0.2106,0.2114,0.2267,0.2537,0.2628,0.2256,0.2029,0.2038,0.1515,0.1212,0.1058,0.0832,0.106,0.1635,0.2436,0.387,1.2975,1.3521,1.5272,1.6078,1.6121,1.5647,1.534,1.5227,1.516,1.4977,1.47,1.4799,1.4728,1.4799,1.4827,1.4224,1.3093,1.1592,0.9212,0.6401,0.5079,0.2958,0.0467,0.1673,0.2058,0.1238,0.109,0.0038,-0.1645,-0.2633,-0.313,-0.3026,-0.2026,-0.1037,-0.0203,-0.0034,0.0067,0.0168,0.1675,0.2871,0.3784,0.5315,0.699,0.8705,1.1489,1.3901,1.5646,1.7974,1.7915,1.525,0.9713,0.5621,0.3162,-0.2292,-0.5717,-0.5737,-0.5082,-0.5353,-0.6876,-0.7195,-0.688,-0.6258,-0.6061,-0.5864,-0.5433,-0.5122,-0.5329,-0.6133,-0.7196,-0.8081,-0.9037,-0.9075,-0.8581,-0.753,-0.6878,-0.5862,-0.4245,-0.3813,-0.3145,-0.1474,-0.1208,-0.0906,0.0,0.0,0.0,0.0,0.0,0.0303,0.1141,0.0806,0.0201,0.0435,0.0301,-0.0067,-0.0569,-0.0901,-0.0699,-0.0697,0.0293,0.0873,0.1109,0.1657,0.2455,0.1448,0.1128,0.03,-0.01,-0.0966,-0.1931,-0.1429,-0.1498,-0.1617,-0.0313,0.0932,0.2443,1.4618,1.6362,1.781,1.8304,1.8027,1.7366,1.6693,1.6213,1.6612,1.6648,1.6482,1.6963,1.6475,1.5234,1.5199,1.4339,1.2715,1.1347,0.9045,0.6246,0.5137,0.4018,0.3,0.3589,0.3822,0.3391,0.2812,0.1436,-0.0499,-0.2191,-0.2725,-0.2166,-0.1683,-0.1006,-0.0069,0.0517,0.1059,0.1611,0.2846,0.4174,0.561,0.7237,0.9144,1.1345,1.3429,1.552,1.7571,1.9037,1.8981,1.7192,1.1964,0.7526,0.4481,-0.1493,-0.5302,-0.6139,-0.6787,-0.7239,-0.7598,-0.8003,-0.7983,-0.7396,-0.6822,-0.641,-0.615,-0.5625,-0.5228,-0.5192,-0.6347,-0.76,-0.8355,-0.8549,-0.8194,-0.7372,-0.6883,-0.6162,-0.5017,-0.4284,-0.348,-0.2309,-0.1641,-0.0974,0.0,0.0,0.0,0.0,0.0,0.0,0.0,0.0202,-0.0202,-0.0703,-0.1201,-0.1701,-0.2072,-0.2139,-0.2139,-0.2035,-0.1622,-0.1124,-0.0929,-0.0863,-0.0595,-0.0402,-0.1003,-0.1502,-0.1598,-0.2003,-0.2678,-0.2802,-0.2701,-0.2291,-0.1101,-0.0099,0.1199,1.6587,1.8865,1.9962,2.0093,1.9519,1.8471,1.743,1.6589,1.7128,1.7345,1.7433,1.8075,1.7629,1.6394,1.5831,1.4359,1.2234,1.1126,0.8915,0.6018,0.5303,0.5002,0.4763,0.504,0.496,0.4569,0.3591,0.1873,-0.0351,-0.1874,-0.2317,-0.1667,-0.1323,-0.0775,0.0,0.0874,0.1618,0.2315,0.3411,0.4773,0.6216,0.7524,0.9453,1.2135,1.3809,1.5443,1.7152,1.7614,1.7287,1.6213,1.1451,0.7138,0.3553,-0.1481,-0.5098,-0.6841,-0.8327,-0.8962,-0.8516,-0.8993,-0.9019,-0.8388,-0.773,-0.7209,-0.6719,-0.6108,-0.5213,-0.4278,-0.5203,-0.622,-0.6767,-0.7117,-0.6889,-0.6081,-0.5949,-0.5592,-0.4683,-0.4015,-0.3278,-0.2409,-0.1641,-0.0974,0.0,0.0,0.0,0.0,0.0,0.0,0.0,0.0,-0.0303,-0.1173,-0.2068,-0.2732,-0.3008,-0.3378,-0.3345,-0.3078,-0.2935,-0.28,-0.2811,-0.2676,-0.2644,-0.1674,-0.2579,-0.3236,-0.3443,-0.355,-0.3806,-0.3739,-0.3602,-0.3201,-0.2391,-0.1369,-0.0502,1.9367,2.0439,2.1445,2.1222,2.0217,1.8808,1.7622,1.6433,1.6294,1.6661,1.745,1.7674,1.8221,1.8648,1.6971,1.4904,1.229,1.1113,0.8656,0.5339,0.5786,0.567,0.4802,0.5709,0.5667,0.4686,0.3591,0.1562,-0.1254,-0.1567,-0.1664,-0.1515,-0.0644,0.0,0.0,0.0915,0.1346,0.1725,0.3259,0.445,0.5262,0.5493,0.7191,1.0172,1.2011,1.3067,1.3744,1.3791,1.2949,1.1266,0.7133,0.33,-0.003,-0.3317,-0.6314,-0.8588,-0.9837,-1.0438,-1.035,-1.0382,-1.0085,-0.9396,-0.9069,-0.8452,-0.7013,-0.6621,-0.5763,-0.4179,-0.4115,-0.427,-0.432,-0.4996,-0.5094,-0.4353,-0.4188,-0.3799,-0.3011,-0.3011,-0.2344,-0.1641,-0.1307,-0.0839,0.0,0.0,0.0,0.0,0.0,0.0,0.0,0.0,0.0,-0.1173,-0.2036,-0.2963,-0.3775,-0.435,-0.4519,-0.4284,-0.3915,-0.3747,-0.3111,-0.2678,-0.278,-0.3013,-0.3713,-0.4428,-0.5111,-0.5669,-0.6073,-0.599,-0.5358,-0.4761,-0.3706,-0.3076,-0.2075,2.1245,2.3213,2.2355,2.1346,2.011,1.8367,1.6589,1.5009,1.5493,1.5818,1.6084,1.6721,1.702,1.6841,1.5625,1.4506,1.3307,1.0956,0.8666,0.6738,0.6447,0.6103,0.5828,0.6141,0.5747,0.4686,0.3593,0.1837,-0.0314,-0.0589,-0.0586,-0.0543,-0.0194,0.0,0.0,0.1544,0.2319,0.2507,0.4097,0.4913,0.4589,0.4517,0.5117,0.629,0.7922,0.9087,0.9708,0.9252,0.7859,0.5483,0.2367,-0.0587,-0.3409,-0.6227,-0.8421,-0.985,-1.04,-1.0586,-1.0586,-1.0586,-1.0498,-1.0142,-0.9594,-0.8812,-0.7735,-0.6981,-0.5961,-0.4375,-0.3447,-0.3008,-0.2571,-0.3098,-0.3529,-0.327,-0.3139,-0.3006,-0.2809,-0.2678,-0.2344,-0.1474,-0.0839,-0.0303,0.0,-0.0471,-0.0605,-0.0168,-0.0471,-0.0572,0.0,0.0,-0.0404,-0.1074,-0.1576,-0.2111,-0.3009,-0.445,-0.5226,-0.5057,-0.4855,-0.4788,-0.4384,-0.4314,-0.4417,-0.4483,-0.5014,-0.565,-0.6396,-0.702,-0.7562,-0.7405,-0.6804,-0.592,-0.4998,-0.414,-0.2976,2.261,2.4024,2.2296,2.0339,1.8419,1.6026,1.3972,1.2403,1.3082,1.3657,1.4178,1.4948,1.5142,1.4881,1.3923,1.3435,1.3209,1.0541,0.8618,0.7326,0.6606,0.6106,0.5825,0.5786,0.5043,0.3711,0.2618,0.1331,0.0,0.0,0.0,0.0,0.0,0.0,0.0,0.1924,0.2906,0.3235,0.4741,0.5195,0.4302,0.3818,0.3259,0.2863,0.3551,0.447,0.5397,0.4476,0.2663,0.0,-0.2339,-0.4614,-0.6925,-0.8724,-0.9824,-1.0136,-1.0174,-1.0047,-0.9811,-0.9779,-0.9843,-1.0104,-0.9364,-0.8581,-0.7994,-0.7205,-0.5895,-0.4342,-0.3211,-0.231,-0.1608,-0.1642,-0.1844,-0.1811,-0.181,-0.181,-0.1811,-0.181,-0.1482,-0.0918,-0.041,0.0,0.0,0.0,-0.092,-0.0477,-0.1182,-0.1442,-0.1008,-0.0909,-0.0875,-0.1308,-0.1981,-0.2147,-0.2613,-0.3647,-0.4652,-0.4686,-0.5057,-0.5259,-0.5557,-0.5653,-0.5822,-0.5958,-0.6404,-0.7033,-0.7678,-0.8297,-0.8436,-0.8382,-0.7725,-0.6841,-0.5957,-0.5074,-0.3806,2.3441,2.325,2.1124,1.8324,1.5225,1.2236,0.9971,0.8935,0.8987,1.0333,1.179,1.2253,1.2977,1.3328,1.2425,1.1811,1.1358,0.9774,0.8166,0.6705,0.6303,0.567,0.4882,0.4727,0.3634,0.1761,0.0588,0.0079,0.0,0.0,0.0,0.0,0.0,0.0,0.0,0.1893,0.2915,0.33,0.4729,0.5153,0.4246,0.3289,0.1943,0.0144,-0.0528,-0.0205,0.1077,-0.0325,-0.2238,-0.4855,-0.6673,-0.8649,-0.9875,-1.0421,-1.0174,-0.953,-0.9364,-0.8941,-0.8253,-0.8221,-0.8646,-0.9037,-0.8517,-0.8059,-0.7762,-0.7144,-0.5994,-0.4444,-0.3347,-0.2444,-0.1612,-0.0875,-0.037,0.0,0.0,0.0,0.0,0.0,0.0,0.0,0.0,0.0,0.0,-0.0923,-0.1362,-0.1386,-0.2049,-0.2619,-0.2315,-0.2253,-0.2154,-0.1913,-0.2313,-0.2716,-0.2679,-0.2744,-0.348,-0.4148,-0.4755,-0.5193,-0.5749,-0.6009,-0.6445,-0.6679,-0.7428,-0.8055,-0.8854,-0.9384,-0.9352,-0.9166,-0.8415,-0.76,-0.6584,-0.5566,-0.4568,2.2844,2.304,2.0319,1.6738,1.2877,1.0276,0.7776,0.5543,0.6862,0.8039,0.8901,1.0393,1.1224,1.1199,1.0861,1.0176,0.9237,0.7942,0.7306,0.7096,0.586,0.5002,0.453,0.3904,0.2536,0.0781,0.0196,-0.0392,-0.0863,-0.0392,0.0,0.0,0.0,0.0,0.0,0.1972,0.3036,0.3206,0.4276,0.4392,0.3461,0.2346,0.0835,-0.1016,-0.1944,-0.2976,-0.4502,-0.4267,-0.5379,-0.7879,-0.8554,-0.941,-1.0358,-1.0586,-1.0174,-0.9434,-0.93,-0.8914,-0.8156,-0.7962,-0.8059,-0.8285,-0.8124,-0.7697,-0.7209,-0.6883,-0.6166,-0.502,-0.4151,-0.3435,-0.3111,-0.1796,-0.0741,0.0,0.0,0.0,0.0,0.0,0.0,0.0,0.0,0.0,0.0,-0.1224,-0.1962,-0.1612,-0.2664,-0.3492,-0.2928,-0.2883,-0.2651,-0.2445,-0.2948,-0.3182,-0.2845,-0.2978,-0.3647,-0.4212,-0.4749,-0.5481,-0.6005,-0.6724,-0.7129,-0.7712,-0.8425,-0.9067,-0.9869,-1.0142,-1.0047,-0.9722,-0.9005,-0.8054,-0.7009,-0.6052,-0.5157,2.1847,2.1285,1.8156,1.4191,0.9902,0.7256,0.4956,0.3255,0.4448,0.5375,0.6078,0.7308,0.791,0.7784,0.7772,0.7293,0.6447,0.563,0.541,0.5491,0.4342,0.3383,0.2809,0.1441,0.0234,-0.0896,-0.1173,-0.1488,-0.2074,-0.1488,0.0,0.0,-0.0589,0.0,0.0078,0.1605,0.254,0.2652,0.3073,0.2933,0.1939,0.0826,-0.0708,-0.2497,-0.3255,-0.4764,-0.7012,-0.6414,-0.7183,-0.937,-0.9848,-1.0079,-1.0561,-1.0555,-1.0072,-0.9069,-0.8716,-0.8291,-0.7246,-0.6924,-0.7214,-0.7405,-0.7214,-0.6985,-0.6625,-0.6494,-0.5929,-0.5463,-0.4628,-0.4125,-0.3995,-0.2558,-0.1228,-0.0648,0.0,0.0,0.0,0.0,0.0,0.0,0.0,0.0,0.0,-0.1146,-0.2189,-0.2032,-0.3122,-0.4248,-0.3717,-0.3782,-0.358,-0.348,-0.3782,-0.3616,-0.2911,-0.3245,-0.388,-0.4378,-0.4842,-0.5668,-0.6392,-0.7502,-0.8199,-0.8909,-0.9627,-0.9723,-1.0396,-1.046,-1.0364,-0.9913,-0.9428,-0.8581,-0.76,-0.685,-0.5888,2.0553,1.8262,1.4809,1.0955,0.681,0.3548,0.2101,0.1745,0.2013,0.2725,0.3523,0.3918,0.3829,0.3652,0.3853,0.3627,0.3374,0.3053,0.2511,0.187,0.118,0.0558,-0.0156,-0.1637,-0.2613,-0.3196,-0.3159,-0.3276,-0.3661,-0.3235,-0.2696,-0.1955,-0.1722,-0.1215,-0.0431,0.0862,0.1291,0.1249,0.1361,0.0892,0.0,-0.1047,-0.2521,-0.4387,-0.4462,-0.5343,-0.6987,-0.7265,-0.8305,-1.0479,-1.0497,-1.0418,-1.0608,-1.0613,-0.9887,-0.8463,-0.8091,-0.7246,-0.6013,-0.5719,-0.5914,-0.6494,-0.6075,-0.5719,-0.6297,-0.5944,-0.5612,-0.5549,-0.4867,-0.4437,-0.4303,-0.3024,-0.1944,-0.156,-0.0647,0.0,0.0,0.0,0.0,0.0,0.0,0.0,0.0,0.0,-0.204,-0.2723,-0.3648,-0.4454,-0.4867,-0.4821,-0.4818,-0.4755,-0.4655,-0.4386,-0.3813,-0.4403,-0.5005,-0.5332,-0.5793,-0.6613,-0.7205,-0.8253,-0.9166,-0.9907,-1.0326,-1.0491,-1.0555,-1.0586,-1.0428,-0.9983,-0.946,-0.8909,-0.8253,-0.7502,-0.6793,1.89,1.7093,1.2972,0.9089,0.5602,0.2853,0.1255,0.0673,0.1388,0.1744,0.2189,0.2271,0.209,0.2178,0.1241,0.093,0.0708,0.0,-0.0474,-0.096,-0.2531,-0.2669,-0.2435,-0.2848,-0.4012,-0.509,-0.4773,-0.4997,-0.6263,-0.5041,-0.4192,-0.3807,-0.308,-0.2617,-0.2149,-0.1208,-0.0778,-0.074,-0.0739,-0.0855,-0.1284,-0.222,-0.3315,-0.4487,-0.4691,-0.5672,-0.7492,-0.8139,-0.8827,-1.0012,-1.014,-1.0336,-1.0791,-1.0862,-1.027,-0.9098,-0.8291,-0.7572,-0.6494,-0.5716,-0.5554,-0.5686,-0.5568,-0.5491,-0.569,-0.5633,-0.5538,-0.5555,-0.5347,-0.5303,-0.5294,-0.4197,-0.3177,-0.2335,-0.1084,0.0,0.0,-0.0582,-0.0976,-0.1023,-0.1507,-0.1844,-0.21,-0.2615,-0.3295,-0.3761,-0.4361,-0.5083,-0.5309,-0.5395,-0.5156,-0.5226,-0.516,-0.5057,-0.512,-0.5672,-0.6158,-0.6486,-0.7107,-0.8054,-0.8544,-0.9096,-0.9843,-1.0523,-1.046,-1.0555,-1.0586,-1.0586,-1.0301,-1.0079,-0.9977,-0.9652,-0.8839,-0.8091,-0.7661,1.6305,1.4042,1.0441,0.697,0.3689,0.1294,-0.0134,-0.0672,-0.0626,-0.0491,-0.049,-0.049,-0.0754,-0.1239,-0.1944,-0.2253,-0.2343,-0.2969,-0.312,-0.334,-0.5105,-0.5586,-0.5315,-0.5443,-0.6364,-0.7283,-0.6889,-0.7271,-0.7998,-0.7076,-0.6419,-0.5803,-0.4892,-0.4201,-0.3618,-0.2765,-0.222,-0.2297,-0.2608,-0.2921,-0.296,-0.39,-0.4647,-0.5273,-0.5392,-0.6089,-0.7153,-0.7928,-0.8868,-0.9777,-1.0026,-1.0228,-1.0909,-1.0976,-1.0464,-0.9361,-0.8484,-0.76,-0.6752,-0.5914,-0.5428,-0.5409,-0.5443,-0.5487,-0.5521,-0.5593,-0.5688,-0.5776,-0.5718,-0.5803,-0.5729,-0.4903,-0.3841,-0.2881,-0.1896,-0.1239,-0.118,-0.1649,-0.188,-0.2036,-0.2392,-0.2805,-0.2854,-0.3329,-0.3723,-0.4034,-0.4337,-0.4891,-0.5299,-0.5346,-0.5395,-0.5395,-0.5458,-0.5388,-0.558,-0.6133,-0.678,-0.7172,-0.8086,-0.9069,-0.9486,-0.9843,-1.0168,-1.0586,-1.0586,-1.0586,-1.0586,-1.0586,-1.0466,-1.0396,-1.0491,-1.0168,-0.9326,-0.8903,-0.8447,1.3438,1.0113,0.7724,0.4847,0.1787,-0.0715,-0.1566,-0.1968,-0.2768,-0.3258,-0.3301,-0.3614,-0.4001,-0.545,-0.4963,-0.5455,-0.5585,-0.5367,-0.5383,-0.5812,-0.7009,-0.7799,-0.8107,-0.8271,-0.8861,-0.9299,-0.9473,-0.948,-0.9583,-0.9475,-0.8779,-0.7728,-0.674,-0.5781,-0.4897,-0.3934,-0.3513,-0.3707,-0.4295,-0.4644,-0.4763,-0.5431,-0.5789,-0.5667,-0.6051,-0.6286,-0.683,-0.7604,-0.8871,-1.0539,-1.0196,-1.0449,-1.0986,-1.1109,-1.06,-0.9695,-0.8847,-0.798,-0.7051,-0.6334,-0.5608,-0.5673,-0.5651,-0.5603,-0.57,-0.5916,-0.6187,-0.6294,-0.6135,-0.6262,-0.6028,-0.5303,-0.472,-0.4032,-0.3659,-0.3596,-0.3368,-0.3208,-0.301,-0.2898,-0.3033,-0.3099,-0.3035,-0.3062,-0.3357,-0.4553,-0.4769,-0.4956,-0.5289,-0.5369,-0.5395,-0.5395,-0.5488,-0.5613,-0.6005,-0.6494,-0.7139,-0.779,-0.8833,-0.9716,-1.0072,-1.0358,-1.046,-1.0586,-1.0586,-1.0586,-1.0586,-1.0555,-1.0586,-1.0561,-1.0555,-1.0174,-0.969,-0.9626,-0.9318,1.2289,0.888,0.6602,0.4168,0.1609,-0.0715,-0.1834,-0.2013,-0.317,-0.3792,-0.3837,-0.4596,-0.565,-0.669,-0.6757,-0.721,-0.7724,-0.7139,-0.7064,-0.7998,-0.8544,-0.9586,-1.0017,-0.9861,-0.9926,-1.045,-1.057,-1.0838,-1.1205,-1.0527,-0.9965,-0.8865,-0.7795,-0.6969,-0.6005,-0.558,-0.5589,-0.5631,-0.5825,-0.5825,-0.5825,-0.606,-0.5944,-0.5431,-0.5922,-0.6692,-0.751,-0.8428,-0.9884,-1.1101,-1.1198,-1.1179,-1.1607,-1.1776,-1.1369,-1.0553,-0.9769,-0.9139,-0.8565,-0.733,-0.6498,-0.6553,-0.6165,-0.5672,-0.583,-0.6683,-0.7078,-0.7282,-0.7646,-0.7412,-0.6714,-0.6766,-0.6457,-0.6189,-0.6666,-0.7196,-0.7089,-0.5515,-0.4371,-0.4179,-0.4598,-0.5002,-0.4958,-0.4734,-0.4925,-0.5195,-0.5191,-0.5209,-0.5312,-0.5428,-0.5587,-0.5683,-0.6158,-0.6412,-0.6719,-0.7307,-0.8118,-0.8603,-0.9512,-1.0072,-1.0428,-1.0586,-1.0586,-1.0586,-1.0586,-1.0618,-1.0769,-1.0744,-1.0807,-1.0713,-1.0744,-1.0706,-1.0636,-1.0485,-1.0397,0.9345,0.6913,0.4612,0.2273,0.0,-0.1831,-0.2949,-0.3662,-0.473,-0.5262,-0.5354,-0.598,-0.6854,-0.7899,-0.7962,-0.8368,-0.8578,-0.8053,-0.7901,-0.858,-0.9413,-1.055,-1.1314,-1.1103,-1.1146,-1.1589,-1.1053,-1.1205,-1.1236,-1.0677,-0.9744,-0.9258,-0.8313,-0.7553,-0.6945,-0.6528,-0.6219,-0.618,-0.63,-0.63,-0.63,-0.6257,-0.6141,-0.578,-0.6419,-0.7413,-0.8429,-0.9938,-1.1329,-1.239,-1.2676,-1.25,-1.2628,-1.2921,-1.2506,-1.1176,-1.0686,-0.9935,-0.9171,-0.826,-0.7535,-0.7613,-0.7333,-0.734,-0.74,-0.7996,-0.8244,-0.8342,-0.8416,-0.8211,-0.7456,-0.7568,-0.7755,-0.7985,-0.8563,-0.916,-0.9023,-0.7628,-0.635,-0.631,-0.6741,-0.6543,-0.6388,-0.6195,-0.5719,-0.5615,-0.5417,-0.5439,-0.5564,-0.5716,-0.6071,-0.6355,-0.6945,-0.733,-0.7558,-0.8221,-0.923,-0.9684,-1.0129,-1.0396,-1.0523,-1.0586,-1.0586,-1.0656,-1.0782,-1.0982,-1.1069,-1.1045,-1.1327,-1.1756,-1.1934,-1.1787,-1.1725,-1.1717,-1.1713,0.6204,0.4617,0.2634,0.0402,-0.1789,-0.3037,-0.4196,-0.5403,-0.6605,-0.6827,-0.7095,-0.7095,-0.7617,-0.8584,-0.8496,-0.8575,-0.8457,-0.8447,-0.8288,-0.8869,-1.0039,-1.1115,-1.1812,-1.205,-1.2046,-1.2194,-1.1279,-1.0938,-1.064,-0.9857,-0.9296,-0.8922,-0.8275,-0.7553,-0.733,-0.6795,-0.63,-0.63,-0.63,-0.63,-0.63,-0.63,-0.6296,-0.6714,-0.7443,-0.8604,-0.99,-1.1574,-1.3121,-1.4012,-1.4547,-1.4403,-1.4185,-1.4052,-1.3908,-1.1626,-1.16,-1.1128,-1.028,-0.9292,-0.8667,-0.8732,-0.8811,-0.902,-0.9038,-0.9214,-0.942,-0.9285,-0.9133,-0.8725,-0.8308,-0.8654,-0.8867,-0.918,-0.9737,-1.0268,-1.0418,-0.984,-0.9298,-0.8636,-0.8513,-0.8294,-0.7674,-0.7265,-0.6588,-0.6009,-0.5848,-0.5785,-0.5943,-0.6207,-0.6691,-0.7126,-0.7713,-0.8495,-0.8816,-0.8962,-0.9977,-1.0238,-1.0618,-1.0618,-1.0618,-1.0586,-1.0656,-1.0884,-1.1035,-1.1281,-1.1617,-1.188,-1.2313,-1.2887,-1.2856,-1.2489,-1.2612,-1.2948,-1.287,0.5284,0.2368,0.1968,0.0402,-0.1834,-0.3081,-0.4374,-0.5492,-0.665,-0.7095,-0.7095,-0.7139,-0.7753,-0.8364,-0.7749,-0.7381,-0.7621,-0.8072,-0.8819,-0.9581,-1.0649,-1.1552,-1.2447,-1.2429,-1.2358,-1.204,-1.1242,-1.0677,-1.0453,-0.9814,-0.8841,-0.8199,-0.8008,-0.7591,-0.6949,-0.6377,-0.6374,-0.63,-0.63,-0.63,-0.63,-0.6451,-0.6756,-0.7472,-0.8439,-0.9873,-1.1678,-1.3562,-1.5138,-1.5974,-1.6209,-1.6112,-1.5765,-1.5138,-1.4344,-1.3565,-1.3032,-1.2533,-1.184,-1.0659,-1.0072,-0.9876,-0.9657,-0.9359,-0.9558,-1.0034,-1.0404,-1.0225,-0.9892,-0.9529,-0.9475,-1.0031,-1.053,-1.1081,-1.1783,-1.2598,-1.278,-1.2479,-1.1714,-1.0854,-1.0444,-0.996,-0.923,-0.8553,-0.7991,-0.7423,-0.7051,-0.6985,-0.7083,-0.7349,-0.7684,-0.8108,-0.8548,-0.9374,-1.0117,-1.0155,-1.0555,-1.046,-1.0649,-1.0681,-1.0681,-1.0618,-1.0719,-1.1101,-1.1413,-1.1697,-1.2112,-1.2543,-1.3017,-1.3433,-1.3282,-1.31,-1.3364,-1.3666,-1.3425,0.2982,0.0848,0.0223,-0.1474,-0.3528,-0.4285,-0.522,-0.6251,-0.6874,-0.7095,-0.7095,-0.7139,-0.7401,-0.7709,-0.7445,-0.7238,-0.7762,-0.8748,-0.9704,-1.0621,-1.157,-1.2369,-1.3073,-1.277,-1.2685,-1.2215,-1.1041,-1.0078,-0.9927,-0.8988,-0.8313,-0.8122,-0.8237,-0.8046,-0.7292,-0.7138,-0.6756,-0.649,-0.6335,-0.6296,-0.6412,-0.6756,-0.7403,-0.8067,-0.9707,-1.1389,-1.2898,-1.4866,-1.6324,-1.7067,-1.7122,-1.7037,-1.6794,-1.637,-1.5507,-1.4673,-1.4187,-1.3668,-1.2961,-1.1696,-1.1153,-1.1112,-1.081,-1.0801,-1.0908,-1.1292,-1.1371,-1.1192,-1.1099,-1.0987,-1.1357,-1.1677,-1.1988,-1.2265,-1.2967,-1.342,-1.3637,-1.3723,-1.3212,-1.2555,-1.2261,-1.1581,-1.0692,-1.0065,-0.9452,-0.8896,-0.8339,-0.8248,-0.8248,-0.8544,-0.885,-0.9212,-0.9616,-1.0179,-1.0912,-1.1101,-1.1108,-1.1021,-1.0989,-1.1021,-1.087,-1.087,-1.1147,-1.1519,-1.1824,-1.1859,-1.2477,-1.2876,-1.3408,-1.3944,-1.4145,-1.4264,-1.4302,-1.4273,-1.4085,0.058,-0.0801,-0.1742,-0.3395,-0.5225,-0.5406,-0.6027,-0.6962,-0.7095,-0.7095,-0.7095,-0.7095,-0.7095,-0.7139,-0.7237,-0.7497,-0.8288,-0.9511,-1.0432,-1.1239,-1.2311,-1.318,-1.322,-1.3052,-1.2699,-1.2445,-1.0962,-0.9523,-0.9258,-0.8423,-0.7936,-0.8046,-0.8765,-0.8955,-0.8237,-0.8084,-0.7437,-0.6907,-0.6602,-0.6602,-0.6834,-0.7326,-0.8084,-0.8566,-1.1045,-1.289,-1.3978,-1.5826,-1.707,-1.7639,-1.7687,-1.7506,-1.7519,-1.7519,-1.6849,-1.5624,-1.524,-1.4526,-1.3847,-1.2739,-1.2279,-1.2285,-1.2244,-1.2234,-1.2191,-1.1955,-1.2025,-1.1953,-1.175,-1.1823,-1.2149,-1.2628,-1.2706,-1.2876,-1.3106,-1.3453,-1.3457,-1.3509,-1.3679,-1.3414,-1.3577,-1.3091,-1.2074,-1.155,-1.0944,-1.0173,-0.9621,-0.9558,-0.9589,-0.9844,-1.0142,-1.0426,-1.0759,-1.108,-1.1538,-1.1872,-1.1841,-1.1725,-1.1756,-1.181,-1.1483,-1.1192,-1.15,-1.1725,-1.1547,-1.1714,-1.2431,-1.3184,-1.3708,-1.4302,-1.5021,-1.5264,-1.4962,-1.4932,-1.4874,-0.1114,-0.3166,-0.3303,-0.4194,-0.5359,-0.545,-0.6071,-0.7051,-0.7095,-0.7095,-0.7095,-0.7095,-0.7095,-0.7126,-0.717,-0.7554,-0.8467,-0.969,-1.0795,-1.1585,-1.2473,-1.2979,-1.2911,-1.2525,-1.2536,-1.2377,-1.1184,-1.0158,-0.948,-0.8499,-0.797,-0.8232,-0.9064,-0.9258,-0.9178,-0.9102,-0.858,-0.7821,-0.7629,-0.7629,-0.7672,-0.7859,-0.887,-1.0349,-1.2175,-1.3807,-1.4838,-1.6498,-1.7681,-1.7886,-1.7959,-1.793,-1.7939,-1.7939,-1.7906,-1.7434,-1.6927,-1.6304,-1.5705,-1.4257,-1.3273,-1.3086,-1.2705,-1.2409,-1.2265,-1.2161,-1.2033,-1.1884,-1.1697,-1.1852,-1.2256,-1.2263,-1.2428,-1.2533,-1.2643,-1.2773,-1.2799,-1.2227,-1.248,-1.2852,-1.2553,-1.3336,-1.3245,-1.2885,-1.2443,-1.1617,-1.0968,-1.0867,-1.0892,-1.1048,-1.1298,-1.1578,-1.1671,-1.1965,-1.2212,-1.2543,-1.2543,-1.2428,-1.2573,-1.2573,-1.2158,-1.1802,-1.1591,-1.174,-1.1559,-1.1652,-1.2343,-1.3111,-1.3872,-1.4421,-1.4805,-1.5138,-1.5352,-1.542,-1.5391,-0.3698,-0.4599,-0.4641,-0.5309,-0.6293,-0.634,-0.6605,-0.7051,-0.7095,-0.7095,-0.7095,-0.7095,-0.7058,-0.7131,-0.7534,-0.8262,-0.9144,-1.046,-1.1601,-1.2217,-1.2897,-1.3227,-1.3166,-1.2837,-1.2596,-1.2241,-1.1471,-1.0677,-1.0002,-0.9777,-0.9513,-0.955,-1.034,-1.072,-1.0233,-1.0158,-0.9556,-0.8955,-0.8656,-0.8651,-0.8803,-0.9216,-0.9884,-1.0858,-1.267,-1.4024,-1.5217,-1.6402,-1.7501,-1.7828,-1.8008,-1.8008,-1.8008,-1.7998,-1.7964,-1.794,-1.7647,-1.7129,-1.6401,-1.4764,-1.4063,-1.3491,-1.2915,-1.2342,-1.2278,-1.2198,-1.2111,-1.2118,-1.2011,-1.217,-1.2492,-1.2381,-1.212,-1.2035,-1.1656,-1.122,-1.1101,-1.0909,-1.077,-1.1186,-1.1705,-1.2426,-1.305,-1.2732,-1.2381,-1.2166,-1.1648,-1.1516,-1.1703,-1.202,-1.2297,-1.2634,-1.2696,-1.2765,-1.297,-1.3213,-1.3183,-1.3183,-1.3455,-1.3364,-1.2834,-1.2474,-1.2413,-1.2127,-1.1973,-1.2174,-1.2445,-1.2638,-1.307,-1.3747,-1.4481,-1.4815,-1.5177,-1.5352,-1.5118,-0.598,-0.6242,-0.5933,-0.6337,-0.7139,-0.7401,-0.736,-0.7139,-0.7489,-0.7404,-0.7139,-0.7136,-0.7166,-0.7523,-0.8263,-0.9047,-1.0208,-1.1465,-1.2431,-1.3103,-1.34,-1.3433,-1.3253,-1.2965,-1.263,-1.2677,-1.182,-1.1285,-1.1242,-1.1087,-1.0938,-1.0901,-1.1502,-1.1731,-1.1391,-1.1093,-1.0677,-0.9782,-0.9334,-0.9372,-0.9707,-1.0303,-1.0789,-1.1607,-1.2748,-1.4063,-1.4843,-1.607,-1.707,-1.7407,-1.7906,-1.8008,-1.8008,-1.8008,-1.8008,-1.8008,-1.7862,-1.7647,-1.6853,-1.5649,-1.4522,-1.381,-1.2989,-1.2305,-1.2305,-1.2305,-1.2305,-1.2271,-1.2258,-1.2618,-1.2868,-1.2244,-1.1583,-1.0908,-1.0251,-0.9571,-0.9112,-0.9367,-0.9486,-0.9698,-1.0317,-1.1238,-1.1742,-1.1904,-1.2066,-1.2381,-1.232,-1.2197,-1.2596,-1.3031,-1.3485,-1.3876,-1.4216,-1.4156,-1.4085,-1.4115,-1.3986,-1.4016,-1.4323,-1.4174,-1.3666,-1.3502,-1.3472,-1.3103,-1.266,-1.2313,-1.2406,-1.2251,-1.2197,-1.3083,-1.3906,-1.451,-1.4874,-1.5089,-1.4815,-0.7661,-0.858,-0.7489,-0.7095,-0.7228,-0.8321,-0.8105,-0.736,-0.8277,-0.8149,-0.7533,-0.7268,-0.8002,-0.8578,-0.913,-1.0049,-1.1658,-1.2085,-1.2765,-1.323,-1.334,-1.3253,-1.3046,-1.2719,-1.2371,-1.2371,-1.2009,-1.2046,-1.215,-1.1922,-1.1539,-1.1087,-1.1916,-1.215,-1.2144,-1.199,-1.1539,-1.0752,-1.0233,-1.0265,-1.0634,-1.1081,-1.1422,-1.2211,-1.3091,-1.3781,-1.3918,-1.5508,-1.6611,-1.6881,-1.7588,-1.7974,-1.8008,-1.8168,-1.8202,-1.8236,-1.8395,-1.825,-1.7653,-1.674,-1.5895,-1.4799,-1.3593,-1.2415,-1.2298,-1.2305,-1.2305,-1.2305,-1.2305,-1.2342,-1.2101,-1.1386,-1.0879,-1.0431,-0.9817,-0.9023,-0.8611,-0.8472,-0.856,-0.8436,-0.9233,-1.0582,-1.1735,-1.2235,-1.2496,-1.284,-1.3114,-1.3023,-1.3777,-1.4293,-1.4776,-1.5216,-1.5757,-1.5786,-1.542,-1.542,-1.5506,-1.5409,-1.5516,-1.5138,-1.458,-1.4531,-1.4834,-1.4127,-1.3708,-1.2981,-1.2373,-1.2396,-1.2512,-1.2818,-1.3304,-1.3786,-1.4273,-1.451,-1.4183,-0.8882,-0.9879,-0.944,-0.8838,-0.8233,-0.8715,-0.8627,-0.8324,-0.8671,-0.9104,-0.9183,-0.9261,-0.9459,-0.9895,-1.0562,-1.1044,-1.1839,-1.2591,-1.3009,-1.3154,-1.31,-1.2953,-1.279,-1.2579,-1.2311,-1.2305,-1.2305,-1.2305,-1.2268,-1.2305,-1.2187,-1.1996,-1.2181,-1.2659,-1.2842,-1.2549,-1.207,-1.1983,-1.1866,-1.2228,-1.2375,-1.2595,-1.2785,-1.3127,-1.2659,-1.3237,-1.381,-1.4985,-1.5869,-1.668,-1.751,-1.794,-1.8212,-1.8539,-1.8764,-1.8888,-1.9166,-1.9199,-1.8543,-1.7429,-1.593,-1.4486,-1.3528,-1.2952,-1.2512,-1.2342,-1.2305,-1.2305,-1.2378,-1.2445,-1.2184,-1.1313,-1.0533,-1.0206,-0.968,-0.8941,-0.8518,-0.8499,-0.8761,-0.9154,-0.9825,-1.0819,-1.1897,-1.289,-1.3097,-1.3334,-1.3606,-1.3965,-1.4599,-1.5138,-1.5459,-1.5901,-1.6394,-1.68,-1.6489,-1.6715,-1.7034,-1.681,-1.6585,-1.6195,-1.5795,-1.6355,-1.6423,-1.5613,-1.4789,-1.4241,-1.3596,-1.2945,-1.2787,-1.297,-1.2909,-1.2901,-1.3386,-1.3876,-1.3704,-1.0053,-1.108,-1.1123,-1.0438,-0.9536,-0.9792,-0.971,-0.9492,-0.9836,-1.0053,-1.0611,-1.0605,-1.0781,-1.1121,-1.1598,-1.2272,-1.255,-1.305,-1.322,-1.322,-1.3013,-1.2824,-1.2683,-1.2492,-1.2305,-1.2305,-1.2305,-1.2305,-1.2305,-1.2305,-1.2482,-1.2549,-1.2482,-1.2732,-1.2849,-1.2696,-1.2415,-1.2842,-1.2952,-1.331,-1.3164,-1.3164,-1.3127,-1.3091,-1.2629,-1.2915,-1.3702,-1.4772,-1.5728,-1.6707,-1.7617,-1.8295,-1.8704,-1.9108,-1.9583,-1.9868,-2.0107,-2.0268,-1.941,-1.7726,-1.607,-1.5084,-1.4378,-1.3702,-1.3018,-1.2703,-1.2849,-1.2813,-1.2769,-1.2799,-1.2858,-1.2403,-1.1558,-1.1327,-1.0775,-1.0083,-0.9485,-0.9287,-0.9689,-1.011,-1.0899,-1.179,-1.2926,-1.401,-1.4346,-1.4433,-1.4421,-1.4658,-1.4962,-1.541,-1.5661,-1.6148,-1.6718,-1.7102,-1.7446,-1.7649,-1.777,-1.7302,-1.7163,-1.7274,-1.7251,-1.7684,-1.7629,-1.6765,-1.6026,-1.5505,-1.4847,-1.41,-1.3498,-1.3039,-1.297,-1.2909,-1.2657,-1.3114,-1.3425,-1.1332,-1.2237,-1.2322,-1.1681,-1.095,-1.1772,-1.1515,-1.0783,-1.1643,-1.1643,-1.1042,-1.0956,-1.1423,-1.2116,-1.2475,-1.289,-1.3435,-1.3518,-1.3467,-1.328,-1.2893,-1.2784,-1.2656,-1.2452,-1.2305,-1.2305,-1.2305,-1.2305,-1.2305,-1.2305,-1.2732,-1.2945,-1.2622,-1.2445,-1.2378,-1.2378,-1.2813,-1.3382,-1.2849,-1.2703,-1.2696,-1.2732,-1.2769,-1.2732,-1.2482,-1.2769,-1.3665,-1.4665,-1.5623,-1.662,-1.8047,-1.8694,-1.8942,-1.9844,-2.0303,-2.0323,-2.0634,-2.0687,-2.0354,-1.8012,-1.68,-1.614,-1.5403,-1.4692,-1.3954,-1.3673,-1.3709,-1.3709,-1.3673,-1.4091,-1.424,-1.4114,-1.3107,-1.2547,-1.2036,-1.1693,-1.1131,-1.0762,-1.1291,-1.1964,-1.2508,-1.3186,-1.4291,-1.5226,-1.5632,-1.568,-1.5468,-1.5439,-1.5555,-1.575,-1.6021,-1.6641,-1.7241,-1.7791,-1.8194,-1.8463,-1.8447,-1.7961,-1.7825,-1.8097,-1.8128,-1.8155,-1.7979,-1.7629,-1.7273,-1.677,-1.602,-1.5216,-1.4405,-1.3597,-1.3274,-1.3061,-1.2634,-1.2626,-1.3304,-1.458,-1.5542,-1.4844,-1.4343,-1.3833,-1.2705,-1.2072,-1.1986,-1.2899,-1.3252,-1.2997,-1.2905,-1.3039,-1.3428,-1.3389,-1.3536,-1.3624,-1.3487,-1.3267,-1.3019,-1.269,-1.2505,-1.2412,-1.2385,-1.2305,-1.2305,-1.2305,-1.2305,-1.2305,-1.2305,-1.2378,-1.2556,-1.2659,-1.2696,-1.3055,-1.3237,-1.3499,-1.36,-1.3382,-1.3237,-1.32,-1.3164,-1.3171,-1.3171,-1.2732,-1.2952,-1.3846,-1.4879,-1.5755,-1.668,-1.8115,-1.8572,-1.8875,-1.9745,-2.0324,-2.0473,-2.0803,-2.1647,-2.0771,-1.9058,-1.7828,-1.7042,-1.6324,-1.5685,-1.4879,-1.47,-1.47,-1.47,-1.4665,-1.4985,-1.4898,-1.489,-1.4359,-1.4351,-1.405,-1.3886,-1.3484,-1.3186,-1.3364,-1.4162,-1.4809,-1.5351,-1.6257,-1.6486,-1.6817,-1.6856,-1.6602,-1.6255,-1.6226,-1.6313,-1.6519,-1.7222,-1.7863,-1.8486,-1.8977,-1.9242,-1.9164,-1.8715,-1.8833,-1.9214,-1.9139,-1.8696,-1.8623,-1.8391,-1.8244,-1.8032,-1.7065,-1.6095,-1.4974,-1.4207,-1.3986,-1.3644,-1.3274,-1.3476,-1.4085,-1.7666,-1.8174,-1.7227,-1.679,-1.6341,-1.4008,-1.2893,-1.3069,-1.3737,-1.4088,-1.4039,-1.4046,-1.3973,-1.3913,-1.3908,-1.3768,-1.344,-1.3186,-1.3006,-1.2744,-1.2452,-1.2365,-1.2325,-1.2305,-1.2305,-1.2305,-1.2305,-1.2305,-1.2305,-1.2305,-1.2342,-1.2452,-1.2666,-1.3382,-1.3774,-1.3702,-1.3317,-1.3382,-1.331,-1.3244,-1.3455,-1.3673,-1.3846,-1.3947,-1.3875,-1.3846,-1.4629,-1.5403,-1.6114,-1.701,-1.7754,-1.8329,-1.8838,-1.9489,-2.0216,-2.0572,-2.0867,-2.1553,-2.0611,-2.016,-1.8969,-1.7862,-1.7326,-1.6636,-1.5904,-1.5685,-1.5685,-1.5685,-1.5693,-1.5904,-1.6053,-1.5974,-1.5939,-1.5895,-1.6165,-1.6005,-1.5468,-1.5127,-1.5526,-1.6307,-1.6699,-1.7368,-1.7857,-1.7884,-1.7977,-1.7895,-1.777,-1.7357,-1.6983,-1.7034,-1.7312,-1.8093,-1.8704,-1.9306,-1.9763,-2.0029,-1.985,-1.9475,-1.9462,-1.9514,-1.9345,-1.8759,-1.8963,-1.9158,-1.8967,-1.8631,-1.7874,-1.6932,-1.5812,-1.5129,-1.4855,-1.4451,-1.3974,-1.4154,-1.4599,-2.0426,-2.0245,-1.9316,-1.8873,-1.836,-1.5849,-1.4475,-1.425,-1.4286,-1.4334,-1.4292,-1.4426,-1.4393,-1.3926,-1.3763,-1.3581,-1.3292,-1.3022,-1.2811,-1.2683,-1.2405,-1.2338,-1.2305,-1.2305,-1.2305,-1.2305,-1.2445,-1.2666,-1.2415,-1.2879,-1.2842,-1.2806,-1.3484,-1.4171,-1.4279,-1.3954,-1.3528,-1.3738,-1.3091,-1.3171,-1.3528,-1.3709,-1.4171,-1.4486,-1.4807,-1.5234,-1.5869,-1.6384,-1.6888,-1.7642,-1.8476,-1.8809,-1.9328,-1.9995,-2.0324,-2.0608,-2.0687,-2.0526,-2.0462,-2.0236,-1.9977,-1.889,-1.8509,-1.7653,-1.6966,-1.6645,-1.6645,-1.6645,-1.668,-1.7182,-1.7545,-1.7467,-1.7354,-1.7711,-1.82,-1.7817,-1.7189,-1.7185,-1.7734,-1.8154,-1.8281,-1.87,-1.9006,-1.9123,-1.8888,-1.8859,-1.8688,-1.8421,-1.808,-1.7946,-1.8347,-1.9238,-1.9798,-2.0202,-2.0553,-2.0873,-2.0194,-1.9671,-1.9059,-1.8965,-1.8847,-1.8705,-1.8619,-1.8804,-1.9426,-1.9193,-1.835,-1.7522,-1.6648,-1.6083,-1.5478,-1.4962,-1.4392,-1.4392,-1.4717,-2.3153,-2.2493,-2.1456,-2.0982,-2.0743,-1.921,-1.774,-1.6478,-1.6363,-1.6363,-1.6347,-1.605,-1.5895,-1.5738,-1.4821,-1.426,-1.3736,-1.3179,-1.2719,-1.2502,-1.2358,-1.2325,-1.2305,-1.2305,-1.2305,-1.2519,-1.2806,-1.3135,-1.3455,-1.381,-1.4235,-1.4522,-1.445,-1.4914,-1.4914,-1.4629,-1.4593,-1.4271,-1.3302,-1.3273,-1.3629,-1.3918,-1.4557,-1.5163,-1.5446,-1.5974,-1.6498,-1.6636,-1.6888,-1.7088,-1.7279,-1.7213,-1.6464,-1.7837,-1.8949,-2.0388,-2.0139,-1.9661,-1.9748,-2.0268,-2.0268,-1.9792,-1.9595,-1.8967,-1.8128,-1.7628,-1.7628,-1.7594,-1.7457,-1.775,-1.7964,-1.7988,-1.8138,-1.86,-1.904,-1.8988,-1.8445,-1.855,-1.9057,-1.9167,-1.9322,-1.9567,-1.9914,-1.9927,-1.9697,-1.9708,-1.9592,-1.9307,-1.9127,-1.8975,-1.9395,-2.0291,-2.1128,-2.159,-2.1569,-2.182,-2.0737,-1.9838,-1.9167,-1.8478,-1.8043,-1.7947,-1.8039,-1.8374,-1.8905,-1.9014,-1.8729,-1.7895,-1.7034,-1.6397,-1.5835,-1.5313,-1.4903,-1.4874,-1.4894,-2.546,-2.4625,-2.3935,-2.3591,-2.3426,-2.2863,-2.1824,-2.0635,-1.9178,-1.8504,-1.8497,-1.8009,-1.7763,-1.7492,-1.6258,-1.5168,-1.4448,-1.36,-1.2929,-1.2385,-1.2305,-1.2305,-1.2305,-1.2305,-1.2305,-1.2556,-1.2842,-1.3135,-1.3918,-1.4665,-1.5128,-1.5092,-1.5199,-1.5482,-1.5508,-1.5367,-1.5411,-1.5092,-1.455,-1.4019,-1.4163,-1.4629,-1.5446,-1.6009,-1.6193,-1.662,-1.6932,-1.6888,-1.6602,-1.6463,-1.6406,-1.5835,-1.5438,-1.668,-1.756,-1.8793,-1.8957,-1.9,-1.9398,-2.0171,-2.0139,-2.0204,-2.0558,-2.0225,-1.9464,-1.88,-1.8643,-1.8476,-1.8192,-1.8008,-1.8134,-1.8327,-1.8744,-1.9199,-1.9555,-1.9928,-1.9833,-1.9756,-1.9861,-1.9968,-2.0142,-2.0334,-2.0471,-2.0471,-2.0421,-2.0321,-2.0182,-1.994,-1.986,-1.9862,-2.045,-2.1349,-2.2297,-2.3056,-2.2998,-2.2703,-2.162,-2.0452,-1.9121,-1.8422,-1.7616,-1.7252,-1.7357,-1.7802,-1.8332,-1.8422,-1.8558,-1.8058,-1.733,-1.6726,-1.6093,-1.5517,-1.5206,-1.5206,-1.5264,-2.7438,-2.6667,-2.6565,-2.6358,-2.6312,-2.6198,-2.6173,-2.6013,-2.2731,-2.1009,-2.0946,-2.023,-2.0065,-1.9952,-1.8429,-1.6886,-1.5808,-1.4676,-1.3411,-1.2445,-1.2298,-1.2305,-1.2305,-1.2305,-1.2305,-1.2305,-1.2696,-1.3491,-1.4199,-1.5199,-1.5913,-1.5411,-1.5623,-1.6079,-1.6532,-1.6149,-1.6123,-1.6035,-1.5799,-1.5446,-1.5473,-1.6149,-1.7035,-1.7681,-1.7828,-1.7896,-1.7681,-1.7251,-1.6558,-1.621,-1.5676,-1.5067,-1.528,-1.5895,-1.6454,-1.7164,-1.7833,-1.8418,-1.9144,-1.9977,-2.0462,-2.0814,-2.1396,-2.1428,-2.0878,-1.9814,-1.9453,-1.9011,-1.8654,-1.8236,-1.8236,-1.8395,-1.8754,-1.9487,-2.0059,-2.0404,-2.0523,-2.0326,-2.0106,-2.027,-2.0501,-2.0733,-2.111,-2.1135,-2.0868,-2.0807,-2.0408,-2.0181,-1.9939,-1.9999,-2.0646,-2.1644,-2.3103,-2.3934,-2.4454,-2.3982,-2.2672,-2.1318,-1.9794,-1.8108,-1.7147,-1.6828,-1.668,-1.7159,-1.7644,-1.8135,-1.824,-1.7829,-1.7468,-1.7006,-1.6368,-1.569,-1.5468,-1.5468,-1.541,-2.9192,-2.8395,-2.8368,-2.8327,-2.8333,-2.8333,-2.862,-2.8968,-2.7565,-2.5941,-2.4761,-2.4144,-2.3779,-2.3314,-2.1225,-1.9657,-1.845,-1.6244,-1.4415,-1.3361,-1.2792,-1.2409,-1.2305,-1.2305,-1.2305,-1.2556,-1.3091,-1.4163,-1.5367,-1.6472,-1.726,-1.726,-1.7157,-1.7285,-1.7467,-1.7079,-1.7044,-1.6853,-1.6966,-1.6715,-1.6558,-1.6523,-1.7026,-1.774,-1.81,-1.81,-1.7818,-1.7173,-1.628,-1.5544,-1.4581,-1.4145,-1.4073,-1.5032,-1.586,-1.6602,-1.7467,-1.8056,-1.8697,-1.9628,-2.0365,-2.1026,-2.1678,-2.231,-2.2144,-2.0962,-2.0107,-1.9595,-1.9011,-1.8596,-1.8371,-1.8563,-1.8877,-1.9749,-2.0527,-2.0811,-2.1076,-2.0774,-2.0386,-2.0564,-2.0787,-2.1175,-2.1592,-2.1663,-2.1342,-2.0855,-2.0181,-1.9698,-1.916,-1.9064,-1.951,-2.0735,-2.3378,-2.451,-2.5161,-2.516,-2.3833,-2.2363,-2.0841,-1.8919,-1.692,-1.6503,-1.6394,-1.6566,-1.692,-1.7429,-1.777,-1.7747,-1.7385,-1.7107,-1.6698,-1.6054,-1.5661,-1.5584,-1.5497,-2.9797,-2.9129,-2.9756,-3.0242,-3.0601,-3.091,-3.127,-3.1416,-3.0815,-3.0,-2.888,-2.7639,-2.6815,-2.6575,-2.4503,-2.2783,-2.143,-1.8593,-1.6529,-1.4938,-1.352,-1.2732,-1.2526,-1.2342,-1.2305,-1.2592,-1.381,-1.5057,-1.6149,-1.7285,-1.7906,-1.8008,-1.8008,-1.8008,-1.8008,-1.7974,-1.7759,-1.732,-1.7794,-1.7808,-1.7599,-1.7794,-1.8234,-1.8877,-1.8811,-1.8687,-1.8104,-1.7394,-1.6184,-1.5013,-1.3888,-1.4022,-1.428,-1.5016,-1.5711,-1.6532,-1.7354,-1.8008,-1.8405,-1.9144,-2.0204,-2.0846,-2.1647,-2.2218,-2.2884,-2.1854,-2.1479,-2.0867,-1.9497,-1.8921,-1.8854,-1.8988,-1.9464,-2.016,-2.0659,-2.098,-2.1051,-2.0916,-2.0886,-2.1119,-2.1362,-2.1619,-2.2123,-2.2696,-2.2331,-2.1771,-2.0948,-1.9495,-1.8879,-1.751,-1.8137,-1.8858,-2.0876,-2.3835,-2.5277,-2.538,-2.4938,-2.3436,-2.1643,-1.9755,-1.7783,-1.6691,-1.6102,-1.6483,-1.6672,-1.6732,-1.7002,-1.7335,-1.7523,-1.7357,-1.695,-1.6454,-1.6151,-1.5874,-1.5789,-3.0119,-2.9709,-3.0896,-3.1942,-3.2734,-3.3287,-3.3476,-3.337,-3.2819,-3.2646,-3.2338,-3.0196,-2.9464,-2.8793,-2.7728,-2.6189,-2.4157,-2.1352,-1.8976,-1.6671,-1.4687,-1.3628,-1.2842,-1.2415,-1.2342,-1.2952,-1.4171,-1.478,-1.5411,-1.6941,-1.8008,-1.8008,-1.8008,-1.8008,-1.8008,-1.8008,-1.7862,-1.7828,-1.81,-1.8496,-1.8877,-1.9332,-1.9694,-1.9879,-1.9911,-1.9464,-1.8824,-1.7828,-1.641,-1.5261,-1.4119,-1.4196,-1.4707,-1.5369,-1.5843,-1.6671,-1.7467,-1.7906,-1.8236,-1.8888,-1.9661,-2.0398,-2.127,-2.2002,-2.2628,-2.272,-2.231,-2.1729,-2.0354,-1.9464,-1.9408,-1.9177,-1.9694,-2.032,-2.0669,-2.1176,-2.1178,-2.1069,-2.122,-2.1459,-2.1718,-2.1949,-2.2483,-2.312,-2.3039,-2.2515,-2.1462,-2.0013,-1.8429,-1.6456,-1.565,-1.5703,-1.6471,-1.9746,-2.3054,-2.4262,-2.3777,-2.3488,-2.1635,-2.0102,-1.8654,-1.7385,-1.6651,-1.6641,-1.6765,-1.6675,-1.6832,-1.7185,-1.733,-1.7413,-1.7274,-1.6922,-1.6838,-1.656,-1.6304,-3.1537,-3.1931,-3.2253,-3.2756,-3.3391,-3.3556,-3.358,-3.3456,-3.3117,-3.2946,-3.2882,-3.2791,-3.2192,-3.1741,-3.0381,-2.8928,-2.7288,-2.4275,-2.1501,-1.9126,-1.6344,-1.4651,-1.3404,-1.2652,-1.2378,-1.3018,-1.4091,-1.4985,-1.5234,-1.6828,-1.794,-1.7794,-1.7862,-1.7896,-1.793,-1.7896,-1.7716,-1.7759,-1.7862,-1.8114,-1.8934,-1.9365,-1.9814,-2.0139,-2.0462,-1.9911,-1.9212,-1.8261,-1.7279,-1.6262,-1.5296,-1.4996,-1.535,-1.5948,-1.6349,-1.6819,-1.7613,-1.7872,-1.8269,-1.8721,-1.9365,-1.9694,-2.0526,-2.127,-2.1834,-2.2261,-2.2187,-2.2555,-2.1342,-2.0107,-1.9661,-1.8787,-1.8911,-1.9825,-2.0438,-2.1278,-2.1749,-2.1317,-2.106,-2.1328,-2.1563,-2.19,-2.2337,-2.2852,-2.3179,-2.2478,-2.1475,-1.9976,-1.8087,-1.5825,-1.3539,-1.2989,-1.2841,-1.4345,-1.7148,-2.0838,-2.1335,-2.1602,-2.1764,-2.0496,-1.9217,-1.7962,-1.7379,-1.7352,-1.6941,-1.6665,-1.6885,-1.7257,-1.7146,-1.7246,-1.7468,-1.7413,-1.7385,-1.7157,-1.6775]},{"header":{"parameterUnit":"m.s-1","parameterCategory":1,"la1":31.0,"la2":29.5877,"lo1":-88.7671,"lo2":-86.6584,"dy":0.0162,"dx":0.0185,"nx":115,"ny":88,"refTime":"2024-07-25T12:00:00:Z","depth":0,"parameterNumber":3,"parameterNumberName":"V-component_of_WINDS"},"data":[0.0,0.0,0.0,0.0,0.0,0.0,0.0,0.0,0.0,0.0,0.0,0.0,0.0,0.0,0.0,0.0,0.0,0.0,0.0,0.0,0.0,0.0,0.0,0.0,0.0,0.0,0.0,0.0,0.0,0.0,0.0,0.0,0.0,0.0,0.0,0.0,0.0,0.0,0.0,0.0,0.0,0.0,0.0,0.0,0.0,0.0,0.0,0.0,0.0,0.0,0.0,0.0,0.0,0.0,0.0,0.0,0.0,0.0,0.0,0.0,0.0,0.0,0.0,0.0,0.0,0.0,0.0,0.0,0.0,0.0,0.0,0.0,0.0,0.0,0.0,0.0,0.0,0.0,0.0,0.0,0.0,0.0,0.0,0.0,0.0,0.0,0.0,0.0,0.0,0.0,0.0,0.0,0.0,0.0,0.0,0.0,0.0,0.0,0.0,0.0,0.0,0.0,0.0,0.0,0.0,0.0,0.0,0.0,0.0,0.0,0.0,0.0,0.0,0.0,0.0,0.0,0.0,0.0,0.0,0.0,0.0,0.0,0.0,0.0,0.0,0.0,0.0,0.0,0.0,0.0,0.0,0.0,0.0,0.0,0.0,0.0,0.0,0.0,0.0,0.0,0.0,0.0,0.0,0.0,0.0,0.0,0.0,0.0,0.0,0.0,0.0,0.0,0.0,0.0,0.0,0.0,0.0,0.0,0.0,0.0,0.0,0.0,0.0,0.0,0.0,0.0,0.0,0.0,0.0,0.0,0.0,0.0,0.0,0.0,0.0,0.0,0.0,0.0,0.0,0.0,0.0,0.0,0.0,0.0,0.0,0.0,0.0,0.0,0.0,0.0,0.0,0.0,0.0,0.0,0.0,0.0,0.0,0.0,0.0,0.0,0.0,0.0,0.0,0.0,0.0,0.0,0.0,0.0,0.0,0.0,0.0,0.0,0.0,0.0,0.0,0.0,0.0,0.0,0.0,0.0,0.0,0.0,0.0,0.0,0.0,0.0,0.0,0.0,0.0,0.0,0.0,0.0,0.0,0.0,0.0,0.0,0.0,0.0,0.0,0.0,0.0,0.0,0.0,0.0,0.0,0.0,0.0,0.0,0.0,0.0,0.0,0.0,0.0,0.0,0.0,0.0,0.0,0.0,0.0,0.0,0.0,0.0,0.0,0.0,0.0,0.0,0.0,0.0,0.0,0.0,0.0,0.0,0.0,0.0,0.0,0.0,0.0,0.0,0.0,0.0,0.0,0.0,0.0,0.0,0.0,0.0,0.0,0.0,0.0,0.0,0.0,0.0,0.0,0.0,0.0,0.0,0.0,0.0,0.0,0.0,0.0,0.0,0.0,0.0,0.0,0.0,0.0,0.0,0.0,0.0,0.0,0.0,0.0,0.0,0.0,0.0,0.0,0.0,0.0,0.0,0.0,0.0,0.0,0.0,0.0,0.0,0.0,0.0,0.0,0.0,0.0,0.0,0.0,0.0,0.0,0.0,0.0,0.0,0.0,0.0,0.0,0.0,0.0,0.0,0.0,0.0,0.0,0.0,0.0,0.0,0.0,0.0,0.0,0.0,0.0,0.0,0.0,0.0,0.0,0.0,0.0,0.0,0.0,0.0,0.0,0.0,0.0,0.0,0.0,0.0,0.0,0.0,0.0,0.0,0.0,0.0,0.0,0.0,0.0,0.0,0.0,0.0,0.0,0.0,0.0,0.0,0.0,0.0,0.0,0.0,0.0,0.0,0.0,0.0,0.0,0.0,0.0,0.0,0.0,0.0,0.0,0.0,0.0,0.0,0.0,0.0,0.0,0.0,0.0,0.0,0.0,0.0,0.0,0.0,0.0,0.0,0.0,0.0,0.0,0.0,0.0,0.0,0.0,0.0,0.0,0.0,0.0,0.0,0.0,0.0,0.0,0.0,0.0,0.0,0.0,0.0,0.0,0.0,0.0,0.0,0.0,0.0,0.0,0.0,0.0,0.0,0.0,0.0,0.0,0.0,0.0,0.0,0.0,0.0,0.0,0.0,0.0,0.0,0.0,0.0,0.0,0.0,0.0,0.0,0.0,0.0,0.0,0.0,0.0,0.0,0.0,0.0,0.0,0.0,0.0,0.0,0.0,0.0,0.0,0.0,0.0,0.0,0.0,0.0,0.0,0.0,0.0,0.0,0.0,0.0,0.0,0.0,0.0,0.0,0.0,0.0,0.0,0.0,0.0,0.0,0.0,0.0,0.0,0.0,0.0,0.0,0.0,0.0,0.0,0.0,0.0,0.0,0.0,0.0,0.0,0.0,0.0,0.0,0.0,0.0,0.0,0.0,0.0,0.0,0.0,0.0,0.0,0.0,0.0,0.0,0.0,0.0,0.0,0.0,0.0,0.0,0.0,0.0,0.0,0.0,0.0,0.0,0.0,0.0,0.0,0.0,0.0,0.0,0.0,0.0,0.0,0.0,0.0,0.0,0.0,0.0,0.0,0.0,0.0,0.0,0.0,0.0,0.0,0.0,0.0,0.0,0.0,0.0,0.0,0.0,0.0,0.0,0.0,0.0,0.0,0.0,0.0,0.0,0.0,0.0,0.0,0.0,0.0,0.0,0.0,0.0,0.0,0.0,0.0,0.0,0.0,0.0,0.0,0.0,0.0,0.0,0.0,0.0,0.0,0.0,0.0,0.0,0.0,0.0,0.0,0.0,0.0,0.0,0.0,0.0,0.0,0.0,0.0,0.0,0.0,0.0,0.0,0.0,0.0,0.0,0.0,0.0,0.0,0.0,0.0,0.0,0.0,0.0,0.0,0.0,0.0,0.0,0.0,0.0,0.0,0.0,0.0,0.0,0.0,0.0,0.0,0.0,0.0,0.0,0.0,0.0,0.0,0.0,0.0,0.0,0.0,0.0,0.0,0.0,0.0,0.0,0.0,0.0,0.0,0.0,0.0,0.0,0.0,0.0,0.0,0.0,0.0,0.0,0.0,0.0,0.0,0.0,0.0,0.0,0.0,0.0,0.0,0.0,0.0,0.0,0.0,0.0,0.0,0.0,0.0,0.0,0.0,0.0,0.0,0.0,0.0,0.0,0.0,0.0,0.0,0.0,0.0,0.0,0.0,0.0,0.0,0.0,0.0,0.0,0.0,0.0,0.0,0.0,0.0,0.0,0.0,0.0,0.0,0.0,0.0,0.0,0.0,0.0,0.0,0.0,0.0,0.0,0.0,0.0,0.0,0.0,0.0,0.0,0.0,0.0,0.0,0.0,0.0,0.0,0.0,0.0,0.0,0.0,0.0,0.0,0.0,0.0,0.0,0.0,0.0,0.0,0.0,0.0,0.0,0.0,0.0,0.0,0.0,0.0,0.0,0.0,0.0,0.0,0.0,0.0,0.0,0.0,0.0,0.0,0.0,0.0,0.0,0.0,0.0,0.0,0.0,0.0,0.0,0.0,0.0,0.0,0.0,0.0,0.0,0.0,0.0,0.0,0.0,0.0,0.0,0.0,0.0,0.0,0.0,0.0,0.0,0.0,0.0,0.0,0.0,0.0,0.0,0.0,0.0,0.0,0.0,0.0,0.0,0.0,0.0,0.0,0.0,0.0,0.0,0.0,0.0,0.0,0.0,0.0,0.0,0.0,0.0,0.0,0.0,0.0,0.0,0.0,0.0,0.0,0.0,0.0,0.0,0.0,0.0,0.0,0.0,0.0,0.0,0.0,0.0,0.0,0.0,0.0,0.0,0.0,0.0,0.0,0.0,0.0,0.0,0.0,0.0,0.0,0.0,0.0,0.0,0.0,0.0,0.0,0.0,0.0,0.0,0.0,0.0,0.0,0.0,0.0,0.0,0.0,0.0,0.0,0.0,0.0,0.0,0.0,0.0,0.0,0.0,0.0,0.0,0.0,0.0,0.0,0.0,0.0,0.0,0.0,0.0,0.0,0.0,0.0,0.0,0.0,0.0,0.0,0.0,0.0,0.0,0.0,0.0,0.0,0.0,0.0,0.0,0.0,0.0,0.0,0.0,0.0,0.0,0.0,0.0,0.0,0.0,0.0,0.0,0.0,0.0,0.0,0.0,0.0,0.0,0.0,0.0,0.0,0.0,0.0,0.0,0.0,0.0,0.0,0.0,0.0,0.0,0.0,0.0,0.0,0.0,0.0,0.0,0.0,0.0,0.0,0.0,0.0,0.0,0.0,0.0,0.0,0.0,0.0,0.0,0.0,0.0,0.0,0.0,0.0,0.0,0.0,0.0,0.0,0.0,0.0,0.0,0.0,0.0,0.0,0.0,0.0,0.0,0.0,1.1615,0.0,0.0,0.0,0.0,0.0,0.0,0.0,0.0,0.0,0.0,0.0,0.0,0.0,0.0,0.0,0.0,0.0,0.0,0.0,0.0,0.0,0.0,0.0,0.0,0.0,0.0,0.0,0.0,0.0,0.0,0.0,0.0,0.0,0.0,0.0,0.0,0.0,0.0,0.0,0.0,0.0,0.0,0.0,0.0,0.0,0.0,0.0,0.0,0.0,0.0,0.0,0.0,0.0,0.0,0.0,0.0,0.0,0.0,0.0,0.0,0.0,0.0,0.0,0.0,0.0,0.0,0.0,0.0,0.0,0.0,0.0,0.0,0.0,0.0,0.0,0.0,0.0,0.0,0.0,0.0,0.0,0.0,0.0,0.0,0.0,0.0,0.0,0.0,0.0,0.0,0.0,0.0,0.0,0.0,0.0,0.0,0.0,0.0,0.0,0.0,0.0,0.0,0.0,0.0,0.0,0.0,0.0,0.0,0.0,0.0,1.4117,1.3904,1.2926,1.2206,1.1831,0.0,0.0,0.0,0.0,0.0,0.0,0.0,0.0,0.0,0.0,0.0,0.0,0.0,0.0,0.0,0.0,0.0,0.0,0.0,0.0,0.0,0.0,0.0,0.0,0.0,0.0,0.0,0.0,0.0,0.0,0.0,0.0,0.0,0.0,0.0,0.0,0.0,0.0,0.0,0.0,0.0,0.0,0.0,0.0,0.0,0.0,0.0,0.0,0.0,0.0,0.0,0.0,0.0,0.0,0.0,0.0,0.0,0.0,0.0,0.0,0.0,0.0,0.0,0.0,0.0,0.0,0.0,0.0,0.0,0.0,0.0,0.0,0.0,0.0,0.0,0.0,0.0,0.0,0.0,0.0,0.0,0.0,0.0,0.0,0.0,0.0,0.0,0.0,0.0,0.0,0.0,0.0,0.0,0.0,0.0,0.0,0.0,0.0,0.0,0.0,0.0,0.0,0.0,0.0,0.0,0.0,0.0,0.0,0.0,0.0,0.0,0.0,1.3435,1.2894,1.25,0.0,0.0,0.0,0.0,0.0,0.0,0.0,0.0,0.0,0.0,0.0,0.0,0.0,0.0,0.0,0.0,0.0,0.0,0.0,0.0,0.0,0.0,0.0,0.0,0.0,0.0,0.0,0.0,0.0,0.0,0.0,0.0,0.0,0.0,0.0,0.0,0.0,0.0,0.0,0.0,0.0,0.0,0.0,0.0,0.0,0.0,0.0,0.0,0.0,0.0,0.0,0.0,0.0,0.0,0.0,0.0,0.0,0.0,0.0,0.0,0.0,0.0,0.0,0.0,0.0,0.0,0.0,0.0,0.0,0.0,0.0,0.0,0.0,0.0,0.0,0.0,0.0,0.0,0.0,0.0,0.0,0.0,0.0,0.0,0.0,0.0,0.0,0.0,0.0,0.0,0.0,0.0,0.0,0.0,0.0,0.0,0.0,0.0,0.0,0.0,0.0,0.0,0.0,0.0,0.0,0.0,0.0,0.0,0.0,0.0,1.4569,1.472,1.5012,0.0,1.3998,0.0,0.0,0.0,0.0,0.0,0.0,0.0,0.0,0.0,0.0,0.0,0.0,0.0,0.0,0.0,0.0,0.0,0.0,0.0,0.0,0.0,0.0,0.0,0.0,0.0,0.0,0.0,0.0,0.0,0.0,0.0,0.0,0.0,0.0,0.0,0.0,0.0,0.0,0.0,0.0,0.0,0.0,0.0,0.0,0.0,0.0,0.0,0.0,0.0,0.0,0.0,0.0,0.0,0.0,0.0,0.0,0.0,0.0,0.0,0.0,0.0,0.0,0.0,0.0,0.0,0.0,0.0,0.0,0.0,0.0,0.0,0.0,0.0,0.0,0.0,0.0,0.0,0.0,0.0,0.0,0.0,0.0,0.0,0.0,0.0,0.0,0.0,0.0,0.0,0.0,0.0,0.0,0.0,0.0,0.0,0.0,0.0,0.0,0.0,0.0,0.0,0.0,0.0,0.0,0.0,0.0,0.0,0.0,0.0,0.0,0.0,1.5566,1.4996,1.4414,0.0,0.0,0.0,0.0,0.0,0.0,0.0,0.0,0.0,0.0,0.0,0.0,0.0,0.0,0.0,0.0,0.0,0.0,0.0,0.0,0.0,0.0,0.0,0.0,0.0,0.0,0.0,0.0,0.0,0.0,0.0,0.0,0.0,0.0,0.0,0.0,0.0,0.0,0.0,0.0,0.0,0.0,0.0,0.0,0.0,0.0,0.0,0.0,0.0,0.0,0.0,0.0,0.0,0.0,0.0,0.0,0.0,0.0,0.0,0.0,0.0,0.0,0.0,0.0,0.0,0.0,0.0,0.0,0.0,0.0,0.0,0.0,0.0,0.0,0.0,0.0,0.0,0.0,0.0,0.0,0.0,0.0,0.0,0.0,0.0,0.0,0.0,0.0,0.0,0.0,0.0,0.0,0.0,0.0,0.0,0.0,0.0,0.0,0.0,0.0,0.0,0.0,0.0,0.0,0.0,0.0,0.0,0.0,0.0,0.0,1.6531,0.0,1.6217,1.5194,1.4381,1.3862,0.0,0.0,0.0,0.0,0.0,0.0,0.0,0.0,0.0,0.0,0.0,0.0,0.0,0.0,0.0,0.0,0.0,0.0,0.0,0.0,0.0,0.0,0.0,0.0,0.0,0.0,0.0,0.0,0.0,0.0,0.0,0.0,0.0,0.0,0.0,0.0,0.0,0.0,0.0,0.0,0.0,0.0,0.0,0.0,0.0,0.0,0.0,0.0,0.0,0.0,0.0,0.0,0.0,0.0,0.0,0.0,0.0,0.0,0.0,0.0,0.0,0.0,0.0,0.0,0.0,0.0,0.0,0.0,0.0,0.0,0.0,0.0,0.0,0.0,0.0,0.0,0.0,0.0,0.0,0.0,0.0,0.0,0.0,0.0,0.0,0.0,0.0,0.0,0.0,0.0,0.0,0.0,0.0,0.0,0.0,0.0,0.0,0.0,0.0,0.0,0.0,0.0,0.0,0.0,0.0,0.0,0.0,0.0,0.0,1.7803,1.7059,1.6695,1.6192,1.5374,0.0,0.0,0.0,0.0,0.0,0.0,0.0,0.0,0.0,0.0,0.0,0.0,0.0,0.0,0.0,0.0,0.0,0.0,0.0,0.0,0.0,0.0,0.0,0.0,0.0,0.0,0.0,0.0,0.0,0.0,0.0,0.0,0.0,0.0,0.0,0.0,0.0,0.0,0.0,0.0,0.0,0.0,0.0,0.0,0.0,0.0,0.0,0.0,0.0,0.0,0.0,0.0,0.0,0.0,0.0,0.0,0.0,0.0,0.0,0.0,0.0,0.0,0.0,0.0,0.0,0.0,0.0,0.0,0.0,0.0,0.0,0.0,0.0,0.0,0.0,0.0,0.0,0.0,0.0,0.0,0.0,0.0,0.0,0.0,0.0,0.0,0.0,0.0,0.0,0.0,0.0,0.0,0.0,0.0,0.0,0.0,0.0,0.0,0.0,0.0,0.0,0.0,0.0,0.0,0.0,0.0,0.0,0.0,0.0,1.7344,1.7073,1.7271,1.7894,1.6368,1.5538,0.0,0.0,0.0,0.0,0.0,0.0,0.0,0.0,0.0,0.0,0.0,0.0,0.0,0.0,0.0,0.0,0.0,0.0,0.0,0.0,0.0,0.0,0.0,0.0,0.0,0.0,0.0,0.0,0.0,0.0,0.0,0.0,0.0,0.0,0.0,0.0,0.0,0.0,0.0,0.0,0.0,0.0,0.0,0.0,0.0,0.0,0.0,0.0,0.0,0.0,0.0,0.0,0.0,0.0,0.0,0.0,0.0,0.0,0.0,0.0,0.0,0.0,0.0,0.0,0.0,0.0,0.0,0.0,0.0,0.0,0.0,0.0,0.0,0.0,0.0,0.0,0.0,0.0,0.0,0.0,0.0,0.0,0.0,0.0,0.0,0.0,0.0,0.0,0.0,0.0,0.0,0.0,0.0,0.0,0.0,0.0,0.0,0.0,0.0,0.0,0.0,0.0,0.0,0.0,0.0,0.0,0.0,0.0,0.0,1.7166,0.0,1.758,0.0,1.6376,1.548,0.0,0.0,0.0,0.0,0.0,0.0,0.0,0.0,0.0,0.0,0.0,0.0,0.0,0.0,0.0,0.0,0.0,0.0,0.0,0.0,0.0,0.0,0.0,0.0,0.0,0.0,0.0,0.0,0.0,0.0,0.0,0.0,0.0,0.0,0.0,0.0,0.0,0.0,0.0,0.0,0.0,0.0,0.0,0.0,0.0,0.0,0.0,0.0,0.0,0.0,0.0,0.0,0.0,0.0,0.0,0.0,0.0,0.0,0.0,0.0,0.0,0.0,0.0,0.0,0.0,0.0,0.0,0.0,0.0,0.0,0.0,0.0,0.0,0.0,0.0,0.0,0.0,0.0,0.0,0.0,0.0,0.0,0.0,0.0,0.0,0.0,0.0,0.0,0.0,0.0,0.0,0.0,0.0,0.0,0.0,0.0,0.0,0.0,0.0,0.0,0.0,0.0,0.0,0.0,0.0,0.0,0.0,0.0,1.7789,1.8699,1.8668,1.8052,1.6786,1.6286,1.526,0.0,0.0,0.0,0.0,0.0,0.0,0.0,0.0,0.0,0.0,0.0,0.0,0.0,0.0,0.0,0.0,0.0,0.0,0.0,0.0,0.0,0.0,0.0,0.0,0.0,0.0,0.0,0.0,0.0,0.0,0.0,0.0,0.0,0.0,0.0,0.0,0.0,0.0,0.0,0.0,0.0,0.0,0.0,0.0,0.0,0.0,0.0,0.0,0.0,0.0,0.0,0.0,0.0,0.0,0.0,0.0,0.0,0.0,0.0,0.0,0.0,0.0,0.0,0.0,0.0,0.0,0.0,0.0,0.0,0.0,0.0,0.0,0.0,0.0,0.0,0.0,0.0,0.0,0.0,0.0,0.0,0.0,0.0,0.0,0.0,0.0,0.0,0.0,0.0,0.0,0.0,0.0,0.0,0.0,0.0,0.0,0.0,0.0,0.0,0.0,0.0,0.0,0.0,0.0,0.0,0.0,0.0,0.0,0.0,1.8137,1.8375,1.8356,1.806,1.6772,1.5902,0.0,0.0,0.0,0.0,0.0,0.0,0.0,0.0,0.0,0.0,0.0,0.0,0.0,0.0,0.0,0.0,0.0,0.0,0.0,0.0,0.0,0.0,0.0,0.0,0.0,0.0,0.0,0.0,0.0,0.0,0.0,0.0,0.0,0.0,0.0,0.0,0.0,0.0,0.0,0.0,0.0,0.0,0.0,0.0,0.0,0.0,0.0,0.0,0.0,0.0,0.0,0.0,0.0,0.0,0.0,0.0,0.0,0.0,0.0,0.0,0.0,0.0,0.0,0.0,0.0,0.0,0.0,0.0,0.0,0.0,0.0,0.0,0.0,0.0,0.0,0.0,0.0,0.0,0.0,0.0,0.0,0.0,0.0,0.0,0.0,0.0,0.0,0.0,0.0,0.0,0.0,0.0,0.0,0.0,0.0,0.0,0.0,0.0,0.0,0.0,0.0,0.0,0.0,0.0,0.0,0.0,0.0,0.0,0.0,1.863,1.8936,1.8973,1.8719,1.7258,1.6504,1.6528,0.0,0.0,0.0,0.0,0.0,0.0,0.0,0.0,0.0,0.0,0.0,0.0,0.0,0.0,0.0,0.0,0.0,0.0,0.0,0.0,0.0,0.0,0.0,0.0,0.0,0.0,0.0,0.0,0.0,0.0,0.0,0.0,0.0,0.0,0.0,0.0,0.0,0.0,0.0,0.0,0.0,0.0,0.0,0.0,0.0,0.0,0.0,0.0,0.0,0.0,0.0,0.0,0.0,0.0,0.0,0.0,0.0,0.0,0.0,0.0,0.0,0.0,0.0,0.0,0.0,0.0,0.0,0.0,0.0,0.0,0.0,0.0,0.0,0.0,0.0,0.0,0.0,0.0,0.0,0.0,0.0,0.0,0.0,0.0,0.0,0.0,0.0,0.0,0.0,0.0,0.0,0.0,0.0,0.0,0.0,0.0,0.0,0.0,0.0,0.0,0.0,0.0,0.0,0.0,0.0,0.0,0.0,0.0,1.9906,2.0139,1.9783,1.8794,1.7698,1.7014,0.0,0.0,0.0,0.0,0.0,0.0,0.0,0.0,0.0,0.0,0.0,0.0,0.0,0.0,0.0,0.0,0.0,0.0,0.0,0.0,0.0,0.0,0.0,0.0,0.0,0.0,0.0,0.0,0.0,0.0,0.0,0.0,0.0,0.0,0.0,0.0,0.0,0.0,0.0,0.0,0.0,0.0,0.0,0.0,0.0,0.0,0.0,0.0,0.0,0.0,0.0,0.0,0.0,0.0,0.0,0.0,0.0,0.0,0.0,0.0,0.0,0.0,0.0,0.0,0.0,0.0,0.0,0.0,0.0,0.0,0.0,0.0,0.0,0.0,0.0,0.0,0.0,0.0,0.0,0.0,0.0,0.0,0.0,0.0,0.0,0.0,0.0,0.0,0.0,0.0,0.0,0.0,0.0,0.0,0.0,0.0,0.0,0.0,0.0,0.0,0.0,0.0,0.0,0.0,0.0,0.0,0.0,0.0,0.0,1.9874,1.987,1.9728,1.9423,1.82,1.7576,0.0,0.0,0.0,0.0,0.0,0.0,0.0,0.0,0.0,0.0,0.0,0.0,0.0,0.0,0.0,0.0,0.0,0.0,0.0,0.0,0.0,0.0,0.0,0.0,0.0,0.0,0.0,0.0,0.0,0.0,0.0,0.0,0.0,0.0,0.0,0.0,0.0,0.0,0.0,0.0,0.0,0.0,0.0,0.0,0.0,0.0,0.0,0.0,0.0,0.0,0.0,0.0,0.0,0.0,0.0,0.0,0.0,0.0,0.0,0.0,0.0,0.0,0.0,0.0,0.0,0.0,0.0,0.0,0.0,0.0,0.0,0.0,0.0,0.0,0.0,0.0,0.0,0.0,0.0,0.0,0.0,0.0,0.0,0.0,0.0,0.0,0.0,0.0,0.0,0.0,0.0,0.0,0.0,0.0,0.0,0.0,0.0,0.0,0.0,0.0,0.0,0.0,0.0,0.0,0.0,0.0,0.0,0.0,1.9864,2.0352,1.9922,1.9723,1.9708,1.8859,1.8423,0.0,0.0,0.0,0.0,0.0,0.0,0.0,0.0,0.0,0.0,0.0,0.0,0.0,0.0,0.0,0.0,0.0,0.0,0.0,0.0,0.0,0.0,0.0,0.0,0.0,0.0,0.0,0.0,0.0,0.0,0.0,0.0,0.0,0.0,0.0,0.0,0.0,0.0,0.0,0.0,0.0,0.0,0.0,0.0,0.0,0.0,0.0,0.0,0.0,0.0,0.0,0.0,0.0,0.0,0.0,0.0,0.0,0.0,0.0,0.0,0.0,0.0,0.0,0.0,0.0,0.0,0.0,0.0,0.0,0.0,0.0,0.0,0.0,0.0,0.0,0.0,0.0,0.0,0.0,0.0,0.0,0.0,0.0,0.0,0.0,0.0,0.0,0.0,0.0,0.0,0.0,0.0,0.0,0.0,0.0,0.0,0.0,0.0,0.0,0.0,0.0,0.0,0.0,0.0,0.0,0.0,0.0,0.0,2.0542,2.0991,2.0139,1.9723,1.9711,1.9526,1.9325,0.0,0.0,0.0,0.0,0.0,0.0,0.0,0.0,0.0,0.0,0.0,0.0,0.0,0.0,0.0,0.0,0.0,0.0,0.0,0.0,0.0,0.0,0.0,0.0,0.0,0.0,0.0,0.0,0.0,0.0,0.0,0.0,0.0,0.0,0.0,0.0,0.0,0.0,0.0,0.0,0.0,0.0,0.0,0.0,0.0,0.0,0.0,0.0,0.0,0.0,0.0,0.0,0.0,0.0,0.0,0.0,0.0,0.0,0.0,0.0,0.0,0.0,0.0,0.0,0.0,0.0,0.0,0.0,0.0,0.0,0.0,0.0,0.0,0.0,0.0,0.0,0.0,0.0,0.0,0.0,0.0,0.0,0.0,0.0,0.0,0.0,0.0,0.0,0.0,0.0,0.0,0.0,0.0,0.0,0.0,0.0,0.0,0.0,0.0,0.0,0.0,0.0,0.0,0.0,0.0,0.0,0.0,0.0,2.0526,2.0943,2.0139,1.9723,1.9693,1.9493,1.9416,0.0,0.0,0.0,0.0,0.0,0.0,0.0,0.0,0.0,0.0,0.0,0.0,0.0,0.0,0.0,0.0,0.0,0.0,0.0,0.0,0.0,0.0,0.0,0.0,0.0,0.0,0.0,0.0,0.0,0.0,0.0,0.0,0.0,0.0,0.0,0.0,0.0,0.0,0.0,0.0,0.0,0.0,0.0,0.0,0.0,0.0,0.0,0.0,1.6021,0.0,0.0,0.0,0.0,0.0,0.0,0.0,0.0,0.0,0.0,0.0,0.0,0.0,0.0,0.0,0.0,0.0,0.0,0.0,0.0,0.0,0.0,0.0,0.0,0.0,0.0,0.0,0.0,0.0,0.0,0.0,0.0,0.0,0.0,0.0,0.0,0.0,0.0,0.0,0.0,0.0,0.0,0.0,0.0,0.0,0.0,0.0,0.0,0.0,0.0,0.0,0.0,0.0,0.0,0.0,0.0,0.0,0.0,0.0,2.0746,2.0959,2.0139,1.9723,1.9711,1.9987,1.9947,0.0,0.0,0.0,0.0,0.0,0.0,0.0,0.0,0.0,0.0,0.0,0.0,0.0,0.0,0.0,0.0,0.0,0.0,0.0,0.0,0.0,0.0,0.0,0.0,0.0,0.0,0.0,0.0,0.0,0.0,0.0,0.0,0.0,0.0,0.0,0.0,0.0,0.0,0.0,0.0,0.0,0.0,0.0,0.0,0.0,0.0,0.0,0.0,0.0,0.0,0.0,0.0,0.0,0.0,0.0,0.0,0.0,0.0,0.0,0.0,0.0,0.0,0.0,0.0,0.0,0.0,0.0,0.0,0.0,0.0,0.0,0.0,0.0,0.0,0.0,0.0,0.0,0.0,0.0,0.0,0.0,0.0,0.0,0.0,0.0,0.0,0.0,0.0,0.0,0.0,0.0,0.0,0.0,0.0,0.0,0.0,0.0,0.0,0.0,0.0,0.0,0.0,0.0,0.0,0.0,0.0,0.0,2.0941,2.0942,2.0975,2.0208,1.9764,1.9726,2.0532,2.0529,1.9553,0.0,0.0,0.0,0.0,0.0,0.0,0.0,0.0,0.0,0.0,0.0,0.0,0.0,0.0,0.0,0.0,0.0,0.0,0.0,0.0,0.0,0.0,0.0,0.0,0.0,0.0,0.0,0.0,0.0,0.0,0.0,0.0,0.0,0.0,0.0,0.0,0.0,0.0,1.5935,1.7514,0.0,0.0,0.0,0.0,0.0,0.0,0.0,0.0,1.7684,0.0,0.0,0.0,0.0,0.0,0.0,0.0,0.0,0.0,0.0,0.0,0.0,0.0,0.0,0.0,0.0,0.0,0.0,0.0,0.0,0.0,0.0,0.0,0.0,0.0,0.0,0.0,0.0,0.0,0.0,0.0,0.0,0.0,0.0,0.0,0.0,0.0,0.0,0.0,0.0,0.0,0.0,0.0,0.0,0.0,0.0,0.0,0.0,0.0,0.0,0.0,0.0,0.0,0.0,0.0,0.0,2.1776,2.0999,2.0704,2.1007,2.0466,2.0035,1.9747,2.0532,2.0546,1.9579,0.0,0.0,0.0,0.0,0.0,0.0,0.0,0.0,0.0,0.0,0.0,0.0,0.0,0.0,0.0,0.0,0.0,0.0,0.0,0.0,0.0,0.0,0.0,0.0,0.0,0.0,0.0,0.0,0.0,0.0,0.0,0.0,0.0,0.0,0.0,0.0,0.0,0.0,0.0,1.7747,1.8565,0.0,0.0,0.0,0.0,0.0,0.0,0.0,0.0,1.9156,0.0,0.0,0.0,0.0,0.0,0.0,0.0,0.0,0.0,0.0,0.0,0.0,0.0,0.0,0.0,0.0,0.0,0.0,0.0,0.0,0.0,0.0,0.0,0.0,0.0,0.0,0.0,0.0,0.0,0.0,0.0,0.0,0.0,0.0,0.0,0.0,0.0,0.0,0.0,0.0,0.0,0.0,0.0,0.0,0.0,0.0,0.0,0.0,0.0,0.0,0.0,0.0,0.0,0.0,0.0,2.1355,2.1356,2.1336,2.1306,2.0894,2.0582,2.0381,2.0747,2.0614,0.0,0.0,0.0,0.0,0.0,0.0,0.0,0.0,0.0,0.0,0.0,0.0,0.0,0.0,0.0,0.0,0.0,0.0,0.0,0.0,0.0,0.0,0.0,0.0,0.0,0.0,0.0,0.0,0.0,0.0,0.0,0.0,0.0,0.0,0.0,0.0,0.0,0.0,0.0,0.0,1.8771,1.9482,1.9676,0.0,0.0,0.0,0.0,0.0,0.0,1.9584,1.968,0.0,0.0,0.0,0.0,0.0,0.0,0.0,0.0,0.0,0.0,0.0,0.0,0.0,0.0,0.0,0.0,0.0,0.0,0.0,0.0,0.0,0.0,0.0,0.0,0.0,0.0,0.0,0.0,0.0,0.0,0.0,0.0,0.0,0.0,0.0,0.0,0.0,0.0,0.0,0.0,0.0,0.0,0.0,0.0,0.0,0.0,0.0,0.0,0.0,0.0,0.0,0.0,0.0,0.0,0.0,2.0972,2.1712,2.1958,2.1683,2.1398,2.1197,2.1118,2.1114,2.0866,0.0,0.0,0.0,0.0,0.0,0.0,0.0,0.0,0.0,0.0,0.0,0.0,0.0,0.0,0.0,0.0,0.0,0.0,0.0,0.0,0.0,0.0,0.0,0.0,0.0,0.0,0.0,0.0,0.0,0.0,0.0,0.0,0.0,0.0,0.0,0.0,0.0,0.0,0.0,0.0,0.0,2.0454,2.0135,1.984,0.0,0.0,0.0,0.0,2.0854,2.0449,0.0,0.0,0.0,0.0,0.0,0.0,0.0,0.0,0.0,0.0,0.0,0.0,0.0,0.0,0.0,0.0,0.0,0.0,0.0,0.0,0.0,0.0,0.0,0.0,0.0,0.0,0.0,0.0,0.0,0.0,0.0,0.0,0.0,0.0,0.0,0.0,0.0,0.0,0.0,0.0,0.0,0.0,0.0,0.0,0.0,0.0,0.0,0.0,0.0,0.0,0.0,0.0,0.0,0.0,0.0,0.0,2.1407,2.1857,2.2071,2.2032,2.1998,2.1792,2.1468,2.1783,2.1533,0.0,0.0,0.0,0.0,0.0,0.0,0.0,0.0,0.0,0.0,0.0,0.0,0.0,0.0,0.0,0.0,0.0,0.0,0.0,0.0,0.0,0.0,0.0,0.0,0.0,0.0,0.0,0.0,0.0,0.0,0.0,0.0,0.0,0.0,0.0,0.0,0.0,0.0,0.0,0.0,0.0,2.0918,2.1106,1.9972,1.9808,0.0,0.0,2.2627,2.2462,2.2566,0.0,0.0,0.0,0.0,0.0,0.0,0.0,0.0,0.0,0.0,0.0,0.0,0.0,0.0,0.0,0.0,0.0,0.0,0.0,0.0,0.0,0.0,0.0,0.0,0.0,0.0,0.0,0.0,0.0,0.0,0.0,0.0,0.0,0.0,0.0,0.0,0.0,0.0,0.0,0.0,0.0,0.0,0.0,0.0,0.0,0.0,0.0,0.0,0.0,0.0,0.0,0.0,0.0,0.0,0.0,2.154,2.1542,2.2606,2.3037,2.2732,2.2724,2.2698,2.2626,2.2083,2.1375,0.0,0.0,0.0,0.0,0.0,0.0,0.0,0.0,0.0,0.0,0.0,0.0,0.0,0.0,0.0,0.0,0.0,0.0,0.0,0.0,0.0,0.0,0.0,0.0,0.0,0.0,0.0,0.0,0.0,0.0,0.0,0.0,0.0,0.0,0.0,0.0,0.0,0.0,0.0,0.0,0.0,0.0,2.1434,2.1388,0.0,0.0,0.0,2.3255,2.2398,0.0,0.0,0.0,0.0,0.0,0.0,0.0,0.0,0.0,0.0,0.0,0.0,0.0,0.0,0.0,0.0,0.0,0.0,0.0,0.0,0.0,0.0,0.0,0.0,0.0,0.0,0.0,0.0,0.0,0.0,0.0,0.0,0.0,0.0,0.0,0.0,0.0,0.0,0.0,0.0,0.0,0.0,0.0,0.0,0.0,0.0,0.0,0.0,0.0,0.0,0.0,0.0,0.0,0.0,0.0,0.0,0.0,2.1807,2.337,2.3962,2.3491,2.3469,2.3559,2.3674,2.252,0.0,0.0,0.0,0.0,0.0,0.0,0.0,0.0,0.0,0.0,0.0,0.0,0.0,0.0,0.0,0.0,0.0,0.0,0.0,0.0,0.0,0.0,0.0,0.0,0.0,0.0,0.0,1.2446,0.0,0.0,0.0,0.0,0.0,0.0,0.0,0.0,0.0,0.0,0.0,0.0,0.0,0.0,2.2549,2.2108,2.2713,2.3125,0.0,0.0,2.3443,2.2438,2.1875,2.1662,0.0,0.0,0.0,0.0,0.0,0.0,0.0,0.0,0.0,0.0,0.0,0.0,0.0,0.0,0.0,0.0,0.0,0.0,0.0,0.0,0.0,0.0,0.0,0.0,0.0,0.0,0.0,0.0,0.0,0.0,0.0,0.0,0.0,0.0,0.0,0.0,0.0,0.0,0.0,0.0,0.0,0.0,0.0,0.0,0.0,0.0,0.0,0.0,0.0,0.0,0.0,0.0,0.0,0.0,0.0,2.2575,2.3994,2.4568,2.4256,2.4221,2.4229,2.4228,2.3366,2.2331,0.0,0.0,0.0,0.0,0.0,0.0,0.0,0.0,0.0,0.0,0.0,0.0,0.0,0.0,0.0,0.0,0.0,0.0,0.0,0.0,0.0,0.0,0.0,0.0,0.0,0.0,0.0,0.0,0.0,0.0,0.0,0.0,0.0,0.0,0.0,0.0,0.0,0.0,0.0,0.0,0.0,2.3818,2.3593,2.3366,2.3508,0.0,0.0,2.3265,2.3297,2.3973,2.3827,2.1865,0.0,0.0,0.0,0.0,0.0,0.0,0.0,0.0,0.0,0.0,0.0,0.0,0.0,0.0,0.0,0.0,0.0,0.0,0.0,0.0,0.0,0.0,0.0,0.0,0.0,0.0,0.0,0.0,0.0,0.0,0.0,0.0,0.0,0.0,0.0,0.0,0.0,0.0,0.0,0.0,0.0,0.0,0.0,0.0,0.0,0.0,0.0,0.0,0.0,0.0,0.0,0.0,0.0,2.2753,2.2621,2.4207,2.4927,2.4688,2.4682,2.4724,2.4864,2.4049,2.2954,0.0,0.0,0.0,0.0,0.0,0.0,0.0,0.0,0.0,0.0,0.0,0.0,0.0,0.0,0.0,0.0,0.0,0.0,0.0,0.0,0.0,0.0,0.0,0.0,0.0,0.0,0.0,0.0,1.4915,1.5292,1.5826,0.0,0.0,0.0,0.0,0.0,0.0,0.0,0.0,0.0,0.0,2.4045,2.3749,2.3428,0.0,0.0,2.4061,2.3814,2.3777,2.3753,2.3492,2.2736,2.2572,0.0,0.0,0.0,0.0,0.0,0.0,0.0,0.0,0.0,0.0,0.0,0.0,0.0,0.0,0.0,0.0,0.0,0.0,0.0,0.0,0.0,0.0,0.0,0.0,0.0,0.0,0.0,0.0,0.0,0.0,0.0,0.0,0.0,0.0,0.0,0.0,0.0,0.0,0.0,0.0,0.0,0.0,0.0,0.0,0.0,0.0,0.0,0.0,0.0,0.0,0.0,0.0,2.306,2.3108,2.4533,2.521,2.5043,2.5033,2.5095,2.5184,2.4471,2.3327,0.0,0.0,0.0,0.0,0.0,0.0,0.0,0.0,0.0,0.0,0.0,0.0,0.0,0.0,0.0,0.0,0.0,0.0,0.0,0.0,0.0,0.0,0.0,0.0,0.0,0.0,0.0,0.0,1.6536,1.689,1.7846,0.0,0.0,0.0,0.0,0.0,0.0,0.0,0.0,0.0,0.0,2.4295,2.3893,2.3659,2.3665,2.4135,2.4292,2.4358,2.4284,2.3869,2.3519,2.3361,0.0,0.0,0.0,0.0,0.0,0.0,0.0,0.0,0.0,0.0,0.0,0.0,0.0,0.0,0.0,0.0,0.0,0.0,0.0,0.0,0.0,0.0,0.0,0.0,0.0,0.0,0.0,0.0,0.0,0.0,1.9597,0.0,0.0,0.0,0.0,0.0,0.0,0.0,0.0,0.0,0.0,0.0,0.0,0.0,0.0,0.0,0.0,0.0,0.0,0.0,0.0,0.0,0.0,2.3476,2.4252,2.5053,2.5464,2.5404,2.5328,2.5293,2.5273,2.4582,2.3409,2.1738,0.0,0.0,0.0,0.0,0.0,0.0,0.0,0.0,0.0,0.0,0.0,0.0,0.0,0.0,0.0,0.0,0.0,0.0,0.0,0.0,0.0,0.0,0.0,0.0,0.0,0.0,1.7578,1.7511,1.785,0.0,0.0,0.0,0.0,0.0,0.0,0.0,0.0,0.0,0.0,2.4269,2.4647,2.4238,2.4171,2.4163,2.4209,2.4523,2.482,2.4854,2.4757,2.439,0.0,0.0,0.0,0.0,0.0,0.0,0.0,0.0,0.0,0.0,0.0,0.0,0.0,0.0,0.0,0.0,0.0,0.0,0.0,0.0,0.0,0.0,0.0,0.0,0.0,0.0,0.0,2.179,2.0842,0.0,0.0,0.0,0.0,0.0,0.0,0.0,0.0,0.0,0.0,0.0,1.7444,1.7297,0.0,0.0,0.0,0.0,0.0,0.0,0.0,0.0,0.0,0.0,0.0,0.0,2.3775,2.413,2.5081,2.5544,2.5545,2.55,2.547,2.5428,2.5183,2.4009,2.1777,0.0,0.0,0.0,0.0,0.0,0.0,0.0,0.0,0.0,0.0,0.0,0.0,0.0,0.0,0.0,0.0,0.0,0.0,0.0,0.0,0.0,0.0,0.0,0.0,0.0,1.9271,0.0,0.0,0.0,0.0,0.0,0.0,0.0,0.0,0.0,0.0,0.0,2.4104,2.4362,2.4507,2.4561,2.4428,2.43,2.4296,0.0,0.0,0.0,0.0,0.0,0.0,0.0,0.0,0.0,0.0,0.0,0.0,0.0,0.0,2.3131,2.2167,2.1813,2.1784,2.2111,0.0,0.0,0.0,0.0,0.0,0.0,0.0,0.0,0.0,0.0,0.0,0.0,0.0,0.0,2.3129,0.0,2.1916,0.0,0.0,0.0,0.0,0.0,0.0,0.0,0.0,2.1859,2.0785,1.9264,1.8911,1.9121,0.0,2.0441,2.1188,0.0,0.0,0.0,0.0,0.0,0.0,0.0,0.0,2.4105,2.4457,2.5194,2.5566,2.5603,2.5556,2.55,2.5457,2.5206,2.4259,2.265,2.0977,1.9471,0.0,0.0,0.0,0.0,0.0,0.0,0.0,0.0,0.0,0.0,0.0,0.0,0.0,0.0,0.0,0.0,0.0,0.0,0.0,0.0,0.0,0.0,0.0,2.0242,0.0,0.0,0.0,0.0,0.0,0.0,0.0,0.0,0.0,2.4123,2.4231,2.4514,2.5046,2.4828,2.4661,2.4895,0.0,0.0,0.0,0.0,0.0,0.0,0.0,2.5346,2.5442,2.5383,2.5281,2.5247,2.4888,2.4671,2.4865,0.0,0.0,2.3296,2.2891,2.2836,2.3093,2.3568,2.3863,2.3692,2.4099,2.4355,0.0,0.0,0.0,0.0,0.0,0.0,0.0,0.0,2.5476,2.4923,0.0,2.3198,0.0,0.0,0.0,0.0,0.0,2.4468,0.0,0.0,2.4327,2.321,2.2207,2.0854,2.0489,2.1056,2.1985,2.3048,2.4126,2.3458,0.0,0.0,0.0,0.0,0.0,0.0,2.4423,2.5226,2.5412,2.5526,2.5605,2.5476,2.5392,2.5385,2.4633,2.4224,2.4213,2.2607,2.134,2.0462,1.957,0.0,0.0,0.0,0.0,0.0,0.0,0.0,0.0,0.0,0.0,0.0,0.0,0.0,0.0,0.0,0.0,0.0,0.0,0.0,0.0,2.0528,0.0,0.0,0.0,0.0,0.0,0.0,0.0,0.0,0.0,0.0,2.4057,2.4599,2.525,2.5645,0.0,0.0,0.0,0.0,2.4932,2.4984,2.5152,2.5329,2.5442,2.5362,2.5308,2.5377,0.0,0.0,2.5312,2.541,2.5449,2.5332,2.5391,2.5436,2.5232,2.4955,2.4852,2.5001,2.5029,2.5145,2.5252,2.5205,2.5295,2.8777,0.0,0.0,0.0,0.0,2.759,2.7407,2.7186,2.7236,2.6742,2.5878,2.5648,0.0,0.0,0.0,0.0,0.0,0.0,2.6574,2.6623,2.6008,2.5178,2.4074,2.2785,2.2703,2.3686,2.3673,2.4605,2.6272,2.647,2.5825,2.4448,0.0,0.0,0.0,0.0,2.4671,2.4884,2.5233,2.5485,2.5601,2.5469,2.5394,2.5329,2.4598,2.42,2.4148,2.3178,2.2175,2.123,2.0451,0.0,0.0,0.0,0.0,0.0,0.0,0.0,0.0,0.0,0.0,0.0,0.0,0.0,0.0,0.0,0.0,0.0,0.0,0.0,2.0425,2.1088,2.1502,0.0,0.0,0.0,0.0,0.0,0.0,0.0,0.0,0.0,2.6439,2.5545,2.5085,0.0,0.0,2.5558,2.5866,2.5338,2.5254,2.6265,2.5702,0.0,0.0,2.5046,2.5066,2.5237,2.5347,2.5439,2.5441,2.548,2.548,2.5439,2.548,2.5807,2.6788,2.6031,2.5278,2.5293,2.5312,2.5348,2.5411,2.5302,2.5232,3.1124,3.0109,2.9356,2.9008,2.8956,2.8923,2.8711,2.8411,2.8485,2.8246,2.7795,2.7451,2.7183,2.702,2.7051,0.0,0.0,0.0,2.8057,2.8078,2.7512,2.6717,2.5779,2.4901,2.4798,2.5379,2.5531,2.6284,2.7573,2.7884,2.7428,2.6304,0.0,0.0,2.5622,2.5468,2.5393,2.5378,2.5391,2.5453,2.5558,2.5489,2.5407,2.5324,2.4841,2.4564,2.448,2.3797,2.3105,2.2484,2.1807,2.0861,0.0,0.0,0.0,0.0,0.0,0.0,0.0,0.0,0.0,0.0,0.0,1.7783,1.6411,0.0,0.0,0.0,1.9626,2.0491,2.1401,2.2044,0.0,0.0,0.0,0.0,0.0,0.0,0.0,2.7061,2.7367,2.7643,2.7981,2.682,2.6132,2.672,2.6607,2.6605,2.7043,0.0,2.6276,2.6788,2.6202,2.5543,2.5115,2.4999,2.4994,2.5096,2.52,2.5337,2.5411,2.5418,2.5424,2.5414,2.5325,2.5828,2.7554,2.6689,2.5749,2.587,2.5564,2.529,2.5305,2.5135,2.5049,3.3346,3.3168,3.159,3.0785,3.0596,3.0538,3.0088,2.9427,2.9415,2.9472,2.9529,2.8747,2.8869,2.9608,2.8582,0.0,2.9037,2.9146,2.946,2.9856,2.876,2.7909,2.7231,2.6905,2.6678,2.6507,2.7367,2.7949,2.829,2.8301,2.8218,2.8128,2.7938,2.7668,2.7308,2.6708,2.641,2.6404,2.5807,2.5506,2.5503,2.5475,2.545,2.5372,2.5197,2.5048,2.4965,2.4325,2.3946,2.3883,2.3378,2.2311,2.0695,0.0,0.0,0.0,0.0,0.0,0.0,0.0,0.0,0.0,0.0,0.0,0.0,0.0,0.0,0.0,2.1248,0.0,2.2929,2.323,0.0,0.0,0.0,2.585,2.5714,2.6679,2.7521,2.7941,0.0,0.0,2.8891,2.8274,2.8029,2.8582,2.8106,2.7974,2.8686,2.8286,2.7722,2.7164,2.6726,2.6273,2.5585,2.5193,2.499,2.4996,2.4991,2.508,2.5239,2.5259,2.5266,2.5304,2.5162,2.5682,2.7631,2.7132,2.6525,2.6867,2.6114,2.5365,2.535,2.5151,2.5009,3.4195,3.4185,3.426,3.3532,3.2275,3.166,3.1303,3.1127,3.0545,3.0303,3.0329,3.0113,3.0448,3.1171,3.0955,3.1274,3.1952,3.1167,3.0781,3.0628,2.9348,2.8344,2.7676,2.7473,2.7625,2.8054,2.8381,2.9017,2.9897,2.994,2.9937,2.9955,2.9894,2.9059,2.7522,2.7441,2.7146,2.6558,2.645,2.607,2.5447,2.5419,2.5331,2.5157,2.4586,2.4178,2.3963,2.3849,2.3809,2.3897,2.3824,2.3609,2.3274,2.1256,0.0,0.0,0.0,0.0,0.0,0.0,0.0,0.0,0.0,2.0841,1.7959,0.0,2.202,0.0,2.2114,2.2804,2.3054,2.4292,0.0,0.0,2.6641,2.7629,2.7503,2.774,2.8145,2.8736,2.894,2.9269,2.9933,2.985,2.978,2.9915,2.9123,2.8598,2.877,2.8841,2.8978,2.9182,2.7689,2.6382,2.6191,2.555,2.4991,2.4991,2.4991,2.5022,2.5077,2.5057,2.5128,2.5315,2.5817,2.6746,2.8214,2.7953,2.7805,2.8307,2.7815,2.7174,2.695,2.6268,2.5747,3.5038,3.5037,3.5252,3.4827,3.4007,3.316,3.2634,3.2295,3.1871,3.1688,3.177,3.1746,3.198,3.237,3.2407,3.2667,3.3014,3.2287,3.1505,3.0722,2.9648,2.8603,2.7642,2.7826,2.8182,2.8642,2.9168,2.9806,3.0466,3.0481,3.0516,3.0601,3.0605,3.0033,2.8918,2.8651,2.8297,2.7861,2.7083,2.6474,2.603,2.5524,2.5156,2.4919,2.4144,2.3354,2.256,2.2659,2.2757,2.2881,2.3278,2.3691,2.4016,2.2393,2.1098,0.0,0.0,0.0,0.0,0.0,0.0,0.0,0.0,0.0,0.0,0.0,2.325,2.2767,2.3249,2.3946,2.4725,2.57,2.6426,2.6816,2.8066,2.8843,2.8729,2.9035,2.9371,2.9675,2.9742,2.9924,3.0339,3.0404,3.0404,3.0404,2.9896,2.9506,2.9506,2.9594,2.9723,2.9734,2.8224,2.6687,2.6059,2.5392,2.4991,2.4991,2.4991,2.5028,2.5111,2.5141,2.5181,2.5327,2.5941,2.6956,2.8322,2.8176,2.8163,2.92,2.9006,2.8234,2.7497,2.6854,2.635,3.567,3.5605,3.5244,3.5231,3.5407,3.4646,3.3877,3.3151,3.305,3.3072,3.316,3.3179,3.323,3.3336,3.3327,3.3378,3.3417,3.2871,3.1903,3.0649,2.9789,2.8739,2.7624,2.8169,2.8564,2.8858,2.9756,3.0324,3.0485,3.049,3.0529,3.0587,3.06,3.0606,3.0578,2.9919,2.9515,2.9404,2.7849,2.6924,2.6757,2.577,2.5066,2.4668,2.3802,2.2636,2.1147,2.0745,2.0841,2.1368,2.1836,2.2672,2.3895,2.3295,2.261,0.0,2.1304,0.0,0.0,0.0,0.0,0.0,0.0,0.0,0.0,2.3802,2.4355,2.4384,2.4592,2.5315,2.6779,2.7185,2.7637,2.8398,2.9238,2.9744,2.9684,3.0284,3.0661,3.0529,3.0563,3.0539,3.0436,3.0411,3.0414,3.0425,3.0367,3.0323,3.0375,3.0339,3.0096,2.9338,2.8588,2.7476,2.6043,2.551,2.5434,2.5288,2.5251,2.5185,2.5233,2.5253,2.5241,2.5313,2.5995,2.7013,2.8371,2.8128,2.8396,2.979,2.939,2.8592,2.7914,2.7405,2.6916,3.5547,3.5277,3.517,3.5122,3.5163,3.4991,3.4587,3.4017,3.3301,3.3026,3.303,3.303,3.3383,3.399,3.407,3.4336,3.4657,3.3356,3.2325,3.1508,3.0016,2.905,2.8591,2.9053,2.9288,2.9389,3.003,3.0379,3.0436,3.0487,3.0511,3.0517,3.0571,3.0606,3.0592,0.0,0.0,0.0,2.898,2.8024,2.6626,2.6234,2.5586,2.4645,2.3543,0.0,2.0396,1.7344,1.7116,2.0045,1.8648,0.0,0.0,0.0,0.0,0.0,0.0,0.0,0.0,0.0,0.0,0.0,2.3823,2.3533,2.2991,2.4336,2.5282,2.5343,2.6006,2.6569,2.6952,2.8281,2.916,2.9355,3.0137,3.0604,3.0505,3.0617,3.0673,3.0597,3.0581,3.0594,3.0567,3.0524,3.0486,3.0462,3.0486,3.0482,3.0486,3.043,3.0352,3.0115,2.9357,2.8525,2.7517,2.7275,2.6938,2.6516,2.6151,2.5792,2.5229,2.5101,2.5096,2.5131,2.6454,2.766,2.803,2.8439,2.8856,2.9288,2.8703,2.8411,2.9236,2.8782,2.8301,3.5479,0.0,3.4984,3.4981,0.0,3.4954,3.4808,3.4666,3.4365,3.416,3.4025,3.4044,3.4246,3.4661,3.4683,3.4848,3.506,3.3974,3.3091,3.2286,3.132,3.0623,3.0197,3.0462,3.052,3.0421,3.1134,3.1114,3.0454,3.0868,3.0867,3.0462,3.0486,3.0524,3.0544,3.0639,3.054,3.019,2.9608,2.8868,2.7928,2.6881,2.5967,2.5239,0.0,0.0,0.0,0.0,0.0,0.0,0.0,0.0,0.0,0.0,0.0,2.4349,2.4372,2.4219,2.3828,2.4158,2.4549,2.4902,2.4881,2.4665,2.4213,2.5398,2.6158,2.6226,2.6971,2.766,2.8115,2.8954,2.9626,3.0089,3.054,3.0799,3.0797,3.0793,3.0764,3.0669,3.0637,3.0648,3.0609,3.0571,3.054,3.0536,3.0513,3.0505,3.0541,3.0481,3.0325,2.9888,2.985,2.9297,2.8184,2.789,2.7626,2.6822,2.6505,2.6096,2.5305,2.5516,2.5789,2.591,2.7275,2.8492,2.8472,2.8549,2.8742,2.9352,2.8409,2.7849,2.9155,2.9053,2.8655,3.5367,3.509,3.4766,3.4744,3.4925,3.4695,3.4755,3.5053,0.0,0.0,0.0,3.5044,3.5025,3.5025,3.5025,3.4953,3.4813,3.4367,3.3704,3.2933,3.274,3.2371,3.1925,3.1948,3.1835,3.1656,3.2356,3.2002,3.0719,3.138,3.1266,3.0467,3.0427,3.0452,3.0541,3.0635,3.0769,3.0859,3.006,2.9537,2.9327,2.7667,2.6565,2.6124,2.4626,2.31,2.1522,1.4126,0.9896,0.9659,1.0166,1.1234,1.3091,2.0761,2.5351,2.5558,2.5644,2.5664,2.5661,2.5681,2.5681,2.5719,2.5528,2.5425,2.5465,2.6307,2.6788,2.6726,2.7673,2.8518,2.913,2.9379,2.9786,3.0548,3.0659,3.0738,3.0838,3.0858,3.082,3.0768,3.0743,3.0713,3.0655,3.0636,3.0625,3.0617,3.0578,3.0552,3.0581,3.056,3.0288,2.9703,2.9987,2.9915,2.882,2.8453,2.8019,2.7407,2.7031,2.6568,2.6087,2.6232,2.6563,2.6605,2.8021,2.8876,2.9035,2.8642,2.8661,2.9962,2.8343,2.7099,2.8458,2.8639,2.8372,3.5071,3.4755,3.4405,3.43,3.4315,3.4281,3.4445,3.4744,3.4784,3.4803,3.4773,3.4754,3.4754,3.4744,3.4744,3.4419,3.3833,3.3949,3.3685,3.3091,3.3166,3.3133,3.305,3.3004,3.2932,3.2878,3.3033,3.2602,3.1723,3.1753,3.1322,3.0535,3.0477,3.0559,3.0652,3.069,3.0769,3.0879,3.0649,3.0108,2.925,2.8832,2.8082,2.6948,2.5442,2.3605,2.1405,1.4661,0.9948,0.7925,0.8403,0.9763,1.2213,2.0611,2.5506,2.5448,2.5551,2.5576,2.5539,2.5535,2.5842,2.6478,2.5911,2.5474,2.5437,2.6261,2.6701,2.6546,2.7946,2.8809,2.8785,2.9554,3.0148,3.0339,3.0503,3.0648,3.0717,3.0723,3.0772,3.084,3.0859,3.0879,3.084,3.0762,3.0686,3.0666,3.0675,3.0661,3.0606,3.0587,3.0522,3.0345,3.0437,3.0462,3.0082,3.0129,2.9671,2.913,2.8238,2.7673,2.7434,2.7088,2.6906,2.6942,2.8285,2.9079,2.9064,2.9105,2.9269,2.958,2.8146,2.7264,2.8214,2.7838,2.7531,3.5391,3.476,3.4592,3.411,3.3505,3.3775,3.4091,3.4379,3.4043,3.4086,3.4412,3.4442,3.4423,3.4412,3.4197,3.4048,3.3926,3.3827,3.3873,3.4045,3.4251,3.433,3.4328,3.4284,3.4024,3.3596,3.4056,3.3665,3.2622,3.2952,3.2666,3.18,3.1428,3.1053,3.0731,3.077,3.08,3.0793,3.0703,3.0367,2.9784,2.8984,2.8265,2.7585,2.596,2.4471,2.3051,1.5156,0.9826,0.7798,0.738,0.8215,1.0644,1.9986,2.5432,2.5448,2.551,2.5485,2.5337,2.5749,2.6393,2.7348,2.7059,2.68,2.6763,2.7177,2.754,2.7759,2.8871,2.9449,2.9215,2.9687,3.0049,3.0248,3.0318,3.0459,3.0619,3.0663,3.074,3.0792,3.0858,3.0898,3.0918,3.0838,3.0814,3.0814,3.0801,3.0762,3.0628,3.0614,3.0565,3.0536,3.0645,3.0713,3.0636,3.0575,3.0218,2.9538,2.9036,2.8554,2.8246,2.7914,2.8102,2.8113,2.9085,2.9825,2.9852,2.957,2.9613,2.985,2.869,2.8014,2.8451,2.8369,2.829,3.5764,3.5045,3.486,3.4208,3.3332,3.3506,3.3785,3.3979,3.3353,3.3317,3.3779,3.3817,3.3799,3.3792,3.3483,3.3565,3.3857,3.3769,3.4087,3.4756,3.5141,3.53,3.5312,3.531,3.4956,3.4421,3.5022,3.467,3.3569,3.4029,3.3766,3.2742,3.2163,3.1517,3.0784,3.0838,3.0857,3.0747,3.0636,3.051,3.0271,2.9127,2.8415,2.8095,2.6396,2.508,2.3978,1.6582,1.1082,0.8506,0.7343,0.7858,1.0531,1.9813,2.5502,2.5861,2.5774,2.5675,2.5701,2.6203,2.7048,2.8068,2.7953,2.7986,2.8396,2.8324,2.8396,2.8865,2.945,2.9815,2.9622,2.9634,2.9752,3.0023,3.0145,3.0276,3.0528,3.0614,3.0656,3.0711,3.0793,3.0879,3.0898,3.0918,3.0898,3.0898,3.0918,3.084,3.0681,3.0643,3.0636,3.0586,3.0698,3.0759,3.0646,3.0595,3.0326,2.9739,2.9466,2.9201,2.8868,2.9209,2.9363,2.9296,2.9915,3.044,3.0577,3.0177,3.0015,3.0294,2.9344,2.8555,2.8801,2.9313,2.9395,3.5891,3.5688,3.5018,3.4677,3.4376,3.3843,3.3661,3.3606,3.2885,3.2582,3.2729,3.2663,3.2695,3.2663,3.2629,3.2811,3.3132,3.3666,3.4231,3.4747,3.53,3.56,3.5641,3.5644,3.5565,3.5447,3.5686,3.5234,3.4257,3.4411,3.3663,3.2163,3.1987,3.1663,3.0976,3.0918,3.0898,3.0878,3.0677,3.051,3.0272,2.9763,2.9255,2.8811,2.6823,2.5143,2.3863,2.0006,1.5233,0.9975,0.9058,1.0037,1.3562,2.0929,2.592,2.7135,2.6609,2.6456,2.6949,2.7088,2.7593,2.8521,2.8064,2.8345,2.9861,2.9421,2.8927,2.9007,2.9406,2.9641,2.9445,2.9454,2.9561,2.9786,2.9943,3.0158,3.0448,3.0505,3.0561,3.0687,3.0738,3.0768,3.0879,3.0918,3.0918,3.0918,3.0918,3.0858,3.074,3.079,3.0781,3.0641,3.0643,3.0664,3.0659,3.0592,3.05,3.0422,2.9803,2.9636,2.9882,2.9759,2.9547,3.0141,3.0409,3.0584,3.0586,3.0512,3.0486,3.0435,2.9826,2.9037,2.8651,2.9438,3.0194,3.6182,3.5492,3.4766,3.4154,3.3727,3.3808,3.4037,3.4182,3.3685,3.3209,3.279,3.2499,3.2421,3.2484,3.2501,3.2782,3.3341,3.379,3.4356,3.4974,3.543,3.5614,3.5636,3.564,3.5616,3.562,3.5729,3.5557,3.5211,3.5186,3.4619,3.3602,3.3512,3.2914,3.1777,3.1597,3.1291,3.0739,3.061,3.0418,3.0087,2.9577,2.9003,2.8257,2.6935,2.5513,2.4074,2.2191,1.9655,1.6386,1.5487,1.6467,1.9411,2.4857,2.776,2.7547,2.6972,2.7016,2.7869,2.7796,2.8188,2.9255,2.9114,2.9367,3.0061,2.9985,2.9838,2.9825,2.986,2.9788,2.9626,2.957,2.9671,2.9845,2.9962,3.0118,3.0389,3.0482,3.0545,3.0616,3.0679,3.0766,3.0879,3.0918,3.0918,3.0918,3.0918,3.0879,3.082,3.0859,3.082,3.0675,3.0562,3.0539,3.0594,3.0589,3.0589,3.0538,3.0308,3.0292,3.0396,3.0437,3.0287,3.07,3.0648,3.0569,3.0485,3.0559,3.0606,3.0496,3.0486,2.9951,2.9667,3.0176,3.0523,3.6291,3.5294,3.4663,3.4112,3.3723,3.4197,3.4674,3.4976,3.4541,3.3951,3.3311,3.2946,3.281,3.2703,3.2458,3.2731,3.35,3.3864,3.4471,3.5252,3.5485,3.5588,3.5581,3.5582,3.5574,3.5606,3.5659,3.5732,3.574,3.5752,3.5354,3.4706,3.4623,3.3819,3.2363,3.2058,3.154,3.0694,3.0533,3.035,3.0047,2.9626,2.8986,2.8161,2.7248,2.6152,2.4898,2.4188,2.3362,2.2213,2.165,2.2468,2.4884,2.7675,2.8731,2.7824,2.7558,2.779,2.8521,2.8415,2.8714,2.9494,2.9754,2.9885,2.9999,3.0189,3.0337,3.0443,3.0279,3.0066,2.9908,2.9787,2.984,3.0055,3.0081,3.017,3.0423,3.0498,3.0547,3.0608,3.0679,3.0766,3.0859,3.0918,3.0918,3.0918,3.0918,3.0918,3.0918,3.0898,3.0858,3.072,3.0535,3.0464,3.0536,3.0536,3.054,3.0568,3.0484,3.0477,3.0594,3.0586,3.0609,3.0657,3.0634,3.0473,3.0215,3.0281,3.0447,3.0455,3.0432,3.0457,3.0375,3.0594,3.066,3.6044,3.5312,3.4825,3.4801,3.5282,3.528,3.5539,3.5954,3.5244,3.4639,3.4248,3.4133,3.3822,3.3298,3.2429,3.2422,3.3313,3.3827,3.4557,3.546,3.5528,3.5547,3.5576,3.554,3.5527,3.5591,3.5659,3.5767,3.5896,3.5884,3.5449,3.4693,3.474,3.3906,3.2539,3.2253,3.1612,3.0968,3.0687,3.0458,3.0229,3.0188,2.9668,2.8824,2.7874,2.7091,2.6402,2.5937,2.5691,2.5834,2.583,2.6632,2.7949,2.8027,2.8048,2.8091,2.8569,2.8874,2.8927,2.8915,2.9082,2.9353,2.9435,2.9598,2.9931,3.0021,3.0177,3.0457,3.0485,3.0385,3.026,3.0056,3.004,3.0255,3.0278,3.0388,3.0575,3.0575,3.0633,3.0679,3.0714,3.077,3.0898,3.0918,3.0898,3.0898,3.0898,3.0898,3.0918,3.0918,3.084,3.07,3.0557,3.0422,3.047,3.0472,3.0467,3.0482,3.0511,3.0513,3.0565,3.0606,3.0616,3.0594,3.0517,3.0303,2.9938,2.9857,3.0017,3.0113,3.0192,3.0272,3.0459,3.0549,3.0633,3.4925,3.3696,3.4341,3.4748,3.5096,3.5951,3.6719,3.7267,3.6835,3.6271,3.5705,3.5454,3.4703,3.3593,3.3509,3.3562,3.3782,3.4227,3.4756,3.528,3.5434,3.5515,3.5541,3.5508,3.5534,3.5591,3.5679,3.5793,3.5956,3.5972,3.5815,3.5582,3.5507,3.4941,3.3965,3.3675,3.3161,3.2305,3.165,3.1237,3.1168,3.0685,3.0175,2.9752,2.9057,2.8283,2.7414,2.7551,2.7635,2.7565,2.7751,2.8295,2.9078,2.8987,2.8774,2.8709,2.8867,2.8987,2.8987,2.8987,2.904,2.9145,2.931,2.9513,2.9773,2.9939,3.0139,3.0409,3.0548,3.0536,3.0536,3.0429,3.0382,3.047,3.0503,3.0516,3.0574,3.0606,3.0633,3.0687,3.077,3.0858,3.0957,3.0836,3.0814,3.0878,3.0817,3.0815,3.0879,3.0918,3.0857,3.0743,3.0721,3.067,3.0555,3.0458,3.0414,3.0422,3.0436,3.0446,3.0467,3.0458,3.0463,3.0453,3.037,3.0119,2.977,2.9669,2.9777,2.9837,2.992,3.0107,3.0274,3.0423,3.0558,3.408,3.3219,3.417,3.4964,3.5573,3.6968,3.8001,3.8603,3.8399,3.7908,3.7299,3.6997,3.622,3.5271,3.5345,3.5345,3.5096,3.4887,3.4889,3.5223,3.5424,3.5534,3.5522,3.5528,3.5602,3.5686,3.5764,3.5874,3.5996,3.6016,3.6016,3.5996,3.6016,3.5547,3.4824,3.4556,3.4075,3.3222,3.2448,3.2122,3.2135,3.1665,3.1335,3.1158,3.0576,2.9685,2.8597,2.8874,2.8979,2.8848,2.8909,2.9129,2.941,2.9336,2.9254,2.9127,2.9134,2.9178,2.9217,2.9228,2.9206,2.9138,2.9363,2.9561,2.9705,2.9866,3.0152,3.0414,3.0554,3.0636,3.068,3.0698,3.0706,3.0708,3.0689,3.0689,3.0708,3.0689,3.0863,3.1158,3.1325,3.1445,3.1601,3.1328,3.1236,3.1246,3.0954,3.0728,3.0784,3.0865,3.0847,3.0734,3.0737,3.0706,3.0631,3.0525,3.0447,3.0442,3.0422,3.0408,3.0355,3.0317,3.0305,3.0299,3.0128,2.9867,2.9687,2.9541,2.9542,2.9598,2.9736,2.9931,3.012,3.0321,3.0447,3.3633,3.3671,3.4472,3.5578,3.6757,3.8226,3.9261,3.969,3.9718,3.9248,3.8713,3.8713,3.8229,3.79,3.7404,3.7459,3.7007,3.5698,3.5198,3.5525,3.5519,3.5547,3.5585,3.5605,3.5694,3.5855,3.5952,3.5996,3.5996,3.5996,3.6016,3.6016,3.6016,3.5625,3.4746,3.4675,3.4173,3.351,3.3121,3.2998,3.3088,3.302,3.295,3.2929,3.2281,3.1249,2.9902,2.9783,2.9681,2.9605,2.9489,2.9317,2.9092,2.9026,2.9134,2.933,2.9363,2.9474,2.9634,2.9643,2.9542,2.9445,2.9579,2.9687,2.9746,2.9901,3.0132,3.0419,3.0559,3.0625,3.0758,3.0827,3.0857,3.0879,3.0879,3.0859,3.0879,3.0937,3.123,3.1894,3.2129,3.2539,3.293,3.2526,3.2002,3.1747,3.1261,3.0709,3.0694,3.0777,3.0804,3.0722,3.0675,3.0661,3.0625,3.06,3.0545,3.0481,3.0451,3.0419,3.0279,3.0209,3.0159,3.0128,2.9791,2.9547,2.9419,2.9316,2.9326,2.9405,2.9588,2.9788,3.0009,3.0214,3.0342,3.3947,3.3602,3.493,3.6308,3.7664,3.8859,3.9774,4.0403,4.02,3.9961,3.9738,3.9475,3.8983,3.8421,3.8193,3.7977,3.7572,3.6969,3.6522,3.6086,3.5734,3.5588,3.5611,3.5646,3.5711,3.5773,3.5917,3.5974,3.5947,3.5974,3.6016,3.6016,3.6016,3.5859,3.5566,3.5414,3.5142,3.4892,3.4206,3.3936,3.4004,3.3551,3.329,3.3246,3.297,3.2383,3.1536,3.0602,2.9931,2.9533,2.9467,2.9287,2.9048,2.8987,2.9134,2.9361,2.9384,2.9503,2.9661,2.9713,2.9687,2.9625,2.967,2.9763,2.9885,2.9962,3.0137,3.0409,3.05,3.0746,3.1232,3.1022,3.087,3.0898,3.0918,3.0918,3.0957,3.1367,3.1875,3.2187,3.2676,3.3105,3.3301,3.2985,3.2656,3.2108,3.1646,3.1251,3.0759,3.0646,3.0686,3.0645,3.062,3.0597,3.0591,3.0578,3.0525,3.0452,3.0413,3.0309,3.019,3.0018,2.9984,2.982,2.9504,2.9313,2.9177,2.9145,2.9178,2.9267,2.9455,2.9668,2.9912,3.0081,3.0207,3.4459,3.4396,3.573,3.721,3.8634,3.9634,4.0361,4.0788,4.0616,4.0485,4.0365,4.0161,3.9768,3.9355,3.9297,3.9111,3.8784,3.8536,3.7897,3.7017,3.6343,3.5954,3.569,3.5693,3.5702,3.5711,3.5821,3.5868,3.5838,3.5868,3.5898,3.5937,3.5972,3.5976,3.5976,3.5862,3.5769,3.5683,3.512,3.4838,3.4809,3.4424,3.4172,3.4108,3.3808,3.3372,3.2814,3.1701,3.0654,2.9832,2.9431,2.9167,2.9017,2.8998,2.9149,2.9435,2.9542,2.9644,2.9896,2.9992,2.9904,2.9837,2.9904,2.9958,3.004,3.0068,3.0324,3.0788,3.0965,3.1331,3.1958,3.1615,3.1245,3.1282,3.1055,3.0937,3.0976,3.1367,3.2051,3.25,3.3086,3.3613,3.4141,3.3887,3.3405,3.2632,3.2055,3.1472,3.0831,3.0528,3.0533,3.0545,3.0528,3.0548,3.0584,3.0551,3.0496,3.0429,3.0358,3.0215,3.007,2.9813,2.9689,2.9484,2.9196,2.9164,2.9055,2.9033,2.9067,2.9203,2.9343,2.9561,2.9788,2.9969,3.0113,3.5155,3.5939,3.6884,3.8206,3.9634,4.0548,4.0942,4.0998,4.0986,4.0886,4.0785,4.0691,4.0699,4.0715,4.0481,4.0443,4.0602,3.9903,3.8962,3.8059,3.7286,3.6558,3.5781,3.5705,3.5686,3.5638,3.5661,3.5651,3.5574,3.5635,3.5758,3.5806,3.5857,3.5917,3.5935,3.5908,3.5856,3.5779,3.5618,3.5555,3.5605,3.5551,3.5496,3.5413,3.4773,3.4214,3.3777,3.2939,3.1825,3.0434,2.9745,2.9421,2.9145,2.906,2.9336,2.9636,2.9678,2.9896,3.0228,3.0305,3.0248,3.0068,3.0196,3.0305,3.011,3.0401,3.0841,3.1468,3.162,3.2077,3.2687,3.2143,3.1776,3.1759,3.1204,3.0937,3.0918,3.1016,3.1738,3.2832,3.3379,3.3926,3.5234,3.4766,3.3962,3.3209,3.2334,3.1444,3.073,3.0441,3.0422,3.0451,3.0467,3.0487,3.0505,3.0366,3.0312,3.0237,3.0152,2.9982,2.9866,2.9634,2.9405,2.9185,2.906,2.9021,2.8998,2.8987,2.9044,2.92,2.9332,2.9484,2.9634,2.9813,3.0022,3.6115,3.6552,3.7941,3.9174,4.0178,4.0799,4.1074,4.1127,4.1031,4.0959,4.0918,4.0777,4.0728,4.0703,4.0606,4.0575,4.0541,4.0449,3.9528,3.8269,3.7982,3.7013,3.5953,3.5687,3.5556,3.5378,3.5363,3.5273,3.507,3.5306,3.5417,3.548,3.5648,3.5744,3.5775,3.5722,3.5675,3.5676,3.5637,3.5615,3.5641,3.5654,3.5647,3.5578,3.5334,3.5071,3.4688,3.3739,3.2656,3.1514,3.1206,3.0668,2.9951,2.9843,2.9721,2.9528,2.9644,2.9815,3.0068,3.0286,3.0336,3.0311,3.0412,3.0367,3.033,3.0956,3.141,3.1705,3.174,3.2341,3.3194,3.2149,3.1206,3.0967,3.1055,3.1016,3.0976,3.1401,3.1938,3.2327,3.2876,3.3778,3.433,3.4177,3.3451,3.3009,3.2305,3.1427,3.0697,3.0404,3.0406,3.0414,3.0425,3.0422,3.0392,3.0234,3.0099,3.003,2.9889,2.9668,2.9551,2.9407,2.9206,2.901,2.9033,2.8998,2.8987,2.8987,2.9089,2.9167,2.9181,2.927,2.9485,2.9678,2.9893,3.7166,3.7683,3.8795,3.9785,4.0634,4.0897,4.1035,4.1069,4.0972,4.0915,4.0876,4.0798,4.0677,4.0567,4.0481,4.0465,4.0479,4.0555,3.9643,3.8174,3.721,3.6291,3.5562,3.5365,3.5191,3.5012,3.5032,3.4955,3.4816,3.4975,3.5062,3.5149,3.5366,3.5494,3.5539,3.5635,3.5654,3.5649,3.5627,3.5623,3.5619,3.5607,3.5596,3.5548,3.555,3.5438,3.5159,3.4511,3.3535,3.2486,3.1919,3.1363,3.049,3.0258,2.9964,2.9467,2.9589,2.9788,2.9991,3.0248,3.0398,3.0481,3.0673,3.0923,3.1115,3.1718,3.2256,3.2756,3.2429,3.291,3.3557,3.2563,3.1564,3.1352,3.1564,3.1538,3.0895,3.1461,3.1878,3.2143,3.2666,3.332,3.3903,3.3428,3.2994,3.2563,3.213,3.132,3.0639,3.0512,3.0404,3.0404,3.0373,3.0365,3.0291,3.0144,2.9965,2.9874,2.966,2.9435,2.9304,2.9206,2.9115,2.8987,2.8987,2.8987,2.8987,2.8987,2.9051,2.9055,2.9021,2.9115,2.9355,2.9465,2.9701,3.8214,3.9104,3.9506,4.0197,4.0918,4.099,4.1005,4.0968,4.0863,4.0827,4.0804,4.0797,4.0624,4.0376,4.0419,4.0415,4.0377,4.0426,3.9557,3.8035,3.6481,3.5181,3.5292,3.4953,3.4888,3.4855,3.4747,3.4624,3.4555,3.4605,3.4728,3.4857,3.5081,3.5252,3.5405,3.5564,3.5667,3.5647,3.5621,3.5577,3.5581,3.5544,3.5547,3.5527,3.5444,3.5423,3.5342,3.5024,3.4301,3.2925,3.2337,3.1804,3.1022,3.0625,3.0143,2.9728,2.9747,2.9911,2.9943,3.0122,3.0445,3.0611,3.1251,3.1775,3.1917,3.2513,3.3178,3.3754,3.3307,3.2985,3.3128,3.3014,3.255,3.1973,3.2431,3.2182,3.1382,3.1517,3.1988,3.1919,3.2613,3.294,3.3025,3.2924,3.2621,3.214,3.1674,3.1072,3.0581,3.0448,3.0404,3.0404,3.0348,3.0285,3.019,3.0068,2.9882,2.9719,2.9466,2.9249,2.9149,2.9048,2.9033,2.8987,2.8987,2.8987,2.8987,2.8998,2.8987,2.9017,2.8998,2.9134,2.9278,2.9299,2.944,3.8681,3.9442,3.9986,4.0509,4.0964,4.099,4.0975,4.0986,4.0854,4.0781,4.0777,4.0738,4.0526,4.0248,4.0376,4.0377,4.0202,4.0231,3.9808,3.8454,3.5932,3.5162,3.5224,3.4964,3.4905,3.4997,3.4573,3.4244,3.4105,3.43,3.4467,3.4746,3.4982,3.5235,3.5412,3.5482,3.554,3.5553,3.5522,3.5522,3.5522,3.5502,3.5522,3.5544,3.5387,3.5249,3.5144,3.4935,3.4328,3.3666,3.3346,3.2816,3.2107,3.192,3.1237,3.0326,3.0177,3.0129,2.9748,2.9956,3.0407,3.0995,3.1532,3.1962,3.2648,3.3221,3.3658,3.3715,3.2953,3.2105,3.1419,3.2706,3.2649,3.2025,3.2048,3.2294,3.1977,3.2306,3.2382,3.2013,3.1956,3.2034,3.1981,3.1442,3.1314,3.1468,3.1232,3.0714,3.0518,3.0398,3.0329,3.0292,3.0099,3.0006,2.9999,2.9861,2.9651,2.9514,2.9275,2.9149,2.9044,2.8987,2.8987,2.8987,2.8987,2.8975,2.8899,2.8929,2.8905,2.894,2.8929,2.8922,2.8927,2.9003,2.9159,3.9495,3.9973,4.048,4.0816,4.0976,4.0916,4.089,4.0832,4.0722,4.0657,4.0665,4.0617,4.0419,4.0168,4.0255,4.0233,3.9929,3.936,3.8833,3.7728,3.5754,3.5333,3.6019,3.5082,3.4432,3.4636,3.4401,3.4105,3.4074,3.4253,3.4551,3.4704,3.4963,3.5155,3.532,3.5439,3.5494,3.5501,3.55,3.55,3.55,3.5488,3.5508,3.5489,3.528,3.5065,3.4774,3.4373,3.3858,3.3359,3.3022,3.2671,3.216,3.1981,3.1347,3.0497,3.0176,3.002,2.9649,3.0037,3.065,3.1113,3.1922,3.2602,3.3209,3.3793,3.4176,3.3931,3.2986,3.1607,3.0186,3.1225,3.1843,3.2027,3.1817,3.2077,3.24,3.2556,3.2292,3.1722,3.1713,3.1456,3.1049,3.045,3.0484,3.086,3.0916,3.0456,3.0393,3.0286,3.0177,3.0058,2.9787,2.9674,2.9758,2.9643,2.9385,2.9259,2.9108,2.9055,2.901,2.8987,2.8987,2.8982,2.8935,2.8797,2.8743,2.8773,2.8663,2.8469,2.8373,2.8456,2.8482,2.8464,2.8719,4.0307,4.0519,4.0872,4.0994,4.0976,4.0864,4.0781,4.0697,4.0559,4.0523,4.0496,4.0496,4.0362,4.0167,4.0186,4.0129,3.9575,3.8498,3.7773,3.73,3.5299,3.5385,3.6085,3.4995,3.39,3.3847,3.408,3.4171,3.4265,3.4518,3.4694,3.4812,3.4972,3.5155,3.5242,3.5369,3.55,3.55,3.55,3.55,3.55,3.55,3.5481,3.5364,3.5018,3.4671,3.4242,3.3734,3.3204,3.2711,3.192,3.1513,3.1398,3.1286,3.0965,3.0287,3.0317,3.0265,3.0068,3.0511,3.112,3.1224,3.2458,3.3373,3.3732,3.4089,3.4256,3.3766,3.2795,3.1327,3.0085,3.0556,3.1308,3.1624,3.16,3.1719,3.2184,3.2059,3.1264,3.1007,3.096,3.0818,3.0354,2.9831,3.0028,3.0209,3.026,3.0292,3.0222,3.0169,3.0025,2.9825,2.9557,2.9383,2.941,2.9427,2.9181,2.9112,2.8975,2.8975,2.8975,2.8987,2.8982,2.8918,2.884,2.8639,2.8484,2.8417,2.8233,2.7954,2.7968,2.8134,2.8079,2.7926,2.8241,4.0477,4.0908,4.0968,4.0994,4.0975,4.086,4.0762,4.0686,4.0552,4.0496,4.0496,4.0489,4.0356,4.0213,4.0336,4.0068,3.9207,3.8179,3.7452,3.6881,3.5243,3.5163,3.5519,3.4738,3.3954,3.3881,3.4093,3.4253,3.4323,3.451,3.4813,3.499,3.5034,3.5147,3.5339,3.5486,3.5467,3.55,3.55,3.55,3.55,3.5453,3.5376,3.5152,3.4651,3.4148,3.3677,3.3048,3.2464,3.2039,3.1812,3.1707,3.1533,3.1384,3.0938,3.0648,3.0984,3.1021,3.0644,3.1177,3.1946,3.2558,3.3133,3.3746,3.4177,3.4285,3.4031,3.3187,3.2104,3.0806,3.0516,3.042,3.0582,3.0864,3.0498,3.0044,3.0476,3.022,2.9833,2.9721,2.9908,3.0094,2.961,2.9345,2.9564,2.9772,2.9943,2.9958,2.9935,2.9891,2.9847,2.9613,2.9326,2.9175,2.9071,2.9079,2.8998,2.9033,2.8964,2.8952,2.8952,2.8975,2.8959,2.8919,2.8608,2.824,2.8107,2.8088,2.7915,2.7695,2.7768,2.7855,2.7707,2.756,2.7678,4.0731,4.089,4.0976,4.093,4.0844,4.0771,4.0682,4.0615,4.0534,4.0496,4.0496,4.0489,4.0422,4.0364,4.0414,3.9776,3.8582,3.8271,3.7354,3.629,3.5609,3.567,3.5917,3.4968,3.4853,3.4855,3.4753,3.4434,3.4478,3.4755,3.4963,3.5008,3.4981,3.5025,3.525,3.5281,3.5376,3.5446,3.5474,3.5481,3.546,3.5376,3.5207,3.494,3.4277,3.3673,3.3166,3.2526,3.195,3.1515,3.1129,3.0975,3.093,3.0869,3.0766,3.0848,3.1311,3.1434,3.1099,3.1596,3.2391,3.2736,3.3268,3.3743,3.4078,3.3994,3.3617,3.2853,3.2348,3.1353,3.0784,3.0518,3.0628,3.0645,2.9822,2.9364,2.9328,2.877,2.8578,2.8617,2.9062,2.9214,2.8885,2.882,2.9089,2.9325,2.9569,2.9615,2.9615,2.9551,2.9522,2.9329,2.9055,2.8946,2.8803,2.8731,2.8749,2.8803,2.8815,2.8803,2.8881,2.8881,2.8943,2.8965,2.8546,2.8024,2.7861,2.7851,2.7643,2.7441,2.7317,2.7255,2.7257,2.7272,2.7348,4.0894,4.0812,4.092,4.0855,4.0721,4.0717,4.063,4.0519,4.0496,4.0496,4.0496,4.0496,4.0496,4.0489,4.0273,3.949,3.7773,3.8148,3.7299,3.5919,3.5752,3.6336,3.6321,3.5738,3.489,3.5022,3.4901,3.4632,3.4704,3.4916,3.507,3.5025,3.4832,3.4784,3.4981,3.5016,3.5179,3.5327,3.5405,3.5405,3.5361,3.5223,3.5016,3.4841,3.3993,3.3253,3.2832,3.2091,3.1603,3.1176,3.0789,3.0398,3.0345,3.0345,3.0633,3.1166,3.1334,3.1241,3.1377,3.2032,3.2733,3.2857,3.3413,3.3728,3.3723,3.3642,3.3264,3.2729,3.2284,3.2049,3.1341,3.0771,3.0676,3.052,2.9698,2.8768,2.8614,2.8244,2.7814,2.7965,2.8385,2.8397,2.8187,2.8321,2.8603,2.8927,2.9177,2.9198,2.9188,2.9103,2.9042,2.8941,2.8777,2.8676,2.8558,2.8399,2.8412,2.8482,2.8469,2.8425,2.8601,2.8779,2.8826,2.884,2.8491,2.8021,2.7839,2.7642,2.7495,2.7257,2.689,2.6775,2.6923,2.6939,2.6971,4.0825,4.0795,4.0824,4.0761,4.0703,4.0711,4.0623,4.0504,4.0496,4.0496,4.0496,4.0496,4.0496,4.0412,4.0404,3.932,3.8194,3.7982,3.7338,3.5789,3.5593,3.5661,3.5353,3.4412,3.4325,3.4591,3.442,3.4431,3.4624,3.4898,3.5043,3.4962,3.4735,3.4704,3.4705,3.4725,3.4898,3.5096,3.5138,3.5138,3.5149,3.5088,3.4765,3.4252,3.3563,3.2925,3.2559,3.1861,3.1332,3.1215,3.1106,3.1055,3.1072,3.1072,3.1092,3.1291,3.1502,3.1741,3.1759,3.2498,3.306,3.3114,3.3533,3.3748,3.3697,3.3298,3.2949,3.2651,3.2137,3.2017,3.1928,3.0835,3.0473,3.0071,2.9516,2.8606,2.8166,2.8546,2.8031,2.7798,2.8362,2.7959,2.7613,2.7869,2.8112,2.8484,2.8761,2.8778,2.8748,2.8688,2.8591,2.8478,2.844,2.836,2.8255,2.8088,2.8088,2.8161,2.8075,2.8075,2.8299,2.8492,2.86,2.8518,2.8254,2.8216,2.8219,2.7957,2.7522,2.7194,2.6987,2.6824,2.6725,2.6708,2.6725,4.0731,4.0757,4.0732,4.067,4.0589,4.0602,4.0559,4.0504,4.0496,4.0496,4.0496,4.0496,4.0285,3.9935,3.9682,3.8458,3.7193,3.7717,3.7361,3.6382,3.6168,3.634,3.6174,3.5151,3.4491,3.4328,3.4284,3.4253,3.4456,3.4521,3.4595,3.4584,3.4357,3.426,3.4409,3.4431,3.4603,3.4784,3.4879,3.486,3.4822,3.4695,3.447,3.4176,3.3442,3.2939,3.2449,3.1932,3.1411,3.1271,3.119,3.119,3.119,3.1173,3.1193,3.123,3.1351,3.1548,3.1845,3.2679,3.3029,3.3288,3.3536,3.3793,3.3733,3.3513,3.3275,3.3293,3.2999,3.2878,3.2757,3.1837,3.1268,3.0651,2.9877,2.9229,2.8731,2.87,2.871,2.8488,2.8258,2.7991,2.7748,2.7939,2.8139,2.8232,2.8471,2.8504,2.8428,2.8316,2.8197,2.8047,2.802,2.801,2.7894,2.7779,2.7794,2.7794,2.7663,2.7707,2.8,2.8183,2.821,2.8398,2.8378,2.842,2.8537,2.8303,2.7869,2.7497,2.7162,2.7004,2.6825,2.6725,2.6858,4.0617,4.0557,4.0604,4.0582,4.0489,4.0422,4.0449,4.0489,4.0406,4.0441,4.0489,4.0469,4.0127,3.9624,3.9297,3.8422,3.6652,3.7648,3.7423,3.7131,3.6942,3.7033,3.6413,3.55,3.4582,3.4711,3.4207,3.4099,3.4093,3.4123,3.4171,3.4183,3.4006,3.3948,3.4043,3.4141,3.4253,3.454,3.4684,3.4674,3.4561,3.4368,3.4218,3.3949,3.3538,3.3029,3.2665,3.2057,3.1603,3.1485,3.1249,3.119,3.119,3.119,3.119,3.119,3.1252,3.1351,3.1696,3.2264,3.2809,3.3136,3.3508,3.3807,3.3807,3.3807,3.3807,3.3715,3.3678,3.3524,3.3304,3.2747,3.2261,3.1567,3.0861,3.024,2.9688,2.9485,2.9304,2.909,2.8835,2.853,2.8348,2.8301,2.8254,2.8139,2.8166,2.8219,2.8043,2.7865,2.7648,2.7454,2.7236,2.7267,2.7348,2.7332,2.7376,2.7361,2.7224,2.7301,2.756,2.7683,2.7698,2.794,2.8186,2.8318,2.8277,2.8259,2.8219,2.7819,2.7439,2.7147,2.6971,2.6874,2.7004,4.0353,4.0148,4.0406,4.0496,4.0473,4.0223,4.0286,4.0449,4.0232,4.0278,4.0397,4.0446,4.0227,3.9929,3.9546,3.8858,3.7691,3.8622,3.8012,3.7231,3.6776,3.6413,3.5844,3.4945,3.399,3.399,3.3913,3.39,3.3842,3.3902,3.3993,3.4123,3.3884,3.3842,3.3823,3.3858,3.3993,3.423,3.4409,3.4379,3.4246,3.4104,3.4012,3.3778,3.3447,3.3169,3.309,3.2332,3.1824,3.1748,3.1406,3.121,3.119,3.1075,3.1055,3.1035,3.0918,3.0982,3.1281,3.1734,3.2144,3.2663,3.3225,3.3766,3.3788,3.3807,3.3807,3.3807,3.3807,3.3793,3.359,3.3303,3.2752,3.2344,3.1616,3.0958,3.0406,3.0039,2.9852,2.9664,2.9282,2.878,2.833,2.8139,2.8066,2.7932,2.7805,2.7848,2.7482,2.7239,2.7003,2.6757,2.642,2.6402,2.664,2.664,2.6522,2.6556,2.6539,2.6757,2.7065,2.7114,2.7038,2.7282,2.7495,2.7759,2.8036,2.8089,2.8102,2.7964,2.7736,2.75,2.7272,2.7147,2.7319,4.0062,3.9808,3.9894,4.0072,4.0241,4.0139,4.0158,4.0242,4.0148,4.0032,3.9974,3.9916,3.9589,3.914,3.8742,3.8201,3.7266,3.7225,3.7122,3.6636,3.5991,3.5587,3.5023,3.4559,3.3825,3.3807,3.3807,3.3807,3.382,3.3807,3.3829,3.3876,3.381,3.3634,3.3564,3.3675,3.385,3.3839,3.386,3.371,3.3656,3.3575,3.3524,3.3433,3.3634,3.339,3.3136,3.2599,3.2179,3.1788,3.1428,3.123,3.1072,3.0855,3.0695,3.0597,3.0377,3.0356,3.0784,3.1361,3.2127,3.2825,3.3273,3.3522,3.3689,3.3793,3.3807,3.3807,3.378,3.3734,3.3705,3.3327,3.2906,3.2743,3.2291,3.1571,3.0979,3.0518,2.9814,2.9368,2.9047,2.865,2.8198,2.7802,2.777,2.7722,2.7589,2.7409,2.7099,2.6824,2.6641,2.6333,2.5983,2.5746,2.5946,2.5801,2.5615,2.5762,2.5908,2.6107,2.6352,2.6238,2.6219,2.6505,2.6817,2.7068,2.742,2.7841,2.7978,2.7894,2.7922,2.7904,2.7675,2.7454,2.7562,3.9765,3.945,3.9438,3.9645,3.9912,3.9829,3.987,3.9922,3.9819,3.9765,3.9599,3.958,3.9209,3.8626,3.8384,3.805,3.7507,3.7108,3.682,3.6321,3.5752,3.5114,3.4729,3.4321,3.3807,3.3807,3.3807,3.3807,3.3807,3.3807,3.3721,3.3675,3.3721,3.3606,3.3583,3.362,3.3766,3.3564,3.3522,3.3361,3.3419,3.3419,3.3433,3.3447,3.3666,3.3536,3.3181,3.2697,3.2248,3.184,3.1457,3.1136,3.0824,3.0506,3.0227,2.9946,2.9739,2.9629,3.0175,3.1172,3.2057,3.2533,3.2872,3.3181,3.3476,3.3638,3.3583,3.3597,3.3592,3.356,3.3496,3.3063,3.3098,3.3013,3.2437,3.1738,3.1146,3.0615,2.971,2.895,2.8578,2.8116,2.772,2.7276,2.7123,2.7144,2.7194,2.7067,2.6923,2.6691,2.6522,2.6159,2.5682,2.5475,2.5265,2.5147,2.5086,2.5411,2.5505,2.543,2.5516,2.5432,2.559,2.6001,2.628,2.6455,2.6785,2.723,2.7599,2.7883,2.7894,2.7922,2.8016,2.7805,2.7678,3.9358,3.9107,3.908,3.9276,3.9486,3.9269,3.9346,3.9552,3.9308,3.9308,3.9481,3.9505,3.9352,3.9021,3.8826,3.8526,3.807,3.7522,3.7125,3.6611,3.5422,3.5004,3.4656,3.4211,3.3807,3.3807,3.3807,3.3807,3.3807,3.3807,3.3606,3.3504,3.3648,3.3734,3.378,3.378,3.3597,3.3332,3.3583,3.3638,3.362,3.3606,3.3592,3.3606,3.3721,3.3592,3.3196,3.2745,3.2299,3.1841,3.1416,3.1035,3.0609,3.0196,2.9889,2.9639,2.94,2.9339,2.9546,3.0962,3.168,3.2022,3.2383,3.2711,3.3075,3.3214,3.3199,3.3199,3.3214,3.2996,3.2847,3.2752,3.3063,3.3008,3.2407,3.1909,3.1323,3.0604,2.9704,2.8531,2.7847,2.7338,2.702,2.6707,2.6471,2.6488,2.6657,2.6674,2.6607,2.6605,2.6466,2.5872,2.5382,2.4999,2.4756,2.4556,2.4592,2.495,2.5047,2.4851,2.478,2.476,2.5033,2.5471,2.5549,2.5579,2.6078,2.6622,2.7092,2.7572,2.7751,2.7851,2.8047,2.8029,2.7736,3.8107,3.7872,3.8172,3.8363,3.8529,3.8957,3.9178,3.9205,3.8975,3.8898,3.8984,3.8994,3.897,3.8859,3.8748,3.849,3.7816,3.7055,3.6574,3.5771,3.4747,3.4357,3.41,3.4027,3.3807,3.3807,3.3807,3.3807,3.3807,3.3807,3.378,3.3694,3.3634,3.362,3.3462,3.339,3.3306,3.3243,3.3332,3.339,3.3404,3.3419,3.3437,3.3437,3.3606,3.3522,3.3121,3.2648,3.2213,3.1788,3.1376,3.1063,3.0651,3.026,2.978,2.9512,2.9232,2.8662,2.9255,3.0352,3.1114,3.1551,3.195,3.2247,3.2648,3.2729,3.2729,3.2729,3.2745,3.2599,3.2597,3.2579,3.2731,3.2713,3.2312,3.1936,3.1386,3.06,2.9668,2.825,2.7274,2.6455,2.5954,2.5878,2.5711,2.5709,2.5873,2.6139,2.6157,2.6425,2.6435,2.5654,2.5044,2.4588,2.4235,2.3975,2.4038,2.4389,2.4323,2.4048,2.4008,2.4256,2.4435,2.4854,2.4768,2.4705,2.5359,2.6009,2.6737,2.7218,2.7376,2.7592,2.7751,2.7631,2.7348,3.6626,3.6551,3.705,3.7272,3.7471,3.8487,3.8957,3.8919,3.8792,3.8707,3.8704,3.8723,3.8521,3.8355,3.8212,3.7826,3.7052,3.6229,3.5734,3.4894,3.4211,3.3972,3.3862,3.3807,3.3807,3.3807,3.3807,3.3807,3.3807,3.3807,3.3793,3.3753,3.3652,3.3332,3.3151,3.3181,3.3379,3.3332,3.3361,3.3408,3.3302,3.3214,3.3121,3.3057,3.3087,3.3121,3.2761,3.2383,3.2057,3.1657,3.138,3.1116,3.0742,3.0519,2.9972,2.9586,2.9187,2.8732,2.9368,2.9679,3.0431,3.1094,3.1418,3.1789,3.2161,3.2247,3.2247,3.2247,3.2265,3.2161,3.2109,3.2127,3.2144,3.2144,3.1812,3.1411,3.0523,2.9689,2.8596,2.7274,2.6275,2.5508,2.4976,2.4957,2.4914,2.4973,2.5086,2.5373,2.5719,2.6106,2.597,2.4902,2.4102,2.342,2.3241,2.3348,2.35,2.3837,2.3873,2.3831,2.3943,2.4282,2.4271,2.4193,2.4168,2.4281,2.4772,2.5401,2.625,2.674,2.6937,2.7178,2.7426,2.7334,2.7099,3.5026,3.5154,3.5761,3.6063,3.6327,3.7681,3.846,3.8627,3.8593,3.8596,3.8611,3.8457,3.799,3.7497,3.7433,3.6938,3.6274,3.5416,3.5078,3.4729,3.4082,3.3899,3.3807,3.3807,3.3807,3.3807,3.3734,3.3652,3.3766,3.355,3.3564,3.3578,3.327,3.2983,3.2937,3.3075,3.3273,3.3166,3.3447,3.3437,3.3273,3.3199,3.2983,3.2825,3.2681,3.2484,3.2179,3.1897,3.1678,3.1421,3.1211,3.092,3.0782,3.0937,3.0346,2.9775,2.9339,2.9451,2.9496,2.9651,2.9827,3.0526,3.0804,3.1281,3.1658,3.1806,3.1806,3.1806,3.1788,3.1564,3.1408,3.143,3.147,3.1225,3.0897,3.0171,2.9181,2.8181,2.7049,2.5986,2.5104,2.4425,2.4163,2.4095,2.423,2.4302,2.441,2.4612,2.5057,2.5869,2.5369,2.3652,2.2825,2.2046,2.2041,2.2383,2.3179,2.3599,2.4122,2.422,2.4287,2.4322,2.4265,2.4123,2.3776,2.3914,2.4518,2.5141,2.5821,2.6245,2.6607,2.6923,2.721,2.721,2.7035,3.3453,3.4064,3.4589,3.4833,3.4953,3.5752,3.6677,3.756,3.7632,3.7632,3.7596,3.7022,3.6557,3.6412,3.6226,3.5631,3.5208,3.4899,3.4591,3.4234,3.3954,3.3862,3.3807,3.3807,3.3807,3.3707,3.3578,3.3451,3.3302,3.3136,3.2934,3.2809,3.284,3.2632,3.2632,3.2761,3.2777,3.2919,3.3343,3.3375,3.3211,3.309,3.2793,3.2517,3.2384,3.2127,3.1861,3.1789,3.1678,3.1637,3.1333,3.1213,3.1966,3.1446,3.0696,2.9665,2.9717,3.0059,2.9978,2.9629,2.9629,2.9973,3.0102,3.0502,3.1007,3.1317,3.1317,3.1336,3.1413,3.1293,3.1193,3.1157,3.1024,3.0727,3.0249,2.9379,2.8403,2.7373,2.623,2.515,2.4237,2.3736,2.3471,2.3435,2.3578,2.3644,2.3767,2.3948,2.4317,2.5124,2.4602,2.2834,2.0492,1.9397,2.0738,2.1349,2.2483,2.3382,2.3935,2.4521,2.4891,2.4815,2.4434,2.4109,2.382,2.3958,2.4353,2.4973,2.5615,2.605,2.6419,2.6724,2.6955,2.6971,2.6938,3.2007,3.2752,3.3019,3.3073,3.3071,3.3344,3.401,3.4858,3.588,3.6122,3.5532,3.5344,3.4768,3.3963,3.4182,3.4167,3.3629,3.3981,3.4012,3.4027,3.3807,3.3807,3.3807,3.3807,3.3807,3.3694,3.3564,3.3451,3.309,3.2745,3.2534,3.255,3.2501,3.2367,3.2332,3.24,3.2401,3.255,3.2775,3.3027,3.2965,3.2761,3.2384,3.2109,3.2039,3.1841,3.1677,3.1678,3.1807,3.1879,3.16,3.1934,3.2366,3.1788,3.1355,3.0517,3.0485,3.0481,3.023,2.9695,2.9717,2.9673,2.9429,2.9635,3.0187,3.0605,3.0723,3.0825,3.1038,3.119,3.1095,3.0958,3.0662,3.0356,2.9544,2.8725,2.7741,2.6759,2.5651,2.4494,2.374,2.3187,2.2935,2.2935,2.298,2.312,2.3268,2.345,2.3721,2.4202,2.3422,2.182,1.8792,1.6446,1.8212,2.0086,2.1107,2.232,2.3772,2.4391,2.5099,2.5398,2.5137,2.4559,2.3945,2.4171,2.446,2.4855,2.5392,2.5817,2.6262,2.6607,2.6808,2.6808,2.6775,3.0539,3.1292,3.1173,3.1067,3.0876,3.0947,3.0917,3.1001,3.3151,3.3786,3.2879,3.3256,3.2188,3.0871,3.1443,3.201,3.2143,3.2676,3.351,3.3734,3.3788,3.3807,3.3807,3.3807,3.3807,3.3807,3.362,3.3288,3.295,3.2501,3.2179,3.2401,3.2299,3.2074,3.1843,3.2039,3.2074,3.2074,3.2213,3.2384,3.2349,3.2039,3.1621,3.1332,3.1271,3.1232,3.1332,3.1526,3.1808,3.1986,3.223,3.2497,3.2398,3.2144,3.1862,3.1529,3.1201,3.0882,3.0414,2.9827,2.9496,2.9248,2.885,2.8826,2.9203,2.9935,3.0171,3.0497,3.074,3.1035,3.1035,3.0918,3.0679,3.0079,2.9323,2.8148,2.6867,2.5783,2.4608,2.3681,2.3274,2.2725,2.2294,2.2271,2.2575,2.2657,2.3017,2.3216,2.3501,2.3834,2.283,2.1223,1.7568,1.5248,1.6417,1.8154,1.9407,2.0858,2.2621,2.4528,2.5422,2.5728,2.587,2.5319,2.4792,2.4508,2.4649,2.4996,2.5297,2.5633,2.6068,2.6505,2.6657,2.6657,2.6691,2.8812,2.9597,2.9569,2.9527,2.9468,2.9468,2.8997,2.8343,2.8607,2.9257,2.9705,2.9354,2.8464,2.7297,2.8295,2.9006,2.9742,3.1288,3.2664,3.3277,3.3542,3.3748,3.3807,3.3807,3.3807,3.3694,3.3447,3.2965,3.24,3.1896,3.1543,3.1543,3.16,3.1507,3.143,3.162,3.1638,3.1696,3.1658,3.177,3.1808,3.1826,3.1604,3.1276,3.1114,3.1114,3.1254,3.1547,3.1951,3.2315,3.2654,3.2824,3.2855,3.2514,3.2161,3.1807,3.143,3.1117,3.0736,3.0081,2.9563,2.9073,2.8638,2.8174,2.828,2.9118,2.9739,3.0102,3.0497,3.0797,3.0955,3.0818,3.058,2.9837,2.9045,2.7555,2.6085,2.4867,2.3659,2.3192,2.2834,2.2314,2.1828,2.1758,2.21,2.256,2.3113,2.3475,2.3766,2.3967,2.3251,2.1192,1.6599,1.4727,1.5608,1.6339,1.7636,1.9227,2.0978,2.3156,2.5503,2.603,2.6236,2.6129,2.5807,2.5419,2.5086,2.5054,2.5354,2.5542,2.5835,2.6263,2.6522,2.659,2.6641,2.8214,2.8876,2.8115,2.7591,2.7193,2.6752,2.6239,2.5726,2.5289,2.4895,2.4829,2.4996,2.4625,2.3667,2.4718,2.5922,2.7002,2.9468,3.1006,3.2126,3.315,3.3606,3.3726,3.3793,3.3807,3.368,3.3136,3.2567,3.2039,3.1507,3.1249,3.119,3.119,3.119,3.119,3.121,3.131,3.1488,3.1291,3.1237,3.1266,3.1133,3.0878,3.058,3.0621,3.072,3.1044,3.138,3.2021,3.2565,3.3018,3.2834,3.2744,3.2478,3.2213,3.1843,3.147,3.119,3.0935,3.0414,2.9673,2.9225,2.8662,2.8247,2.776,2.848,2.8764,2.9187,3.0166,3.0576,3.0617,3.0535,3.0187,2.9609,2.8566,2.728,2.6054,2.4926,2.4027,2.3455,2.2808,2.1856,2.1318,2.0706,2.1099,2.1677,2.2366,2.3492,2.384,2.4719,2.3798,2.2624,1.8963,1.5331,1.4889,1.5363,1.5926,1.758,1.9659,2.2134,2.4645,2.5886,2.66,2.625,2.6107,2.6138,2.587,2.546,2.5259,2.5373,2.567,2.6015,2.6227,2.6418,2.6605,2.7841,2.8193,2.6798,2.5636,2.4779,2.3963,2.3495,2.3204,2.2661,2.12,1.9672,2.0753,2.044,2.0443,2.1133,2.2417,2.4263,2.6964,2.8943,3.0864,3.2414,3.3105,3.3564,3.3766,3.3793,3.3522,3.2983,3.2715,3.2401,3.1694,3.119,3.119,3.119,3.119,3.119,3.119,3.1252,3.1271,3.1114,3.0858,3.058,3.0272,3.0038,2.9892,2.987,3.0187,3.0567,3.1114,3.1862,3.245,3.2963,3.2845,3.2554,3.2312,3.2126,3.1771,3.143,3.1249,3.1035,3.0597,3.0059,2.954,2.8943,2.8415,2.7944,2.787,2.8174,2.8575,2.9546,3.0187,3.0246,3.0393,3.0038,2.9428,2.8318,2.7226,2.6153,2.5053,2.4357,2.3728,2.2687,2.1664,2.0966,2.0321,2.0383,2.0904,2.1792,2.2871,2.4017,2.534,2.5663,2.5562,2.4134,2.0492,1.675,1.5606,1.6265,1.738,1.9609,2.1793,2.3769,2.5236,2.6074,2.6058,2.6001,2.6175,2.5981,2.5538,2.5392,2.5335,2.543,2.5689,2.5744,2.5994,2.6476,2.6346,2.5742,2.5369,2.4684,2.3818,2.3551,2.2864,2.1675,2.0494,1.9069,1.7576,1.5861,1.5484,1.626,1.7807,1.9283,2.1033,2.4117,2.697,2.9102,3.1148,3.243,3.3281,3.3616,3.378,3.3476,3.2996,3.2599,3.2484,3.1732,3.123,3.1291,3.1252,3.1232,3.1213,3.1232,3.1312,3.131,3.1252,3.1061,3.0522,3.0251,2.9935,2.9717,2.9496,2.987,3.0302,3.0771,3.1333,3.1916,3.2433,3.253,3.2364,3.2074,3.1915,3.1715,3.137,3.1269,3.1015,3.0699,3.0251,3.0038,2.9451,2.8943,2.8519,2.8238,2.8271,2.7978,2.8841,2.9739,3.0059,3.0658,3.0559,2.967,2.8653,2.7543,2.6443,2.5405,2.4496,2.3635,2.2673,2.1852,2.1151,2.0622,2.0283,2.0915,2.1806,2.2929,2.4276,2.5762,2.723,2.754,2.7695,2.5163,2.1223,1.8035,1.7903,1.8614,1.9554,2.1693,2.3468,2.478,2.5406,2.5424,2.584,2.6158,2.5877,2.5465,2.554,2.5449,2.5297,2.5335,2.5354,2.5556,2.6018]}]]